GFSSGP_250_rhum_000.txt.gz
RH
89 96 94 78 60 51 52 48 54 50 41 30 29 32 28 24 21 21 18 15 12 10 10 11 12 13 21 42 71 52 95 95 66 72 71 82 74 77 73 62 55 47 40 38 36 33 30 26 23
96 89 97 93 100 68 53 68 67 42 41 42 33 23 28 25 23 21 18 14 10 10 11 11 12 14 29 60 86 90 100 100 95 74 67 66 88 85 79 72 60 57 37 38 36 32 33 25 23
74 74 83 100 91 79 59 80 60 41 39 44 32 28 27 28 25 21 16 12 9 9 9 12 14 15 32 63 92 84 100 100 94 71 69 51 62 72 76 66 66 45 43 32 31 32 32 26 24
66 64 65 80 76 65 69 82 71 52 41 39 25 23 30 30 27 19 15 10 9 8 8 12 15 17 44 76 92 78 100 100 77 79 77 48 73 82 83 60 49 44 41 37 28 33 30 25 23
58 60 56 58 68 52 65 65 66 61 45 33 23 31 39 32 26 17 12 10 9 8 10 14 17 22 59 79 93 100 100 92 92 98 74 61 100 100 80 69 59 60 46 37 32 29 27 24 22
30 43 56 48 49 49 50 42 45 49 42 33 26 28 37 28 23 16 12 10 10 10 14 17 20 36 77 83 100 100 96 100 74 65 62 74 92 96 94 84 76 59 42 32 27 28 24 22 18
31 32 31 29 34 35 35 40 57 61 52 39 29 30 31 27 22 14 11 11 11 13 16 17 21 57 86 94 100 98 100 97 77 89 100 98 84 70 73 62 53 48 39 31 29 23 21 18 18
26 29 31 27 24 27 36 44 55 54 45 44 33 27 33 26 19 13 12 12 11 14 16 21 37 68 87 89 100 86 100 89 99 76 76 66 58 57 51 50 53 36 36 33 24 18 18 22 27
24 23 24 25 26 29 32 37 37 43 53 47 34 28 30 27 16 12 14 10 12 15 18 29 50 80 87 91 100 100 100 87 100 100 93 64 62 67 59 48 42 46 38 23 21 20 25 26 28
19 20 22 24 24 25 29 30 28 39 56 42 33 34 30 25 13 12 15 8 13 16 21 39 70 91 95 97 100 100 100 100 99 90 86 69 74 68 52 51 45 37 22 23 21 25 30 31 32
19 17 18 22 24 27 28 24 28 42 45 41 36 44 36 18 11 18 10 8 14 18 22 50 73 84 91 96 100 100 100 99 71 68 76 77 65 60 50 42 36 21 28 23 29 32 32 32 34
18 17 15 17 22 22 22 26 30 30 40 43 35 53 36 14 12 24 7 10 13 21 33 47 75 88 100 100 100 100 90 72 74 88 74 64 59 52 42 26 23 29 28 33 32 34 36 36 44
17 16 15 16 19 21 22 23 29 33 39 38 48 52 26 12 23 19 6 13 16 24 36 70 73 79 90 100 100 94 72 63 62 68 66 65 56 42 19 27 27 28 32 34 36 39 41 42 48
17 16 15 16 17 16 24 25 37 32 41 60 55 39 16 14 37 10 9 17 18 23 41 58 73 79 75 73 68 72 74 90 100 96 81 48 36 25 36 30 29 33 37 42 42 41 37 40 47
20 17 16 15 16 16 22 26 34 46 66 71 52 34 16 33 33 11 9 16 22 34 52 48 59 90 74 77 81 91 99 100 100 67 38 31 33 40 32 32 33 40 43 42 41 37 32 38 44
24 20 17 16 18 22 22 25 44 59 70 55 57 31 18 38 28 16 11 18 32 35 40 62 63 54 65 92 94 99 100 100 65 37 39 39 41 33 33 36 37 38 40 40 36 33 36 43 44
24 19 18 22 24 23 22 32 90 84 75 66 58 28 18 34 26 21 18 21 28 38 46 51 67 73 86 99 100 100 100 70 39 43 45 42 41 43 43 43 41 40 39 42 45 43 40 46 51
25 19 20 22 28 22 22 34 100 96 83 78 67 22 19 39 28 26 31 28 28 36 45 55 60 66 91 100 100 100 86 39 43 44 39 47 53 56 62 60 52 50 52 51 47 44 54 61 74
22 22 22 28 26 21 21 41 70 89 89 83 59 22 24 47 35 38 43 51 53 58 64 72 88 100 100 100 82 86 40 42 47 41 51 61 64 72 73 66 58 38 34 39 43 50 56 69 65
21 22 25 29 26 18 22 44 84 82 82 76 51 24 22 54 55 71 82 84 89 91 94 96 100 99 93 92 57 35 41 46 53 58 62 62 60 54 47 43 39 36 39 41 46 50 61 70 67
22 24 26 29 26 18 27 40 77 82 69 66 48 25 19 40 68 80 96 99 100 100 96 91 86 85 75 56 42 36 41 47 48 50 53 56 57 52 46 42 39 39 41 44 45 62 70 61 68
21 24 29 31 26 19 50 66 76 77 70 73 42 26 21 22 48 61 79 94 98 100 100 96 86 72 54 47 45 45 51 42 42 45 45 49 52 48 43 42 38 37 38 42 58 68 47 50 64
21 25 28 29 25 19 43 64 80 84 64 67 35 24 24 26 39 51 70 88 99 100 86 52 41 40 40 39 48 57 56 52 47 45 49 51 53 54 51 51 48 46 47 61 77 59 59 71 72
22 24 28 28 24 22 28 75 90 83 69 58 32 31 33 35 29 42 66 80 77 47 43 46 49 48 48 49 48 47 48 52 58 64 64 62 58 56 51 52 52 55 84 84 64 65 82 98 99
26 25 25 27 26 23 33 99 100 92 70 61 35 34 37 40 38 36 41 44 45 52 53 54 50 46 46 52 60 62 63 61 57 52 50 50 51 52 55 56 56 64 67 66 69 72 76 75 66
27 26 22 27 26 23 36 100 100 93 66 65 38 37 34 39 47 52 55 57 57 60 61 57 57 59 58 63 67 77 79 68 67 66 65 66 70 73 73 76 74 74 76 75 69 64 61 56 58
29 28 26 29 26 24 52 100 100 99 68 70 45 37 42 45 50 52 55 56 69 83 77 84 89 86 87 80 71 70 76 70 66 68 69 67 65 65 67 69 68 62 55 53 54 58 74 94 98
29 27 28 26 25 34 61 100 100 100 92 74 54 43 48 55 53 57 67 80 93 94 90 84 74 71 76 77 78 78 73 72 70 66 63 59 56 53 51 52 54 54 57 56 58 70 71 64 58
28 29 29 26 24 48 74 100 100 100 100 86 63 56 50 50 50 58 73 80 82 87 85 80 89 94 82 76 74 69 65 60 60 65 66 67 65 62 67 78 84 86 90 89 67 56 50 45 45
29 31 29 29 39 64 88 100 100 100 100 100 80 65 65 66 70 73 73 67 64 70 82 88 85 83 82 78 74 73 75 71 67 65 70 78 88 85 78 79 80 64 58 53 50 44 42 30 28

GFSSGP_250_rhum_003.txt.gz
RH
100 100 100 100 98 95 76 65 53 50 37 45 64 60 45 40 37 26 29 24 23 22 17 14 11 11 12 12 15 16 18 32 42 41 44 46 46 47 67 64 63 59 56 49 43 39 39 37 32
98 100 100 100 88 71 56 68 69 58 40 52 64 55 48 41 34 29 24 26 25 23 16 12 9 10 12 13 15 17 28 38 54 60 91 77 57 61 57 70 74 69 70 60 46 34 38 40 36
100 100 98 95 78 57 60 81 90 71 56 53 51 49 51 40 31 23 24 23 25 22 15 11 9 9 11 14 16 19 47 98 92 100 100 100 81 51 54 65 79 78 59 49 42 40 46 42 33
100 100 100 92 72 79 84 82 74 65 64 61 48 43 49 43 31 22 25 25 25 22 14 10 9 8 10 14 17 26 80 100 100 100 100 96 70 60 54 65 94 97 72 50 44 53 45 38 33
98 92 100 100 76 63 64 65 69 61 67 69 60 58 58 52 33 24 25 27 26 20 13 10 10 9 10 16 20 43 95 100 100 100 100 89 94 83 72 66 85 86 82 76 76 59 49 42 31
62 62 55 69 80 64 46 52 51 50 63 61 57 52 51 51 34 25 29 28 29 17 12 11 11 11 13 17 29 64 98 100 80 92 100 88 77 66 77 72 87 88 77 76 62 50 42 37 28
34 31 32 33 38 29 36 48 50 48 48 53 50 47 39 42 44 30 29 31 28 15 12 12 13 14 16 20 49 88 100 100 100 99 100 92 71 63 71 74 67 58 59 58 50 43 34 29 24
27 25 24 24 24 23 24 28 39 49 40 39 41 36 38 50 48 37 32 32 25 14 12 12 14 17 22 34 73 99 97 100 100 100 100 91 64 61 91 68 53 63 60 50 42 36 32 23 20
26 25 25 22 26 30 29 31 30 28 26 28 28 31 44 49 49 40 32 35 19 15 12 14 16 20 26 58 88 100 100 100 100 100 100 99 96 100 93 73 62 64 54 45 39 35 22 23 21
18 19 22 23 26 28 28 28 27 24 24 25 32 39 45 49 53 37 37 37 16 17 12 15 16 25 44 74 97 94 100 100 100 100 100 93 75 65 68 68 62 49 46 38 34 22 26 24 28
22 17 16 22 24 26 27 26 24 23 26 24 24 29 35 57 45 43 47 41 17 18 10 15 18 26 50 73 90 91 81 97 100 100 100 94 62 58 71 65 51 48 42 30 20 29 27 29 33
19 17 14 15 19 25 25 25 25 24 25 26 26 30 47 56 40 54 62 27 19 17 9 15 18 27 51 75 92 73 82 100 100 98 93 78 64 61 62 68 63 48 22 28 30 28 29 36 39
23 19 16 15 16 19 19 21 23 25 23 30 30 40 55 45 50 63 60 18 21 12 9 14 22 35 56 71 74 86 94 100 100 90 69 63 65 74 78 68 48 27 33 30 26 29 34 39 43
29 20 17 16 15 15 17 19 25 23 31 57 59 48 55 57 75 62 34 16 27 7 11 15 22 31 42 68 85 96 100 98 82 71 65 89 100 93 62 38 28 34 30 31 33 35 40 43 42
22 21 18 15 15 14 16 19 24 29 37 87 97 70 74 58 72 48 17 25 23 8 13 18 24 28 38 52 58 67 83 78 62 72 100 100 96 57 33 30 40 35 33 35 35 37 39 41 42
22 22 22 16 14 14 18 17 32 38 40 91 100 91 80 78 54 28 20 30 19 9 13 17 25 33 32 36 47 59 58 57 70 90 100 100 66 36 51 42 40 34 35 36 36 38 38 40 40
27 25 25 22 18 16 17 19 44 44 49 100 100 92 76 68 45 17 24 32 20 11 13 16 22 29 37 50 53 58 73 84 85 88 98 97 46 49 51 45 40 40 43 44 46 48 47 46 36
37 20 23 26 21 16 17 19 43 41 60 100 100 97 86 63 31 16 24 30 24 18 17 19 22 26 35 50 70 79 87 92 100 90 94 76 42 47 48 45 43 45 58 58 56 57 60 55 44
28 21 24 24 20 14 14 22 45 46 89 99 100 99 82 52 24 18 28 31 28 29 23 30 34 40 46 58 70 83 100 100 86 86 87 48 41 46 44 48 60 66 67 62 55 50 44 43 36
28 28 30 27 24 15 14 25 50 49 96 100 100 93 70 42 23 22 40 37 34 43 48 54 64 70 75 84 90 89 86 88 88 76 45 39 43 46 48 58 62 60 62 62 53 41 37 35 35
31 40 33 26 24 21 17 29 42 75 87 88 86 83 65 38 23 22 37 48 54 67 82 96 99 100 97 92 88 90 91 86 68 52 40 37 42 48 52 53 54 55 50 52 46 45 44 43 53
31 38 25 24 23 23 20 30 43 51 94 73 63 74 60 40 26 22 22 33 51 58 79 88 88 91 97 97 85 80 79 72 50 40 38 40 48 50 46 45 46 50 51 52 57 65 76 86 75
34 26 25 23 22 23 22 30 47 52 76 77 63 67 56 45 25 23 24 25 33 61 79 92 90 98 100 94 87 62 47 46 51 53 55 56 50 49 53 58 61 60 59 64 74 76 65 62 66
21 24 27 24 21 28 24 35 46 69 82 74 66 69 59 44 24 26 29 30 28 40 50 68 89 93 73 47 56 65 72 72 75 89 95 92 89 87 83 79 76 83 88 81 78 75 74 74 70
20 24 25 25 22 32 24 38 41 70 68 79 68 62 50 50 29 28 30 32 29 27 29 40 47 46 56 62 65 65 66 78 86 85 87 88 90 95 99 98 95 86 80 79 77 74 70 71 70
21 22 24 23 22 28 26 45 52 82 71 70 87 65 56 56 40 33 31 34 36 38 41 53 62 61 64 66 64 67 71 69 69 75 83 84 86 89 88 85 82 76 69 66 64 56 54 56 56
21 22 22 22 21 26 28 38 44 61 62 61 75 86 72 59 51 42 39 41 42 48 56 58 60 62 63 67 75 76 76 72 70 77 81 79 77 76 67 57 51 52 59 59 46 49 53 56 51
18 21 21 20 22 27 30 32 42 45 54 53 67 81 90 68 63 49 46 47 50 56 60 61 63 67 71 72 69 67 73 89 93 83 75 67 58 59 57 57 56 60 61 65 70 63 58 49 52
18 18 20 20 22 29 28 32 35 40 45 74 87 76 90 89 79 67 58 59 63 61 57 67 76 76 80 93 99 100 91 72 63 62 65 67 69 74 82 90 86 80 86 77 71 70 57 50 45
16 17 17 19 25 31 29 32 30 34 39 66 100 100 92 99 100 89 80 73 76 83 85 83 97 100 94 85 78 67 61 62 64 65 69 76 82 97 93 86 80 66 55 49 51 46 39 30 25

GFSSGP_250_rhum_006.txt.gz
RH
100 100 100 100 90 70 72 73 64 74 92 55 54 51 48 43 44 42 43 37 34 31 24 24 27 24 19 13 10 10 12 13 16 20 22 30 29 40 38 37 38 36 46 50 52 42 35 47 49
98 100 77 62 73 100 98 100 97 77 69 48 50 53 49 45 50 48 47 40 34 32 26 19 22 22 18 13 10 10 11 14 16 21 25 39 45 40 58 58 63 53 49 56 71 58 56 54 49
100 100 100 95 76 95 58 76 82 66 68 48 55 53 50 50 44 43 45 41 42 35 22 19 21 20 17 12 10 9 11 15 17 23 29 45 54 68 93 96 69 52 51 63 68 62 49 45 41
98 100 100 100 95 100 83 65 75 71 63 64 60 71 87 68 46 48 44 43 41 35 24 22 22 19 17 11 10 10 12 16 22 34 58 91 100 100 100 98 75 75 64 57 64 65 58 45 43
88 100 100 99 98 77 72 99 98 87 71 78 78 76 68 63 44 45 47 42 43 34 27 23 22 21 16 11 11 10 13 19 31 49 100 100 100 100 100 100 81 73 66 61 60 59 57 49 61
76 77 87 75 80 62 92 100 100 96 80 76 70 60 45 39 43 46 44 40 41 40 36 30 26 22 14 12 12 12 16 24 40 94 100 100 100 100 100 98 74 51 48 52 51 50 51 53 53
90 90 94 90 80 59 88 93 92 99 98 87 59 37 34 41 43 41 45 42 39 46 42 36 28 22 13 12 13 15 19 42 58 99 100 98 60 89 89 75 60 51 75 72 59 52 50 51 46
89 88 84 73 77 83 81 72 64 48 38 38 29 27 30 39 44 36 37 41 39 48 47 37 30 19 14 12 14 18 24 57 100 95 100 100 100 100 100 72 94 87 80 58 58 59 49 43 39
50 63 72 75 64 55 50 40 30 28 28 26 25 22 30 36 35 31 33 36 47 43 43 34 30 17 14 12 16 21 33 79 99 100 88 100 92 100 100 83 89 70 51 66 60 47 44 36 30
40 39 40 48 42 34 31 30 28 24 21 25 26 27 27 23 21 23 30 37 44 48 41 34 31 17 14 13 18 28 48 77 92 99 100 100 95 100 98 100 88 52 65 67 54 53 45 29 23
40 39 34 31 30 29 28 28 29 21 21 27 28 25 21 21 21 24 29 41 46 50 41 39 24 17 12 14 22 32 68 94 100 100 100 100 100 100 96 85 65 58 59 61 60 56 40 22 24
37 35 29 22 22 25 26 28 24 26 26 25 25 25 25 24 24 35 43 38 53 47 49 37 20 16 11 15 21 36 69 89 85 86 100 100 100 98 76 71 61 63 75 64 55 42 23 25 25
33 28 23 19 20 18 24 26 26 26 23 25 26 24 23 27 30 56 48 57 50 50 46 29 21 13 11 16 24 41 62 79 75 79 82 100 95 87 68 77 82 88 75 53 31 23 28 28 30
28 22 22 23 18 14 18 19 24 22 22 29 33 26 24 29 41 41 66 56 50 55 39 20 22 10 11 16 25 39 58 71 84 99 100 100 91 68 89 92 91 74 49 31 29 35 32 33 34
24 20 26 20 16 17 16 16 16 18 22 27 35 27 28 35 60 64 65 52 60 54 26 22 22 9 13 19 23 33 61 74 81 89 100 91 71 72 96 94 72 64 40 35 34 36 33 34 35
30 19 29 15 23 17 18 15 16 17 20 23 28 31 37 70 99 100 95 79 63 34 18 27 20 10 14 19 24 35 42 61 65 61 71 82 67 73 85 82 74 67 41 46 40 36 35 38 41
26 27 38 19 21 22 17 14 15 17 19 23 28 33 60 100 100 100 86 69 43 23 28 29 21 11 16 17 25 33 39 50 51 58 62 62 67 78 64 72 78 64 40 45 39 37 38 49 50
41 56 36 25 20 24 20 18 19 17 22 28 32 45 99 100 100 97 77 51 29 19 29 30 25 16 19 16 20 26 38 52 59 60 71 78 76 76 76 85 84 44 40 45 41 38 50 59 55
40 44 32 41 24 25 25 24 21 18 22 32 44 100 100 100 100 84 66 41 22 19 26 31 29 24 27 25 24 32 40 51 65 69 81 99 92 86 85 70 50 36 39 45 45 45 56 59 55
31 33 49 43 28 21 22 22 22 16 20 30 43 92 100 100 99 79 54 33 18 18 23 32 34 37 39 43 46 52 66 78 85 88 90 88 74 74 67 59 50 40 41 44 49 50 52 53 54
32 40 41 41 35 19 24 23 23 17 17 26 37 100 100 100 96 71 54 29 19 19 24 35 42 52 65 72 71 73 76 85 89 79 75 80 79 74 61 49 45 47 56 59 56 51 48 47 53
36 42 41 41 37 20 31 26 26 21 18 26 32 78 100 100 89 71 53 35 22 22 22 25 35 52 58 67 76 90 99 94 83 73 55 44 40 42 46 54 61 62 60 61 69 71 61 56 53
39 36 37 37 37 26 30 30 27 23 18 26 35 40 100 100 92 67 52 35 23 22 23 25 30 44 57 60 67 84 89 82 57 49 52 51 50 51 55 58 59 65 68 65 62 64 72 81 86
32 31 31 36 35 32 31 35 25 24 20 23 29 30 60 100 98 81 55 38 26 21 27 31 28 32 50 64 78 88 87 55 59 60 63 68 74 86 95 94 85 80 81 87 92 98 97 98 100
27 26 30 36 37 37 29 33 30 25 21 29 29 28 52 100 100 83 56 48 35 23 26 32 35 33 34 39 50 50 60 69 63 70 82 86 86 78 70 67 70 74 74 81 87 88 86 81 72
26 28 32 36 37 32 23 31 34 26 22 25 34 24 38 100 100 90 59 51 40 32 32 37 38 38 43 50 58 62 59 63 66 63 65 66 63 65 71 81 92 98 87 72 63 60 58 59 56
25 25 28 32 32 30 27 30 34 27 23 22 28 29 39 75 100 96 75 62 52 45 43 42 44 47 52 56 55 56 59 63 75 77 78 84 84 91 92 74 66 63 66 64 57 55 69 65 73
25 25 25 31 30 30 29 28 29 25 21 22 27 32 43 46 96 97 79 78 69 58 54 54 58 67 72 73 77 82 87 94 96 100 96 82 72 66 58 57 62 57 57 60 85 80 63 50 45
25 25 25 29 32 30 29 27 25 24 22 23 25 33 40 48 64 56 80 91 91 85 84 84 87 89 92 98 99 100 100 100 100 79 58 55 64 62 66 70 82 87 69 50 43 43 40 40 35
26 24 22 29 29 25 26 27 24 22 19 26 29 31 34 34 38 41 78 100 100 100 100 100 100 100 100 100 100 100 98 83 63 56 58 59 60 72 79 61 48 41 40 38 39 41 44 37 34

GFSSGP_250_rhum_009.txt.gz
RH
100 96 95 62 98 100 100 96 91 88 76 69 67 54 58 46 44 47 41 36 32 33 32 33 35 28 22 19 19 20 18 15 11 10 12 14 20 27 25 28 40 43 36 40 37 34 42 49 45
68 100 100 91 74 78 100 100 70 86 72 98 100 85 70 49 46 43 42 43 39 37 34 33 33 32 28 22 19 18 16 14 11 10 12 16 25 32 32 28 48 42 62 52 52 51 46 39 47
61 56 89 99 100 99 100 83 62 61 75 100 78 94 81 58 49 42 42 42 43 42 40 35 36 33 29 22 21 20 17 14 11 10 12 19 30 40 33 43 45 65 100 95 71 59 62 58 51
79 41 45 75 84 96 90 83 83 80 73 75 72 75 69 59 44 45 41 38 37 39 40 36 36 35 27 22 24 25 19 13 11 10 14 22 42 43 50 85 100 100 100 92 78 65 54 56 56
96 100 91 96 93 61 33 77 93 86 71 95 85 66 83 63 50 47 40 41 35 33 39 43 40 35 32 29 30 26 18 13 11 12 16 25 57 59 92 100 100 100 100 85 73 48 46 54 50
99 100 88 98 99 91 88 100 100 100 97 88 81 91 91 44 46 62 52 38 31 29 31 37 36 36 34 29 29 27 18 13 12 14 19 33 46 100 100 100 100 100 100 72 51 51 63 60 53
79 100 99 96 79 60 65 77 100 92 76 99 95 85 71 76 84 63 45 27 24 25 28 33 30 31 33 29 27 28 16 13 13 17 22 47 76 100 100 100 71 57 70 70 71 66 64 51 56
76 80 95 100 72 61 56 64 54 64 78 86 62 75 85 76 51 38 31 26 24 21 28 32 28 27 32 27 31 26 15 14 16 20 27 86 95 100 100 98 100 100 100 84 60 66 44 51 52
89 83 80 86 88 59 62 66 70 56 90 74 58 72 66 47 33 28 25 22 23 23 23 23 24 26 31 33 33 21 14 16 19 24 50 94 98 100 100 100 100 100 100 70 83 79 49 55 55
83 94 93 81 91 96 100 82 80 73 74 71 74 62 35 30 28 22 22 25 23 20 21 22 25 29 39 36 32 17 13 16 22 34 81 99 84 100 99 100 100 97 93 95 70 59 52 56 55
59 77 80 86 84 87 94 85 80 74 66 57 38 32 28 27 25 24 21 21 20 19 24 28 30 40 41 40 24 16 12 19 26 45 97 88 86 100 100 100 100 100 86 72 65 65 67 65 54
51 53 61 63 52 54 52 52 53 49 43 33 30 30 30 30 26 21 19 18 19 22 38 39 39 45 42 34 20 14 14 21 33 50 87 100 100 100 100 100 100 89 84 69 88 84 72 58 34
49 44 45 53 46 40 39 38 37 34 28 27 30 30 27 25 23 20 19 21 22 30 63 60 54 46 47 24 20 12 17 25 39 79 96 100 99 100 100 100 89 91 71 77 77 72 66 45 31
53 40 38 37 40 36 27 26 30 25 28 30 30 27 24 23 21 21 21 25 27 46 73 60 51 51 37 22 19 11 15 26 52 78 93 96 90 92 84 85 90 77 67 84 73 65 68 46 39
48 34 31 40 38 31 23 22 20 23 24 25 27 24 21 22 25 27 28 33 48 79 80 64 58 43 22 29 16 11 16 28 48 70 93 98 100 100 100 98 86 67 68 84 67 56 70 54 42
47 25 36 36 34 26 32 17 25 18 18 20 21 20 19 19 23 32 55 86 92 88 76 57 44 32 28 27 16 13 17 28 41 55 71 76 76 80 69 66 66 67 65 72 62 67 72 44 39
32 29 32 29 26 38 31 16 31 18 16 15 16 18 20 24 27 51 99 100 97 71 62 50 33 25 26 27 18 16 17 26 35 45 53 64 63 57 58 60 59 68 83 72 72 72 54 41 36
28 33 28 24 35 36 25 17 34 20 16 15 15 18 28 34 34 92 100 100 88 74 49 40 33 21 27 28 22 22 18 22 31 36 42 56 59 62 65 68 76 85 80 72 62 58 44 37 34
34 31 25 20 43 48 28 19 27 23 19 18 16 22 27 35 66 96 100 100 71 62 42 32 20 24 28 31 32 27 30 24 26 33 40 47 56 65 82 92 80 71 79 77 60 54 40 38 31
27 32 21 25 54 49 34 19 22 25 20 16 16 21 29 35 83 99 99 86 63 59 33 26 19 23 28 32 39 48 49 49 49 55 65 80 90 88 86 84 78 69 51 42 41 40 46 46 40
28 36 26 32 59 43 41 22 24 23 19 18 16 18 26 28 71 100 100 96 72 59 45 36 21 19 24 31 42 50 61 71 75 80 84 90 84 75 65 45 43 50 55 56 53 50 44 46 49
30 40 24 29 47 34 40 34 23 23 22 19 18 17 19 27 52 89 100 96 87 63 45 37 26 23 23 32 49 60 62 67 73 81 74 71 71 57 47 58 60 60 57 51 48 48 49 49 51
35 33 22 26 42 33 44 43 32 27 29 24 21 19 18 23 30 75 100 98 90 67 46 34 29 24 24 26 29 37 43 49 55 61 64 64 50 54 58 53 50 47 45 45 48 56 67 79 84
29 25 27 30 35 38 39 46 32 29 34 27 22 22 18 18 25 32 85 100 84 87 53 37 33 29 28 28 26 28 30 34 38 43 46 48 58 59 59 60 60 64 78 90 96 93 83 70 63
28 27 28 31 36 46 42 53 30 36 36 29 25 22 21 20 22 27 40 77 88 100 69 47 39 37 34 31 37 40 43 47 53 59 66 67 68 71 74 80 86 83 80 81 78 71 63 69 77
30 30 32 37 43 49 38 51 38 32 31 29 26 24 21 25 26 24 20 43 73 100 100 69 51 46 44 47 51 56 59 64 70 77 83 90 89 88 96 98 98 99 98 90 81 72 71 67 65
27 28 35 39 39 41 40 44 48 34 31 26 26 26 26 26 23 23 23 24 28 59 92 100 81 60 56 59 67 78 86 90 93 94 94 95 100 100 100 99 100 100 83 63 64 61 58 53 43
23 27 26 32 35 35 39 39 40 39 29 25 26 29 29 26 21 21 21 24 29 32 68 75 94 96 90 85 88 94 96 97 97 93 93 97 100 100 99 93 74 63 57 55 52 52 42 38 39
21 24 26 30 31 33 33 39 34 33 28 27 27 29 27 26 23 20 23 25 28 31 39 75 90 86 88 97 99 100 97 96 90 80 80 89 89 73 62 61 56 58 56 49 40 38 34 38 43
21 21 25 26 26 26 28 30 29 33 32 29 28 26 26 23 23 20 28 29 29 33 40 56 68 87 91 100 100 100 99 84 74 77 71 68 59 60 60 62 62 53 42 38 31 39 45 45 43

GFSSGP_250_rhum_012.txt.gz
RH
89 100 100 86 89 52 58 80 100 100 100 100 100 98 72 56 53 50 46 36 37 42 36 33 30 26 27 29 28 28 24 25 20 21 20 18 13 11 11 12 17 22 27 60 41 48 40 41 38
77 87 100 100 88 100 84 62 99 100 100 100 100 99 83 70 96 72 48 36 35 36 37 38 37 38 36 33 31 30 24 23 20 24 23 17 12 11 12 18 28 36 53 46 52 50 63 63 62
98 77 70 87 100 86 69 61 69 100 100 100 100 96 74 70 82 53 41 37 36 38 38 33 30 30 34 28 30 29 27 26 24 26 24 17 12 11 14 24 47 55 44 59 55 98 100 100 76
67 82 64 86 66 86 100 100 68 90 79 100 100 80 70 65 65 57 44 43 33 33 39 36 30 24 25 29 30 31 30 29 26 28 26 15 12 12 17 32 70 40 50 100 100 90 98 90 74
48 81 85 64 52 59 54 98 97 100 100 100 98 92 80 60 55 51 44 39 31 35 40 38 30 24 21 20 23 26 24 25 26 23 24 14 12 14 19 52 51 52 100 100 100 100 100 86 55
70 56 82 94 78 65 51 46 55 76 97 91 53 74 71 86 57 47 55 37 39 47 45 38 31 25 20 20 20 20 19 20 22 27 20 12 13 16 27 55 47 89 100 100 100 100 92 60 64
100 91 74 79 91 91 58 46 44 57 84 75 53 94 100 98 64 52 45 41 60 67 60 45 33 23 18 21 19 20 18 20 25 26 16 13 16 19 27 42 100 100 100 100 100 53 56 76 61
74 100 100 98 85 84 86 73 42 95 91 84 71 99 83 52 37 44 50 45 58 60 50 36 27 24 19 21 19 18 19 22 29 22 14 14 18 23 32 50 100 100 100 99 57 100 100 96 62
31 50 98 100 100 90 98 86 88 99 90 81 58 56 50 44 33 62 46 44 58 48 35 28 25 22 20 20 18 19 25 31 29 17 12 15 19 24 42 81 100 100 100 99 99 100 94 79 79
29 41 56 98 100 98 98 100 93 72 66 62 54 56 50 44 35 60 61 59 50 35 27 24 20 20 20 19 22 29 36 36 24 15 12 17 22 41 67 97 100 100 100 100 100 100 100 81 52
29 38 37 60 79 84 78 85 100 92 79 69 51 39 52 63 60 49 56 45 32 23 22 20 19 19 19 26 33 45 45 33 18 13 13 21 34 76 85 93 100 100 100 100 100 100 88 63 53
38 43 30 39 72 97 100 90 77 73 80 92 81 83 78 71 64 55 41 26 22 21 21 20 19 19 25 46 58 55 45 24 19 12 16 31 49 90 100 94 99 100 100 100 100 88 75 64 62
42 44 43 62 96 100 100 98 90 82 69 63 78 77 61 45 38 28 24 22 21 21 20 21 23 32 55 69 64 53 30 23 16 13 20 40 56 99 100 98 100 100 100 94 95 81 76 68 73
49 48 42 50 76 94 86 87 83 70 57 57 49 43 36 32 27 24 24 22 21 21 22 27 34 60 75 68 54 35 28 23 12 14 24 52 82 100 100 96 100 100 98 96 87 83 89 74 71
42 46 46 50 60 64 60 51 53 54 42 38 35 34 31 27 26 25 21 18 22 25 30 39 63 60 53 50 38 34 34 19 14 17 26 52 96 90 88 99 97 100 89 82 92 91 73 68 66
36 40 48 51 54 53 53 48 46 35 29 28 30 29 28 25 24 22 18 18 23 35 85 88 77 64 60 40 35 33 29 19 16 18 28 47 73 89 100 93 91 96 88 82 76 64 60 56 79
34 38 51 48 45 48 51 43 36 26 25 24 23 23 20 21 20 18 19 28 36 98 88 88 70 65 46 38 32 29 29 21 21 21 26 38 53 63 72 73 72 65 61 54 54 58 71 86 78
36 39 50 46 45 56 52 42 36 29 26 22 19 17 16 15 16 20 32 36 93 100 99 83 65 48 37 25 22 30 31 27 25 24 21 26 34 43 46 44 38 42 55 63 76 88 76 70 64
39 55 49 39 44 54 50 40 44 34 29 20 17 16 16 16 19 27 34 68 98 100 94 70 49 30 28 22 19 23 34 37 33 32 28 26 30 33 41 45 51 66 97 91 73 62 58 42 36
41 50 40 25 45 48 51 34 46 33 26 19 19 18 16 15 20 24 42 91 100 94 77 57 47 40 32 29 22 21 27 39 48 53 55 56 60 70 86 94 96 93 82 75 64 42 44 47 42
35 36 26 25 42 49 54 29 34 27 24 26 23 20 17 18 17 21 28 59 85 100 93 71 65 53 37 27 28 29 30 39 41 57 74 81 84 86 86 83 74 73 65 56 44 55 53 60 66
36 37 20 27 38 50 50 32 34 28 22 26 22 22 20 19 19 18 25 31 71 98 90 81 74 54 40 32 30 30 31 28 36 42 50 61 65 66 68 65 67 68 57 59 68 66 62 58 52
36 33 18 24 37 53 46 40 35 36 28 24 21 23 22 20 18 16 17 23 34 61 74 91 88 71 50 36 34 32 30 29 29 30 34 37 39 40 46 52 58 62 70 70 64 57 55 59 65
32 26 19 24 39 50 40 48 26 43 37 27 23 24 24 22 20 18 16 17 25 35 71 87 98 98 86 62 44 37 38 37 36 37 39 43 47 53 60 64 65 67 64 66 75 81 82 81 77
27 23 20 22 34 48 39 52 23 50 43 36 27 28 28 27 23 22 20 18 18 22 36 72 89 98 91 96 89 74 57 49 49 52 54 55 60 64 67 70 76 83 92 92 87 83 83 79 79
23 23 23 23 37 48 42 64 27 39 40 40 39 33 29 30 26 22 21 21 20 18 22 28 34 42 56 81 96 98 94 83 69 63 63 66 68 76 83 91 99 100 90 85 78 76 80 72 66
22 22 25 26 39 50 46 64 35 36 45 41 40 36 30 30 26 24 23 22 23 21 19 23 27 28 29 32 38 51 86 99 100 99 98 100 99 100 100 100 89 76 69 69 69 59 56 56 53
24 24 26 27 38 47 34 46 40 35 44 46 42 38 36 31 28 26 24 23 22 23 25 27 28 25 25 26 29 33 67 69 87 98 100 100 100 100 97 83 77 73 68 58 51 53 52 50 52
25 24 27 30 34 43 41 38 43 38 36 35 37 36 35 33 31 29 26 24 24 24 25 25 27 28 28 31 34 34 33 43 66 82 95 98 94 86 74 72 71 63 55 56 52 50 54 51 47
23 22 23 28 32 37 47 42 38 40 36 32 31 32 31 34 34 35 32 28 27 26 24 24 24 26 29 33 32 33 32 32 51 77 83 89 90 75 77 66 59 61 60 54 52 52 48 40 42

GFSSGP_250_rhum_015.txt.gz
RH
61 98 100 100 100 94 84 56 72 76 90 100 100 100 100 91 91 81 76 54 51 43 37 33 34 37 35 34 32 34 36 32 30 25 22 21 21 21 23 22 16 12 11 15 21 30 47 68 46
63 71 88 96 100 100 100 85 51 91 100 99 100 100 100 100 100 98 73 96 94 53 42 36 34 36 37 35 29 27 28 31 29 26 24 24 26 24 24 23 17 12 13 24 28 39 100 82 51
92 65 71 83 100 100 100 100 89 58 60 87 100 100 95 100 100 92 61 52 56 45 34 35 35 30 29 28 25 24 22 21 24 24 25 24 23 22 22 22 15 12 15 32 37 66 88 56 46
89 66 81 80 87 79 87 100 95 64 56 82 92 100 100 100 100 80 63 40 35 31 29 30 35 33 28 23 26 27 26 20 18 20 23 21 19 20 20 20 12 12 21 37 81 58 39 74 88
100 100 83 75 83 70 64 92 100 100 82 59 52 59 79 100 100 100 66 50 40 36 36 37 34 29 32 28 27 31 28 22 17 19 19 18 18 22 22 16 12 13 21 42 78 46 100 100 100
48 100 100 96 100 99 78 66 72 95 100 100 95 100 100 100 100 93 62 44 82 42 36 38 36 32 27 32 37 37 28 22 19 17 19 19 20 23 20 13 13 16 26 48 40 86 100 100 100
22 74 100 100 89 100 92 56 52 58 68 69 100 94 99 98 100 73 44 100 100 62 39 32 29 28 24 29 35 32 26 22 18 19 20 20 26 24 15 12 15 18 29 39 76 87 100 100 87
23 33 98 100 100 74 100 83 52 43 54 49 49 55 59 52 58 62 49 50 78 42 27 31 26 26 31 39 40 26 22 19 20 21 23 31 31 18 12 13 17 20 28 94 100 100 100 99 84
23 21 42 95 100 100 100 97 68 50 63 51 46 42 39 39 47 70 63 43 29 29 26 33 42 36 42 40 29 21 17 21 21 28 39 39 24 14 12 15 19 24 28 78 100 100 100 100 100
25 24 24 29 81 100 100 89 100 91 94 87 71 62 51 47 55 60 52 38 35 28 27 42 39 47 44 28 19 18 19 22 27 45 49 30 18 12 12 17 21 27 42 88 100 100 100 99 100
28 31 34 27 23 94 100 100 95 97 100 96 88 82 71 63 59 52 46 34 31 33 42 52 49 35 26 19 19 19 21 33 55 59 40 22 18 11 14 20 24 44 70 100 100 100 100 100 100
29 39 41 28 22 42 96 100 100 100 95 93 96 80 85 74 62 44 54 45 56 51 53 42 28 21 18 20 21 24 42 56 64 46 29 23 15 12 19 30 37 75 73 100 100 100 100 100 100
25 43 47 37 25 28 38 64 100 100 100 100 100 100 98 90 72 62 73 77 63 43 32 23 20 20 20 21 27 49 57 60 48 33 33 20 12 13 20 31 55 100 100 96 88 100 100 100 100
24 47 41 38 26 28 34 48 64 95 97 100 95 99 77 64 57 73 57 46 37 29 22 20 18 20 23 28 48 63 60 49 38 31 30 16 14 15 34 46 98 100 100 100 100 100 100 100 100
23 29 39 31 30 32 44 47 74 64 97 100 100 92 93 79 59 51 42 36 27 22 19 19 20 22 31 53 78 61 55 44 35 28 26 17 16 18 36 57 82 99 100 100 100 87 90 79 76
20 24 33 34 32 35 44 61 89 68 100 100 95 88 74 60 49 39 27 23 23 22 20 19 25 36 89 84 74 54 41 36 30 28 27 18 19 19 24 51 83 96 84 79 90 100 98 100 89
21 21 35 32 37 41 52 70 78 79 79 73 55 50 44 36 28 22 21 21 21 20 19 29 59 83 90 71 66 49 33 29 30 30 29 22 24 22 22 25 44 55 59 75 71 59 59 58 54
21 23 32 36 39 41 63 69 63 73 51 47 38 32 29 25 23 21 19 18 16 20 31 54 97 89 81 70 49 35 27 34 41 36 34 27 27 26 22 23 27 39 47 44 46 45 48 60 73
25 23 31 41 43 44 62 67 56 53 47 40 34 28 24 21 20 19 16 15 22 32 45 100 97 93 88 58 30 27 29 27 34 36 39 40 37 35 32 29 28 32 36 43 57 70 86 98 90
24 23 29 42 43 43 54 63 54 52 47 40 33 27 21 19 17 16 15 17 23 37 84 100 100 79 70 57 55 46 33 28 29 32 40 46 53 54 56 59 60 65 73 84 96 100 97 90 74
22 24 34 45 40 41 59 64 56 54 48 41 32 23 20 21 17 15 15 18 21 28 75 92 99 100 84 79 71 56 40 32 32 31 32 36 47 63 68 73 78 80 82 79 71 70 66 70 69
24 24 34 45 38 47 54 59 52 53 50 42 29 23 24 23 19 19 18 18 18 22 34 63 89 92 97 82 84 70 51 38 37 35 34 32 31 33 39 47 54 56 51 50 51 52 58 63 71
26 31 38 44 33 46 54 54 58 49 54 37 32 26 26 23 20 21 20 20 17 18 19 29 34 50 64 75 78 84 74 71 68 64 56 44 42 42 41 42 42 42 46 54 60 67 65 60 62
23 34 38 40 30 52 56 55 49 45 48 31 34 28 25 24 24 24 23 21 19 18 17 18 20 23 32 53 65 67 73 65 69 80 82 81 83 74 68 66 65 66 65 64 66 66 65 64 69
38 37 40 26 38 56 48 51 39 41 54 48 42 30 25 24 25 27 27 24 21 22 22 20 18 17 18 22 24 23 23 23 24 28 28 32 46 56 66 78 93 100 99 95 88 91 94 84 74
29 34 32 22 39 51 47 45 33 45 57 59 49 43 40 26 28 29 28 27 26 24 26 25 24 22 21 20 18 16 21 23 22 21 24 28 30 32 36 45 63 61 60 74 81 82 83 72 69
29 31 24 25 52 45 42 41 35 44 54 55 52 47 39 37 32 33 32 28 27 28 28 29 27 24 24 22 21 20 19 19 20 23 26 30 31 33 34 36 39 40 50 61 77 81 80 80 73
42 33 26 35 54 41 34 37 32 37 54 55 51 42 39 34 33 39 39 37 33 32 30 31 30 28 26 24 21 20 20 20 20 21 24 25 32 34 34 35 41 46 77 92 89 96 82 63 67
27 26 24 38 41 35 32 37 38 29 47 51 48 44 41 38 37 36 35 34 34 35 34 32 32 31 28 24 22 20 21 21 22 21 23 30 35 37 40 44 60 92 100 93 84 65 67 71 58
30 31 26 39 38 38 34 33 40 32 37 40 43 42 39 36 36 37 37 31 28 27 30 30 29 29 29 29 24 22 22 22 22 25 28 37 39 43 51 75 98 100 96 74 80 79 66 53 44

GFSSGP_250_rhum_018.txt.gz
RH
100 100 70 78 97 99 100 100 80 81 57 81 84 85 82 99 100 96 100 100 86 90 69 58 44 43 36 31 32 32 36 33 29 25 23 22 22 23 24 24 22 22 22 21 20 19 13 13 18
87 86 90 65 65 81 99 100 98 84 81 85 78 79 58 70 98 100 100 100 100 100 92 91 60 40 36 37 32 29 28 26 24 25 22 25 19 19 20 21 22 22 19 19 19 18 13 15 24
38 96 74 80 50 75 78 96 100 100 100 90 83 90 77 81 100 100 100 100 100 96 76 46 38 33 29 28 29 30 30 27 27 26 28 28 24 18 18 18 21 20 18 19 20 16 14 23 30
30 100 79 93 82 66 67 86 100 100 100 98 96 91 86 74 80 90 100 100 100 100 84 56 43 31 25 22 22 22 24 25 24 22 21 26 24 23 18 18 19 18 19 22 18 13 18 28 35
20 83 100 100 86 86 74 88 100 92 100 100 100 90 90 45 53 55 73 95 100 100 80 60 50 40 26 23 22 24 23 24 23 22 28 26 27 21 17 20 20 20 20 20 14 13 18 32 62
19 19 74 100 98 98 84 75 96 90 86 100 100 100 73 46 42 47 40 87 100 100 88 58 84 84 30 26 20 24 28 23 19 21 27 29 21 18 18 21 21 25 23 15 12 14 18 44 53
18 19 21 61 100 98 99 82 80 80 92 78 92 100 98 99 83 68 100 100 100 100 83 58 50 29 27 26 22 29 27 22 27 31 36 25 17 17 19 24 32 29 18 12 12 14 18 28 66
20 17 18 19 40 100 100 99 81 92 83 83 71 70 92 100 92 100 100 100 87 77 65 48 35 28 22 21 21 23 23 33 42 36 27 19 17 19 25 38 34 20 13 12 13 16 24 79 100
19 19 22 22 22 62 100 100 100 91 91 84 77 60 60 80 84 77 88 79 64 53 43 39 34 29 25 26 20 30 40 41 32 25 19 16 19 26 45 38 22 15 12 15 17 20 40 100 87
16 20 24 28 20 25 60 100 100 100 97 94 94 72 48 50 51 51 44 42 44 38 31 30 32 30 28 27 32 37 45 33 22 18 16 18 27 41 43 26 19 14 13 18 20 25 39 86 100
15 17 28 32 24 18 24 90 100 100 100 98 100 72 57 46 42 39 49 51 53 48 37 35 35 33 39 50 51 42 28 21 18 18 20 31 45 46 30 22 18 12 13 19 21 28 40 84 100
12 16 22 31 30 19 25 45 96 100 100 100 100 86 70 69 71 80 76 62 62 51 36 50 38 52 63 52 36 25 20 18 18 20 40 52 51 34 26 20 14 12 15 22 27 31 61 100 100
16 18 19 28 29 20 22 26 48 81 100 100 96 92 96 92 100 99 89 74 62 62 71 68 49 50 46 31 22 17 17 20 23 35 49 54 41 28 25 19 13 13 17 29 31 38 44 82 100
20 16 19 22 27 21 21 28 28 29 70 99 100 100 100 97 81 94 78 97 83 77 75 47 46 42 30 20 17 17 21 25 42 62 59 45 39 32 28 20 14 14 23 38 51 81 100 98 90
25 19 18 19 24 25 20 26 32 29 22 68 100 100 100 100 100 100 99 91 73 67 56 45 40 27 21 18 18 24 33 55 89 66 55 40 38 39 33 21 17 17 29 38 74 100 100 100 99
25 21 19 20 20 28 24 37 47 31 20 36 52 90 100 100 100 100 100 86 68 63 54 35 21 20 18 19 26 52 79 82 76 62 44 36 36 34 32 24 20 20 19 36 45 73 96 99 100
24 19 22 21 19 25 27 48 46 31 22 37 40 71 93 100 100 100 100 83 65 51 25 20 18 17 18 28 72 91 91 80 75 42 30 26 30 31 32 30 25 26 20 22 44 61 58 48 49
26 28 23 25 20 24 29 48 37 33 29 55 54 96 97 100 99 83 67 48 33 21 18 17 16 22 27 40 92 84 90 81 35 27 28 26 30 29 30 35 36 35 32 26 20 24 38 43 35
24 23 18 26 21 22 30 52 34 37 31 73 94 100 94 83 66 56 37 25 20 19 18 19 20 22 65 79 91 95 92 64 52 47 34 28 28 30 34 36 41 48 53 51 47 47 49 52 55
18 20 20 23 24 22 34 50 38 41 39 84 87 81 66 53 42 31 24 20 19 18 18 16 20 33 100 96 73 82 85 74 72 63 45 34 33 34 35 35 34 41 48 57 66 75 81 82 82
17 17 25 22 27 24 34 46 42 44 58 78 74 70 51 43 32 25 21 18 18 17 16 18 20 32 70 92 96 100 93 74 75 78 71 58 49 50 49 49 44 40 38 36 38 41 43 53 53
16 16 23 23 25 22 35 48 48 31 60 57 65 60 48 41 29 22 22 20 21 18 18 17 19 23 31 38 47 55 61 64 77 77 80 76 67 67 72 72 72 74 74 69 65 65 65 66 69
22 16 21 24 25 27 33 47 45 33 67 67 60 51 45 40 27 24 24 23 22 22 20 17 17 18 19 20 20 23 26 31 34 30 25 26 23 24 26 27 28 29 29 37 40 40 40 46 39
17 15 20 24 24 25 30 50 44 38 71 62 56 52 46 37 26 30 25 25 24 23 21 20 20 20 21 21 21 20 19 18 18 17 17 19 19 20 20 20 20 21 23 24 24 23 24 26 27
16 26 28 23 22 22 37 47 32 47 65 60 57 53 49 34 32 31 27 31 29 26 25 25 24 22 22 25 26 25 24 22 21 19 18 17 18 18 16 17 17 16 17 17 19 22 24 24 28
17 19 21 28 23 27 30 34 33 53 71 64 58 52 51 36 33 30 30 33 33 28 26 26 27 27 27 29 31 28 26 24 23 22 20 18 17 16 17 19 19 18 17 16 20 23 24 27 40
46 38 34 28 51 48 41 42 48 55 65 66 54 50 45 38 34 35 36 32 34 33 32 32 34 34 32 33 31 27 25 25 25 25 24 23 21 19 18 19 19 19 18 20 24 24 34 45 84
41 47 51 33 53 34 44 40 50 56 60 58 51 51 49 51 54 46 42 39 39 35 36 36 34 30 29 31 30 26 25 25 25 25 25 26 25 22 21 20 21 20 25 30 31 46 73 94 100
78 50 31 42 45 43 47 40 53 57 55 53 48 51 54 56 50 42 40 35 37 39 41 38 32 30 30 29 28 27 26 26 26 25 25 26 25 24 22 22 23 26 30 43 63 86 93 80 78
84 42 26 46 43 45 44 52 56 49 52 48 47 49 55 48 41 36 36 40 42 35 34 31 32 32 30 28 28 28 27 27 26 26 27 26 26 23 23 24 27 39 56 64 81 92 84 76 67

GFSSGP_250_rhum_021.txt.gz
RH
39 58 67 100 91 85 82 47 76 92 100 98 84 68 60 57 74 74 92 100 100 100 100 96 95 80 69 58 43 35 32 27 24 24 26 25 25 25 23 27 29 20 19 19 20 22 23 22 21
19 38 82 100 100 100 70 60 39 100 100 100 85 82 48 45 70 75 99 100 100 100 100 100 100 98 93 65 42 32 30 28 29 28 26 25 25 25 22 21 23 22 22 20 17 19 23 21 20
15 19 33 100 100 100 89 78 76 100 100 100 93 89 63 49 59 57 81 100 100 100 100 100 100 93 81 67 47 36 29 24 22 22 22 22 24 23 22 22 20 23 24 22 16 17 18 19 20
16 16 18 31 51 87 100 100 79 100 100 100 100 96 83 66 80 52 54 84 100 100 100 100 100 98 100 79 53 46 32 23 22 22 23 26 26 23 21 19 23 22 21 19 16 17 18 20 22
14 14 16 18 25 75 100 97 92 77 95 88 93 100 100 97 81 74 64 92 100 100 100 100 100 100 100 74 67 80 35 24 23 19 22 27 28 24 20 26 26 25 20 16 17 18 21 24 23
13 15 16 17 17 55 100 100 100 90 72 82 94 84 100 100 98 75 87 98 91 70 76 88 100 100 99 78 70 45 27 23 21 18 18 25 24 21 27 25 22 21 17 17 19 25 30 25 16
14 14 15 17 19 19 53 100 100 100 83 66 75 88 100 96 100 100 92 85 82 65 72 100 100 100 99 87 53 34 25 22 20 18 18 18 22 27 28 21 20 16 17 25 27 34 26 16 14
12 11 14 16 21 20 34 100 100 100 95 97 77 72 96 100 78 86 100 99 100 100 93 100 100 100 88 62 42 36 28 25 22 20 18 19 35 33 22 19 16 18 23 38 36 26 17 13 14
13 12 15 16 22 24 18 66 100 100 100 100 89 64 70 99 92 58 60 99 100 89 98 100 100 94 78 50 32 26 25 24 22 20 23 35 30 24 18 16 18 31 37 42 29 18 14 13 16
16 14 15 16 15 22 19 19 47 99 100 100 96 81 66 83 96 90 81 68 97 95 86 90 72 59 47 38 35 30 28 27 34 48 40 31 24 18 17 18 32 54 44 33 21 16 12 16 19
19 19 15 15 16 15 20 15 24 58 96 100 100 91 62 94 100 88 69 83 86 76 74 60 51 41 45 41 39 35 34 39 37 42 30 22 17 16 19 32 64 56 36 26 19 14 13 18 21
20 19 18 17 14 14 16 18 19 28 60 97 100 99 75 86 84 70 81 79 67 60 57 53 46 46 55 50 40 40 55 40 41 31 20 16 16 20 28 62 62 42 32 26 17 12 13 19 23
22 20 19 19 16 14 14 19 21 26 28 72 96 100 92 89 100 91 100 78 76 57 49 44 72 56 65 60 56 71 49 39 29 18 17 20 24 33 72 74 52 36 32 28 18 13 15 21 30
24 23 20 21 19 15 14 20 23 30 25 26 69 99 100 99 99 97 90 75 87 96 85 87 78 67 57 66 68 58 44 25 18 18 29 32 48 74 72 54 40 31 31 28 20 16 17 23 36
30 26 25 26 22 20 14 16 24 35 37 26 25 93 100 100 100 100 98 97 93 85 85 90 91 69 67 74 64 49 22 18 17 27 46 59 80 81 59 35 27 26 31 28 22 20 19 25 37
34 30 29 35 27 23 14 19 28 30 41 27 23 54 67 99 100 100 100 100 89 91 100 92 90 92 79 56 50 23 16 18 26 46 68 86 81 58 28 25 27 27 30 32 26 25 26 22 29
42 36 32 35 33 20 14 20 27 25 37 32 24 33 37 44 88 99 100 100 100 100 100 100 98 95 73 44 31 16 22 27 56 87 92 90 47 36 33 25 26 28 29 30 33 37 36 31 23
73 56 34 38 35 22 18 18 29 24 34 31 28 30 42 40 32 59 89 100 100 100 100 92 82 64 36 19 18 22 24 51 81 91 94 80 73 65 47 31 31 32 33 33 34 37 38 47 54
56 44 40 36 35 22 20 18 34 24 30 26 34 28 44 42 33 46 66 89 100 93 74 56 36 20 18 19 21 21 85 99 97 89 100 97 83 79 70 51 39 37 38 40 43 40 35 32 39
60 47 53 40 32 26 25 20 40 22 27 28 37 30 40 50 33 81 100 96 80 55 39 24 20 18 18 21 22 35 77 92 77 98 92 88 72 76 76 70 63 54 53 56 55 52 53 52 47
68 49 77 48 29 29 23 20 35 23 25 35 36 35 38 50 57 100 90 72 48 30 23 20 19 20 22 21 22 26 41 51 58 56 52 51 57 52 47 41 36 28 26 34 34 34 38 43 44
58 74 58 45 34 25 24 22 33 28 28 30 41 33 37 63 79 89 60 56 30 24 21 21 22 21 21 21 20 22 25 24 22 22 22 23 21 19 18 17 18 17 16 16 17 18 19 18 19
30 30 36 42 34 24 20 20 33 30 23 32 48 33 64 90 86 58 51 37 26 24 22 25 24 23 20 20 20 21 21 22 22 21 19 19 20 20 19 18 18 18 17 17 16 15 15 15 15
22 16 19 34 27 15 22 20 34 28 25 44 47 35 68 82 71 51 46 32 26 26 26 26 24 24 24 22 22 23 22 23 24 24 24 24 24 24 23 21 20 20 20 19 18 16 15 15 16
10 12 15 22 17 16 22 23 38 24 26 43 37 45 78 67 66 50 42 35 28 30 28 28 27 27 28 25 25 27 27 29 28 26 24 24 24 23 22 22 21 19 18 18 17 16 14 15 16
6 7 10 14 18 26 22 24 31 27 35 30 39 48 73 64 58 50 44 38 33 32 30 33 32 28 28 27 28 30 31 28 26 24 24 23 23 23 23 21 18 17 16 15 15 14 15 16 16
5 8 16 33 34 21 26 27 36 31 42 37 52 65 71 64 56 51 46 39 38 32 30 34 33 33 34 33 32 32 30 27 26 26 25 24 24 24 22 19 17 15 14 15 15 15 16 18 19
6 11 14 30 39 31 29 35 32 49 60 52 63 67 66 61 57 54 51 45 40 32 31 36 36 40 36 34 36 29 26 28 29 27 24 23 25 25 22 20 17 16 15 17 16 17 21 26 28
13 25 33 40 64 29 25 26 28 38 51 56 55 56 66 63 59 54 51 44 36 40 47 45 44 39 36 35 32 30 32 32 30 25 25 26 27 27 25 21 17 18 19 19 20 23 28 33 45
58 99 100 100 72 37 28 32 45 50 56 57 46 58 68 66 61 53 49 44 47 58 55 50 47 43 42 36 34 38 36 32 28 26 24 27 30 28 24 19 19 23 22 24 28 32 37 48 57

GFSSGP_250_rhum_024.txt.gz
RH
13 22 27 66 100 100 100 82 61 63 59 100 94 96 69 62 76 81 89 82 69 73 71 81 100 100 97 90 90 80 68 51 41 32 26 24 25 26 23 22 22 22 21 20 21 21 20 22 23
14 15 16 31 75 100 100 100 98 76 84 98 88 93 94 81 81 80 91 94 83 75 88 90 99 100 100 100 98 94 63 46 40 32 31 26 23 22 22 20 18 19 22 23 22 22 22 23 23
13 15 15 15 26 78 93 99 100 100 100 97 74 71 88 100 90 79 78 88 94 90 99 100 98 100 100 100 100 92 82 82 60 44 36 28 24 20 18 17 20 24 27 24 21 19 21 23 22
14 16 15 15 18 47 95 87 81 92 100 93 74 74 76 100 100 73 70 77 82 88 99 100 95 95 100 100 100 100 100 89 71 61 49 28 24 18 17 17 21 29 29 25 24 26 21 21 20
13 13 15 18 18 16 38 99 98 85 100 100 90 71 71 84 100 100 70 84 100 100 100 97 98 100 100 100 100 100 100 94 86 59 40 28 22 20 17 16 16 18 21 24 23 22 20 18 16
13 13 14 15 17 17 15 73 100 100 100 100 100 93 92 76 86 100 100 77 87 92 95 88 95 100 100 100 100 100 100 89 81 59 38 27 23 23 20 19 18 16 21 22 23 19 16 17 21
12 13 13 15 16 15 17 16 52 100 100 100 99 96 95 88 88 82 86 100 98 97 99 90 94 100 100 100 100 100 100 84 80 55 37 31 26 21 19 18 21 20 20 23 18 16 18 25 32
12 13 14 16 16 15 15 19 16 58 64 100 100 98 96 97 89 98 90 66 88 100 100 100 80 72 94 94 100 99 93 92 82 56 34 24 22 22 20 26 25 28 24 18 16 18 28 47 51
21 18 18 15 15 16 12 14 16 16 20 75 100 94 94 92 84 94 96 96 84 80 98 100 100 100 100 100 81 87 100 86 61 48 38 29 27 24 25 29 28 23 17 16 18 35 49 52 44
24 24 24 22 16 14 11 12 16 18 16 36 88 100 96 100 97 90 68 76 92 81 78 86 71 96 100 95 99 99 78 58 42 37 32 28 28 34 35 31 19 16 17 21 32 53 64 46 32
26 28 26 24 22 17 13 13 15 21 19 19 44 96 100 100 100 100 80 60 78 99 87 63 65 77 84 83 83 73 61 52 42 39 42 37 42 36 30 19 16 19 24 34 61 72 44 36 29
26 29 32 29 23 22 18 13 15 20 31 17 20 61 100 100 100 100 85 70 64 87 95 82 65 66 80 81 72 71 59 54 50 48 44 46 47 36 20 18 22 29 46 70 73 52 37 29 26
28 28 28 32 26 24 21 16 14 18 29 20 17 22 76 100 100 100 99 85 66 86 86 90 84 70 67 68 59 50 52 56 47 46 44 54 41 21 18 28 30 53 72 60 47 38 34 29 27
32 31 26 25 25 25 23 21 13 17 23 22 20 19 28 67 100 100 100 99 74 71 77 73 78 78 74 68 54 62 65 67 50 68 63 42 27 18 26 46 68 69 57 38 29 28 27 30 28
36 29 26 22 23 23 22 20 18 20 20 20 21 21 23 25 80 100 100 96 97 93 84 81 83 84 96 91 71 77 76 68 84 83 55 31 26 22 40 66 72 53 31 26 25 27 29 30 31
37 30 27 30 31 26 21 26 22 23 17 19 20 20 22 24 40 94 100 100 100 100 99 90 90 87 98 88 78 83 62 91 98 73 42 21 23 49 65 74 69 58 44 29 27 26 29 31 31
45 37 43 45 40 31 23 31 28 24 19 17 24 20 22 30 26 37 100 100 100 100 100 97 92 96 96 89 83 98 100 100 75 41 20 23 43 68 84 83 83 77 65 45 36 33 34 35 36
55 36 40 45 52 32 27 30 34 27 20 17 21 19 23 33 32 31 77 100 100 100 100 100 100 100 100 100 100 100 91 58 34 20 27 60 82 80 95 92 82 71 78 73 59 48 45 48 50
50 41 49 58 58 50 43 33 32 34 22 20 20 19 23 33 34 31 49 71 81 100 100 100 100 100 100 100 89 73 35 20 21 19 37 68 83 81 95 90 83 67 64 56 51 48 43 34 36
59 50 59 66 68 57 53 40 32 42 29 24 22 21 22 30 34 30 34 43 51 56 64 90 97 98 89 63 37 21 19 20 19 23 39 61 62 60 55 55 50 45 38 28 22 19 18 16 15
74 74 75 71 70 57 53 38 30 44 34 23 26 24 23 35 36 32 35 32 41 56 70 84 81 69 43 24 19 19 20 22 26 30 30 27 24 21 21 21 19 18 17 17 16 17 19 19 17
69 90 83 74 75 58 42 42 27 44 36 22 27 24 27 46 40 31 34 33 55 79 90 70 51 30 21 21 21 24 25 25 26 24 22 21 21 20 20 20 21 22 20 18 18 19 19 19 17
85 89 79 75 72 62 43 30 40 44 39 29 33 27 29 52 38 27 41 50 81 92 70 47 30 24 22 24 23 23 22 22 24 25 24 23 21 21 23 23 23 21 19 19 19 16 15 14 13
63 64 52 51 54 37 59 29 41 37 41 33 30 24 31 47 41 31 47 62 92 78 55 38 28 24 26 26 26 25 25 27 27 26 27 26 25 23 22 22 21 19 19 18 16 16 15 14 13
48 59 50 42 37 21 46 25 42 59 36 32 27 26 35 42 46 32 53 80 86 57 44 35 29 27 27 28 27 28 29 31 31 31 31 28 25 24 23 22 20 20 19 19 19 18 16 14 14
21 21 18 19 14 20 46 21 49 60 29 27 27 29 29 37 45 25 66 89 69 48 44 36 32 30 30 34 33 32 35 35 35 33 30 28 26 26 24 23 22 20 19 19 18 17 16 16 14
12 10 32 14 16 22 24 28 95 37 26 27 27 34 41 45 36 30 81 76 63 50 45 38 38 32 34 42 39 36 35 37 36 33 31 28 28 26 27 24 20 20 19 19 19 18 16 15 16
7 6 5 8 11 15 23 29 53 22 28 28 30 48 44 44 32 49 82 68 63 54 48 43 41 38 37 35 36 38 36 36 33 31 30 30 28 30 26 23 20 19 20 22 20 17 17 18 19
5 7 11 11 10 14 22 43 32 30 34 35 39 59 46 40 30 54 74 66 58 55 51 49 48 45 38 38 42 37 39 36 34 32 32 32 32 31 27 21 21 22 25 23 18 18 19 24 25
12 10 17 24 19 29 37 43 30 36 34 32 41 47 39 38 37 72 76 66 58 56 54 54 55 49 43 46 43 45 41 36 36 35 34 35 37 31 24 22 24 28 25 20 19 21 26 31 36

GFSSGP_250_rhum_027.txt.gz
RH
31 30 25 23 24 23 27 26 34 69 100 91 59 46 52 72 60 64 90 91 65 54 59 54 63 79 75 72 98 100 89 75 81 72 62 44 36 29 28 25 23 21 20 19 17 16 15 18 19
24 22 21 22 20 18 22 27 46 99 100 100 86 56 50 66 79 67 75 90 95 73 56 64 62 55 57 61 98 100 100 99 98 83 50 52 53 40 40 34 29 24 19 17 16 15 15 19 21
16 14 12 11 15 16 17 30 59 100 100 100 100 82 60 56 75 75 77 80 96 100 85 68 61 53 51 74 92 100 100 100 100 94 80 82 76 63 52 38 30 23 19 16 15 14 15 16 20
13 13 12 11 14 15 21 86 90 100 100 100 100 99 77 79 58 90 97 95 86 97 100 94 78 67 63 82 92 92 100 100 100 95 100 96 90 72 57 42 30 23 22 21 19 18 16 17 17
11 11 12 13 16 14 15 16 20 90 100 100 100 100 100 100 96 71 81 99 100 99 100 100 95 84 69 84 100 100 100 100 100 100 100 100 94 74 62 44 38 32 27 21 18 17 17 18 18
13 13 12 16 15 12 13 15 16 29 100 100 100 100 100 100 100 100 73 76 81 100 100 96 98 97 86 83 100 100 100 100 100 98 94 98 97 85 71 60 42 34 22 18 18 19 23 25 22
14 12 14 16 16 12 15 15 18 17 25 78 100 100 100 100 100 100 92 68 77 89 100 100 98 94 84 75 81 96 100 100 100 98 100 100 98 94 75 64 41 28 20 21 27 27 21 17 16
16 13 12 14 17 17 14 14 16 16 16 42 100 100 100 100 100 100 100 99 72 78 100 100 100 100 88 86 80 76 81 94 100 100 99 100 100 88 61 34 30 22 22 25 27 22 17 16 17
18 18 26 25 20 17 12 11 12 14 15 15 23 89 100 100 100 100 100 100 84 77 88 89 88 95 100 100 100 100 93 92 94 98 75 76 85 65 51 48 33 27 27 26 28 20 16 18 21
23 23 30 28 23 22 13 14 14 14 15 15 16 19 97 100 100 100 100 100 100 77 77 77 83 81 83 78 86 93 80 76 91 87 71 81 69 59 51 45 30 36 29 31 26 18 20 25 33
23 27 26 27 26 24 16 16 15 15 15 17 15 15 16 57 100 100 100 100 100 86 84 83 91 92 85 80 68 74 77 72 66 69 81 77 68 56 47 37 37 32 33 32 24 20 35 52 65
23 27 30 32 27 25 22 19 20 17 17 16 13 14 16 17 71 93 98 100 100 100 100 100 94 86 83 83 79 74 67 70 70 76 74 67 57 48 49 42 53 51 39 34 23 42 64 61 52
21 23 25 33 29 26 26 22 21 21 21 18 14 12 14 17 18 20 33 86 100 100 100 93 86 82 72 82 88 82 67 64 64 60 70 59 47 55 49 50 66 51 46 22 33 56 57 43 31
34 24 23 25 31 29 26 23 17 24 27 22 16 12 13 16 20 24 30 56 100 100 100 99 95 95 91 70 72 84 86 82 72 71 66 66 60 60 56 70 77 61 28 37 54 56 43 33 26
50 36 33 31 37 30 27 26 26 30 25 26 20 14 12 15 20 23 32 39 69 95 100 93 84 92 95 87 74 72 74 66 69 75 74 68 66 65 79 79 58 23 35 62 71 62 54 50 37
46 48 43 43 38 35 26 28 29 27 22 22 24 19 13 13 18 22 28 31 49 93 100 92 89 91 94 86 76 62 60 69 74 89 73 81 70 75 82 58 23 34 52 70 75 69 66 63 62
43 45 46 44 37 31 26 28 28 23 22 21 22 23 16 13 17 21 24 22 28 51 98 90 92 87 93 88 88 77 79 87 87 88 89 91 91 90 59 25 33 58 60 79 78 72 64 62 59
43 40 40 38 36 32 30 28 33 26 21 24 22 24 21 14 17 20 24 27 28 33 60 100 94 82 88 84 86 96 100 100 100 100 100 100 86 56 26 21 36 58 73 63 61 64 54 43 31
45 45 45 44 44 35 42 35 33 32 23 26 26 24 25 19 18 18 22 29 31 31 35 100 100 100 100 100 100 100 100 100 100 100 100 79 44 23 20 24 37 39 30 38 34 28 22 20 22
55 52 52 49 44 36 41 39 34 38 36 29 33 28 28 23 21 22 22 26 30 30 32 77 100 100 100 100 100 100 100 100 100 89 57 38 19 21 28 29 25 23 23 21 22 22 21 20 21
50 47 47 46 41 40 46 46 37 40 49 41 40 35 30 27 25 28 30 32 30 31 32 54 72 95 100 100 100 100 100 88 66 41 22 20 23 28 26 25 23 21 20 21 24 24 22 21 20
54 47 43 50 46 43 45 47 44 41 47 56 54 44 34 34 29 31 35 42 37 31 31 36 49 67 86 96 83 68 51 38 25 20 22 27 29 24 23 24 25 24 24 24 24 23 22 21 20
41 51 50 53 48 49 51 34 54 44 45 56 54 50 42 39 34 38 33 33 37 35 34 28 35 66 100 74 52 33 26 22 25 26 28 26 25 26 27 27 28 27 25 23 22 22 22 21 20
44 51 56 57 56 31 62 29 60 80 74 71 53 44 35 39 36 39 35 31 40 41 38 29 43 92 79 50 35 29 26 26 25 25 24 28 29 30 31 29 28 26 23 22 22 22 21 20 18
40 43 43 40 34 18 51 43 46 100 97 97 73 46 30 36 37 42 37 35 37 40 32 32 58 84 62 44 36 30 30 28 28 29 32 33 34 32 32 31 30 28 23 23 22 23 23 20 20
39 39 32 30 27 24 49 32 31 99 100 100 84 50 34 34 41 42 35 33 37 40 34 39 67 76 52 44 36 31 30 28 29 32 33 35 34 35 39 33 30 26 26 26 27 25 25 22 20
29 26 33 20 20 23 26 32 37 57 88 100 70 51 36 36 41 44 42 29 44 43 39 48 68 68 51 44 37 35 34 34 34 36 37 37 37 40 35 32 31 30 30 29 28 29 24 21 21
10 11 10 8 9 10 18 20 29 59 89 90 66 55 33 39 43 48 36 30 52 51 46 60 70 62 50 46 41 40 40 38 36 36 38 38 39 42 36 33 33 31 30 29 30 26 22 23 25
8 7 7 6 7 7 12 15 39 79 81 78 60 54 31 42 45 59 37 34 53 63 56 73 72 60 51 48 46 45 46 46 43 38 41 47 45 40 36 35 32 30 30 31 29 23 25 26 20
7 6 7 7 6 7 9 21 41 56 63 60 74 48 31 41 42 49 34 33 47 67 68 73 67 63 56 52 52 55 55 54 51 48 47 50 47 44 40 36 33 33 34 30 26 24 26 21 19

GFSSGP_250_rhum_030.txt.gz
RH
42 36 24 29 36 42 40 41 41 48 63 88 98 90 92 80 53 48 78 64 55 42 42 41 47 56 52 50 61 59 55 70 83 100 100 81 66 85 52 39 34 31 30 31 32 30 24 20 17
43 37 29 31 37 41 40 36 34 38 40 60 84 90 94 63 39 58 57 92 72 62 51 41 40 41 54 58 58 60 52 47 61 88 98 90 82 81 57 51 69 62 49 38 33 26 24 22 25
38 36 34 36 36 40 37 34 32 32 46 75 93 90 78 70 52 67 65 80 99 82 63 54 41 46 46 54 58 59 60 52 73 86 90 100 77 89 88 94 87 66 59 47 40 37 36 32 30
26 28 26 24 24 26 24 25 23 23 24 43 87 74 66 92 88 93 86 71 94 99 90 71 65 62 56 58 60 62 56 50 72 94 97 74 52 44 95 100 95 76 72 56 46 48 42 36 21
19 18 17 15 16 17 17 16 15 17 20 23 42 58 81 100 100 100 100 94 69 84 98 100 80 77 86 72 69 65 61 55 61 80 86 73 68 65 92 96 96 82 68 73 61 56 33 24 18
15 15 14 14 15 14 14 14 14 17 18 18 19 94 100 100 100 100 100 100 98 84 96 99 100 96 91 98 89 75 64 67 66 78 100 99 100 100 94 72 70 79 84 87 70 43 36 24 18
16 14 13 16 17 14 13 12 13 13 15 16 26 66 100 100 100 100 100 100 100 100 99 81 96 100 100 99 98 88 76 68 62 57 81 98 100 100 100 100 95 100 78 73 53 42 33 21 19
21 18 24 25 21 17 13 12 10 11 11 13 19 33 73 100 100 100 100 100 100 100 100 98 98 90 94 100 100 100 94 81 70 57 59 60 87 100 100 100 95 71 67 59 47 34 30 24 26
20 18 27 26 22 17 12 12 12 11 11 11 13 16 18 19 97 100 100 100 100 100 99 100 100 99 80 86 92 99 100 100 99 98 96 94 98 92 91 99 75 55 61 53 48 34 29 33 38
23 22 27 27 25 22 15 12 11 11 13 13 13 12 16 16 28 89 100 100 100 100 100 100 97 100 99 82 72 80 96 86 87 78 83 88 91 81 68 60 63 60 62 54 36 34 32 47 42
25 25 27 30 26 24 18 15 13 15 14 14 14 13 13 16 18 28 79 100 100 100 100 100 100 99 100 100 98 78 83 91 82 78 76 73 68 64 69 63 74 63 60 39 40 37 42 51 39
32 27 27 34 28 25 22 19 20 21 22 16 14 13 14 14 16 19 23 59 98 100 100 100 100 98 99 92 100 100 100 100 95 82 79 75 70 70 67 68 62 60 44 45 42 51 51 48 26
37 35 29 36 34 26 22 19 18 24 28 23 16 14 13 13 15 16 18 19 26 55 97 100 100 100 98 91 90 100 100 98 94 84 80 79 78 69 71 76 65 62 56 44 52 76 63 30 38
40 46 38 35 45 34 24 21 16 30 29 26 20 15 13 12 13 14 16 18 20 25 39 74 100 100 100 97 97 100 100 98 98 90 82 87 89 86 91 78 62 60 55 58 89 65 34 29 55
46 38 45 39 48 45 27 21 21 23 22 24 23 19 16 12 13 14 13 16 19 23 21 32 68 57 53 69 90 99 99 89 92 92 87 79 73 86 78 67 56 53 65 98 83 48 22 46 63
66 43 46 42 40 46 34 33 24 21 20 23 25 22 20 20 15 15 14 16 18 18 20 19 19 22 57 73 74 77 89 93 79 80 91 91 78 84 80 72 68 65 96 93 56 23 25 43 48
85 56 50 44 42 38 39 37 34 25 24 25 26 27 23 22 20 20 20 17 20 19 20 22 24 25 27 68 87 78 73 62 59 77 97 99 88 91 90 83 81 97 95 62 31 18 26 31 34
94 70 51 49 48 44 40 38 47 39 28 28 25 25 23 24 26 22 25 23 21 21 22 24 26 25 26 52 86 74 64 67 84 91 94 99 100 99 88 78 86 96 72 28 20 22 21 21 22
60 71 48 53 53 48 44 38 41 44 31 29 28 25 23 22 24 23 25 28 27 23 23 23 28 26 24 29 52 62 70 70 67 92 100 100 92 87 93 96 99 73 27 20 25 22 23 24 24
64 61 48 49 50 40 40 35 41 44 38 34 31 29 25 22 23 25 26 27 30 31 25 23 29 30 26 25 59 79 100 100 100 100 100 100 100 100 96 94 62 24 22 24 25 23 23 22 23
67 63 62 48 55 41 37 35 37 47 43 39 35 32 33 30 25 27 29 29 30 32 32 27 29 31 29 26 43 100 100 100 100 100 100 100 100 99 77 53 22 27 28 24 25 26 26 25 27
65 62 59 53 44 44 40 32 40 40 45 49 45 37 39 36 31 30 30 32 33 31 32 31 34 35 33 31 47 100 100 100 100 100 100 96 81 41 29 26 29 27 25 28 29 28 30 29 26
59 85 76 70 46 40 41 21 41 42 47 65 62 52 48 62 51 34 33 34 32 33 32 30 38 39 34 29 51 68 91 99 97 84 63 38 31 26 30 30 25 27 30 32 30 32 32 28 29
53 57 54 41 39 28 37 26 31 65 72 92 75 61 56 63 57 42 36 35 31 34 38 34 34 40 36 34 37 50 84 84 69 45 35 26 26 26 27 26 30 31 35 34 34 35 34 32 30
28 27 26 24 25 23 28 27 29 63 100 89 86 74 62 60 52 56 44 40 38 36 42 39 36 39 36 34 35 55 85 73 49 38 32 30 28 28 29 31 36 40 37 35 34 36 33 31 30
31 36 36 35 31 26 24 23 34 54 83 93 74 81 72 72 66 64 53 43 43 42 41 35 37 39 36 37 40 72 93 64 47 40 34 32 30 30 30 32 36 38 37 33 32 34 34 32 31
37 31 34 20 17 17 18 25 37 39 61 85 91 84 84 76 66 65 56 51 43 45 46 42 36 40 37 40 50 81 85 59 47 41 37 36 38 37 36 38 38 35 33 34 36 37 38 34 32
24 23 22 18 13 10 11 16 24 40 58 84 97 96 73 83 77 66 56 52 46 43 45 50 41 39 39 45 55 80 78 58 50 45 43 43 45 45 45 45 44 42 39 40 36 40 40 37 33
10 7 7 6 7 5 5 6 14 27 51 76 97 88 84 84 79 75 54 52 50 40 45 51 44 39 41 49 60 78 73 59 51 48 47 47 50 52 54 54 53 51 48 43 44 43 41 38 34
15 9 8 7 6 5 4 7 7 13 27 59 95 89 74 83 92 81 70 48 46 38 47 53 41 42 46 54 66 76 73 59 54 52 52 54 59 59 59 59 57 54 47 45 45 45 40 37 30

GFSSGP_250_rhum_033.txt.gz
RH
34 38 24 39 34 48 42 29 21 24 25 35 35 33 44 52 79 84 93 83 68 54 49 46 38 35 35 33 42 45 47 48 51 58 64 73 75 96 100 100 100 80 52 44 56 64 60 48 37
46 57 55 42 41 49 55 39 32 25 30 35 32 38 42 51 68 77 86 93 90 76 57 56 53 42 39 35 35 40 45 51 57 56 41 37 37 70 90 94 90 79 64 54 82 76 58 45 34
61 65 55 58 59 50 41 41 35 30 31 36 38 37 48 46 39 67 77 92 100 98 74 57 60 62 53 45 36 36 41 42 48 53 50 45 41 68 85 80 58 75 74 89 93 71 51 40 32
71 68 68 59 50 45 36 31 31 29 32 39 41 35 41 51 33 52 72 81 100 100 91 71 63 62 74 63 51 38 36 38 43 46 52 48 44 59 85 82 65 52 44 48 59 63 52 41 45
75 66 58 46 38 32 30 24 30 28 32 36 42 37 35 36 50 46 70 72 90 98 92 100 87 68 66 81 74 58 52 45 41 46 51 48 43 45 74 77 75 64 63 66 59 53 50 62 80
64 59 40 25 24 26 24 22 25 26 25 28 33 34 32 31 38 68 92 100 93 99 96 100 100 92 81 76 91 82 69 62 60 59 54 55 47 40 44 85 100 100 92 100 94 88 100 91 46
46 36 26 19 18 17 16 17 19 19 20 20 21 22 23 24 25 31 48 91 100 98 80 100 100 100 100 91 95 97 96 86 85 84 78 80 69 54 42 43 66 92 95 99 83 98 88 45 42
26 24 20 20 18 15 13 14 15 14 14 15 16 16 17 17 19 22 24 47 91 100 100 100 100 100 100 100 100 100 100 100 100 100 100 100 89 80 69 70 82 94 90 90 80 78 64 50 44
23 22 23 22 19 17 13 13 13 14 12 11 12 14 14 16 17 18 17 30 100 81 98 100 100 100 100 100 100 100 100 97 96 95 96 99 88 96 98 91 91 88 87 81 70 64 53 57 51
26 25 24 24 22 20 15 15 16 16 15 13 12 12 12 12 14 17 23 44 92 100 97 80 97 100 100 100 100 100 100 100 98 97 87 85 81 81 80 79 79 79 74 70 70 60 59 53 55
32 33 30 31 28 23 18 16 14 18 20 17 14 13 13 12 12 14 16 24 32 77 100 100 91 96 100 98 100 100 100 98 95 97 100 79 69 66 75 75 72 78 82 70 71 69 60 55 53
44 47 40 34 32 29 22 19 16 19 23 18 15 12 12 12 12 11 12 14 16 18 22 45 100 93 89 88 86 91 98 96 97 96 96 88 91 78 76 87 88 79 83 78 73 74 65 60 55
50 53 46 42 37 32 25 21 18 20 25 19 16 14 13 11 12 12 12 12 14 17 18 19 45 95 100 100 87 89 95 96 90 88 88 82 81 93 94 98 99 91 84 75 76 71 68 54 62
70 63 61 48 44 39 29 25 21 27 22 21 18 17 15 15 14 12 13 13 12 14 16 17 20 30 69 93 100 100 86 78 82 83 88 89 96 98 100 100 99 95 89 83 76 66 62 63 90
81 86 89 77 52 40 39 34 30 25 22 24 22 18 19 22 21 24 20 16 15 16 16 16 16 18 21 32 51 69 90 81 75 87 87 95 97 100 100 99 100 100 94 87 76 68 69 91 95
95 96 94 88 63 44 42 41 38 32 30 30 23 20 19 22 25 26 26 24 20 18 16 16 16 17 19 21 22 28 40 64 77 74 65 50 65 82 99 92 87 94 100 89 80 75 89 94 98
98 98 100 91 88 67 53 37 42 34 34 37 34 22 21 22 21 25 25 27 27 23 22 16 16 17 17 19 23 25 22 25 30 32 28 34 48 68 75 69 86 100 92 78 84 100 100 99 78
81 87 100 100 100 100 84 45 43 39 35 34 38 38 33 35 31 23 22 24 30 29 24 20 17 18 18 18 20 25 24 22 35 56 44 62 62 68 66 90 97 96 84 81 100 100 100 94 46
88 80 80 96 100 98 71 44 35 45 41 44 38 40 41 40 35 27 24 23 27 29 27 21 21 18 17 19 20 22 25 29 39 24 26 43 71 87 95 89 93 90 100 100 100 100 88 51 26
88 84 95 82 100 95 91 58 48 62 45 51 46 38 41 44 39 34 26 24 26 28 30 24 24 21 22 22 21 21 24 31 30 22 35 71 84 100 100 100 100 100 100 100 100 80 50 27 28
98 90 86 82 75 63 62 57 67 59 48 53 54 48 44 48 42 39 31 25 24 26 28 29 25 25 25 24 23 22 21 32 30 34 67 87 99 100 100 100 100 100 100 97 67 46 28 28 26
97 100 79 71 64 54 48 36 65 58 57 52 56 56 56 55 49 44 34 27 28 26 26 30 30 28 27 28 25 24 22 32 34 32 98 100 100 100 100 100 100 92 70 35 31 30 27 27 27
68 63 62 56 42 38 43 33 39 64 91 73 65 57 58 61 55 46 37 32 28 24 25 30 35 33 31 30 29 27 24 33 31 41 99 100 100 100 97 88 73 44 31 30 30 28 29 33 32
54 54 52 50 45 30 46 37 42 78 100 95 76 66 56 58 54 52 48 36 32 28 28 32 37 35 32 32 33 28 30 31 34 48 63 89 90 78 61 40 34 30 29 26 27 29 33 36 38
76 66 52 45 42 30 38 26 39 64 92 100 73 60 57 54 58 59 58 46 35 33 33 36 41 37 33 34 36 29 29 31 35 49 74 82 81 58 44 37 32 32 30 32 34 35 35 38 42
68 58 52 28 24 17 15 11 22 49 44 97 94 62 56 56 50 62 57 51 41 40 42 41 47 42 37 36 40 32 28 33 39 43 64 86 77 58 44 41 38 35 36 38 42 41 41 43 47
54 36 25 23 24 17 19 22 22 40 28 54 61 74 59 66 59 61 68 55 42 50 46 51 53 49 42 45 43 34 32 40 40 43 73 91 83 62 50 45 44 44 45 48 48 52 57 58 57
41 32 24 17 11 10 8 11 19 43 24 38 38 80 73 64 87 82 80 61 52 51 48 54 54 50 44 44 51 39 34 43 43 49 76 92 81 63 54 49 48 50 50 52 59 62 61 60 58
46 37 32 14 5 4 5 7 10 17 25 31 32 52 85 59 66 83 78 77 62 62 51 51 61 53 47 49 48 44 38 43 47 49 79 93 80 66 59 54 52 53 55 61 63 63 63 62 59
66 70 44 39 20 8 4 5 3 9 11 17 21 39 56 76 58 82 84 86 81 79 65 46 52 60 52 52 52 50 43 47 49 54 82 92 82 70 61 58 57 59 62 64 64 64 64 66 59

GFSSGP_250_rhum_036.txt.gz
RH
24 26 26 21 18 18 17 18 22 32 32 29 24 26 32 26 28 35 57 79 81 65 61 56 60 54 46 38 45 46 42 37 41 43 42 39 39 78 76 59 58 85 100 90 59 57 52 50 68
21 24 28 31 29 48 46 46 32 21 29 24 31 24 20 26 27 28 36 48 71 70 65 58 58 64 60 50 42 48 50 48 46 46 51 52 50 43 36 35 35 55 79 69 48 44 57 63 69
25 25 25 32 36 47 37 46 42 38 38 28 23 26 25 19 16 17 28 33 68 87 88 76 64 56 65 63 54 48 47 50 52 53 52 56 56 52 44 41 41 44 73 77 64 60 46 41 34
38 31 29 39 45 49 51 32 29 40 36 30 25 27 29 23 20 20 18 22 50 64 100 93 76 70 60 66 65 53 50 49 48 52 52 52 51 53 61 56 50 50 54 81 80 77 64 52 47
48 36 33 45 42 57 54 54 50 45 35 38 39 32 28 26 25 23 26 22 31 52 71 100 98 94 86 83 64 63 71 66 52 51 50 46 45 44 44 45 43 46 44 64 83 95 90 74 98
62 62 60 100 80 57 60 64 53 44 36 38 34 30 27 23 24 24 25 34 33 34 62 57 79 100 100 100 95 75 77 85 83 72 61 59 53 52 49 53 52 54 60 51 52 64 95 100 100
73 79 89 95 92 72 65 56 53 46 43 38 35 30 25 23 27 31 34 40 41 45 68 70 72 100 100 100 100 97 92 93 92 95 93 86 77 67 60 60 67 71 78 72 73 81 82 96 90
93 79 86 88 78 65 57 54 43 38 37 26 22 23 23 24 27 29 34 39 39 39 57 92 94 91 100 100 100 100 100 100 100 100 100 100 100 100 87 92 100 95 93 96 100 93 87 84 70
91 80 78 75 65 56 43 43 38 27 23 19 16 16 19 20 20 20 22 24 28 30 31 42 75 99 97 100 100 100 100 100 100 100 100 100 100 100 100 100 100 98 92 89 84 83 73 71 67
77 72 68 58 50 43 40 32 27 18 16 16 15 14 15 16 16 15 17 18 19 20 21 23 26 37 61 100 100 100 100 100 100 100 100 100 100 100 99 93 91 89 83 82 79 87 79 74 70
76 70 59 50 42 35 31 28 19 17 21 20 16 15 13 13 12 12 12 13 15 15 15 16 18 22 23 26 72 94 100 83 93 100 100 100 100 100 98 98 97 88 80 82 85 83 75 85 91
78 76 61 48 40 33 28 23 20 21 22 18 18 17 18 19 15 12 12 11 12 13 14 14 14 15 24 84 55 59 63 77 88 93 99 97 95 92 92 85 93 95 84 88 90 98 87 94 97
65 79 72 57 51 50 37 28 23 23 25 22 21 19 18 19 21 19 15 13 13 12 12 12 13 15 24 50 100 100 98 75 74 78 91 91 91 89 88 90 97 92 86 81 85 98 98 97 98
66 71 76 78 61 51 46 39 33 32 22 20 24 22 22 21 21 20 20 18 15 13 13 13 13 13 15 18 28 50 66 92 98 80 73 83 81 83 86 91 89 89 95 100 91 88 100 100 100
71 68 66 76 76 64 71 59 47 36 26 28 25 26 25 23 24 25 23 22 20 18 16 15 14 14 12 14 18 20 21 24 56 100 100 88 91 92 90 85 85 94 92 81 92 95 97 97 100
73 66 69 67 84 70 78 98 76 56 44 35 30 31 28 32 30 26 23 23 24 25 22 20 16 13 13 13 14 17 21 22 23 27 51 66 70 67 68 77 74 66 66 58 56 72 88 92 99
89 81 64 58 68 87 76 85 98 61 54 46 38 36 33 35 37 32 26 23 23 28 29 27 23 17 12 13 13 15 20 20 19 19 20 20 21 23 26 30 39 36 34 38 66 91 78 90 100
92 90 88 67 59 80 83 81 97 91 79 66 55 40 34 33 41 41 29 23 23 24 27 25 25 22 19 16 14 14 17 18 18 18 19 21 22 21 23 28 25 32 58 79 98 100 97 100 100
99 91 88 83 72 66 76 81 100 100 100 100 92 54 47 38 40 46 46 31 21 23 31 26 22 22 23 22 19 17 16 17 18 21 23 27 24 25 24 20 22 54 85 98 100 100 100 100 100
100 100 96 90 91 61 73 64 85 100 100 100 100 93 72 51 38 42 44 47 40 30 33 34 26 22 21 22 23 21 18 16 25 30 23 20 18 21 24 22 27 66 88 99 100 100 100 100 100
100 90 98 95 90 77 77 74 82 72 98 100 100 100 96 79 52 41 43 43 39 38 38 36 27 24 20 20 22 24 22 20 20 22 22 20 21 23 26 30 70 93 95 99 100 100 100 100 100
89 85 89 92 95 85 74 48 80 90 100 100 100 98 93 81 66 46 43 47 42 36 36 34 27 24 22 18 21 24 23 23 24 27 27 24 23 25 27 43 95 100 96 100 100 100 100 97 62
81 94 85 70 64 58 60 47 48 80 84 94 88 76 71 67 60 56 46 47 47 41 40 38 30 28 24 19 19 26 27 25 25 34 30 28 25 27 28 60 98 100 100 100 94 85 52 36 32
78 80 81 83 76 49 60 40 37 54 54 63 68 62 51 50 52 52 44 49 52 42 45 50 39 32 26 22 20 25 30 29 32 47 35 30 29 30 36 46 61 78 87 68 65 39 37 35 34
81 75 66 61 56 53 53 41 47 62 43 52 52 57 49 43 50 55 54 49 59 53 46 46 38 33 27 24 24 28 33 33 73 62 42 36 33 34 36 40 64 82 68 61 47 40 37 38 38
71 73 75 64 58 61 53 54 42 49 44 42 40 47 54 41 46 54 58 61 58 56 55 52 40 36 31 29 29 33 38 35 44 73 61 41 41 40 40 47 69 65 66 65 51 48 44 45 47
85 96 76 65 59 47 46 41 34 25 21 23 22 25 46 48 34 55 69 68 66 58 57 60 47 40 35 35 35 44 44 40 48 46 52 43 50 47 48 49 59 70 75 78 62 52 49 52 55
79 78 66 59 49 43 37 30 22 11 9 12 12 12 20 26 34 43 63 68 71 59 57 58 49 48 47 44 48 59 52 45 51 54 50 43 47 50 48 49 58 69 80 79 69 59 59 60 60
73 63 62 56 50 42 35 42 12 7 8 8 12 11 13 16 17 40 54 75 67 64 66 65 54 55 52 50 60 69 60 50 51 54 57 44 46 53 50 49 56 68 83 82 76 68 65 63 62
62 54 73 79 64 44 34 60 14 4 5 7 10 14 18 16 13 27 49 72 65 70 74 65 51 58 56 53 61 79 72 55 57 62 63 50 50 56 53 48 52 72 90 90 83 75 69 68 68

GFSSGP_250_rhum_039.txt.gz
RH
25 25 30 28 26 23 22 28 30 28 25 21 16 18 21 24 25 26 31 31 32 26 29 37 78 65 61 51 50 42 42 39 36 36 35 33 26 27 30 32 51 87 68 46 34 51 73 73 54
24 24 26 27 30 29 31 25 22 28 30 28 26 23 21 23 32 32 30 31 30 27 27 34 45 70 69 63 66 51 47 41 41 40 39 38 37 36 32 32 29 29 31 33 35 40 53 75 69
27 22 25 27 24 25 27 29 27 21 19 26 24 25 25 22 23 23 26 26 32 30 26 26 32 31 43 65 64 67 64 54 48 43 41 41 42 42 40 41 38 36 36 34 36 42 46 53 70
23 26 28 27 29 24 21 22 25 29 22 20 19 16 19 20 19 17 20 23 20 21 26 26 32 36 42 52 64 70 71 74 67 60 55 50 46 48 49 49 46 47 50 44 44 46 46 47 57
23 29 28 33 35 30 23 19 21 24 26 27 30 18 22 28 26 24 20 17 18 21 17 19 21 27 34 81 92 93 76 80 84 80 74 67 68 62 58 60 60 56 52 49 46 52 52 55 60
30 35 36 48 40 37 39 28 26 24 24 24 27 28 35 43 41 35 29 29 26 25 22 20 19 24 32 63 83 99 100 97 90 88 89 89 81 81 76 69 68 66 61 58 53 47 59 67 77
54 53 60 52 53 34 38 29 30 23 25 34 33 60 44 61 52 46 38 35 32 30 28 25 24 22 34 46 82 94 100 100 100 100 100 97 88 93 95 91 84 82 80 74 73 72 83 96 96
66 56 53 63 65 55 37 28 34 36 45 49 70 59 43 53 48 42 37 35 30 27 27 30 29 29 30 46 63 96 100 100 100 100 100 100 100 94 95 97 98 95 99 93 79 86 100 100 100
81 61 71 76 60 61 41 45 43 56 64 59 52 51 52 47 40 38 36 31 26 26 25 26 30 34 41 41 46 68 96 100 100 100 100 100 100 100 100 98 98 95 86 98 100 100 100 100 90
83 67 92 79 64 74 59 63 58 69 65 57 45 40 39 39 35 31 26 24 21 19 21 25 28 32 36 42 41 47 82 88 97 100 100 100 100 100 100 100 100 100 100 100 100 100 98 88 87
97 78 98 85 77 72 69 72 55 56 65 60 49 46 33 27 26 19 16 15 14 14 16 18 19 22 26 31 37 38 38 54 75 100 100 100 100 100 100 100 98 100 100 100 100 100 100 98 96
100 89 100 86 87 83 74 67 64 60 52 49 44 40 31 28 18 16 15 14 14 14 14 14 14 14 16 18 20 22 23 25 28 40 64 89 100 100 100 100 99 100 100 100 100 99 87 79 89
86 94 97 100 99 87 77 74 66 54 47 43 36 31 24 21 18 18 17 16 16 18 18 17 14 13 12 13 15 16 17 17 19 41 49 41 40 52 71 78 75 81 99 97 99 95 93 83 82
100 96 85 81 80 87 89 79 65 52 45 39 32 27 24 21 20 20 19 18 16 14 15 19 19 16 14 13 13 14 15 16 18 20 75 100 89 85 90 64 70 81 84 78 90 97 96 93 79
100 87 75 69 65 67 73 82 72 55 51 46 42 35 33 31 29 27 25 22 21 19 18 21 20 19 17 14 13 12 13 14 16 24 24 50 94 85 70 100 100 82 83 88 98 93 89 76 74
92 93 89 84 72 67 74 74 69 63 60 60 51 46 43 44 38 33 30 26 22 21 22 22 21 20 18 16 13 12 12 13 14 15 17 17 19 22 23 25 54 84 86 82 70 53 45 46 49
96 100 100 96 83 69 70 67 64 66 64 66 81 70 58 68 55 45 39 33 29 25 23 26 25 23 19 16 14 13 14 14 13 13 12 13 16 18 21 23 23 22 22 22 22 20 24 28 42
87 88 89 88 87 79 72 62 68 63 62 73 78 98 86 58 68 64 53 44 33 31 27 30 30 25 21 18 16 17 17 17 16 13 11 12 13 17 19 19 20 20 21 18 19 22 19 27 44
92 94 88 90 85 80 70 71 74 72 66 62 68 75 91 96 70 66 68 66 51 36 30 29 31 31 24 20 18 17 18 22 23 16 15 15 14 14 17 19 20 19 18 23 21 20 19 34 65
100 99 92 83 78 76 76 75 72 71 65 66 72 77 92 100 100 86 80 73 72 57 35 30 30 31 28 22 18 17 20 24 22 22 25 29 24 18 17 20 24 19 18 20 21 22 22 44 74
100 97 99 96 91 87 84 76 78 81 96 86 84 80 81 100 100 100 90 73 76 75 62 40 34 33 34 30 24 20 22 23 24 28 26 30 35 46 47 40 35 23 19 19 21 24 32 67 87
100 100 100 96 96 94 96 76 94 100 100 94 96 93 88 86 99 100 100 81 62 70 80 52 44 40 37 34 37 32 27 25 24 24 28 31 32 41 51 53 31 22 21 22 23 28 44 75 96
88 100 100 100 97 92 99 86 95 100 100 100 95 89 79 63 59 79 86 82 74 70 67 68 41 46 42 38 33 35 31 28 27 25 24 35 35 34 36 33 28 27 28 26 28 28 41 63 95
100 100 100 100 96 81 99 89 90 97 88 90 87 68 60 56 56 44 45 59 62 61 73 72 56 52 45 45 36 36 33 30 25 25 25 34 38 42 44 34 36 36 36 33 29 27 32 41 66
89 81 74 73 71 61 61 52 61 92 72 53 43 43 50 54 51 45 48 52 55 60 60 74 68 55 52 47 43 40 40 35 30 27 25 32 41 41 54 46 45 47 40 40 37 33 37 51 66
67 70 73 55 65 64 56 61 71 69 72 49 44 37 36 37 40 45 43 41 43 45 45 61 62 65 65 54 49 50 50 39 34 29 31 35 58 64 69 68 62 62 54 44 43 42 50 59 58
87 73 81 71 68 64 72 78 63 71 80 42 45 33 29 31 38 38 44 36 43 44 50 56 58 71 75 65 52 57 51 42 37 40 43 45 73 88 90 89 83 77 62 59 62 57 54 63 65
75 88 92 87 72 74 70 64 66 65 46 36 30 15 12 17 22 30 37 47 42 55 54 59 61 73 82 78 62 66 58 53 52 40 37 47 61 79 92 99 97 89 72 72 67 62 55 59 65
100 99 80 74 74 62 58 68 54 38 27 17 14 7 9 10 13 13 16 25 39 49 59 65 68 85 98 91 68 64 67 55 51 47 61 64 68 68 59 67 82 81 68 70 70 62 58 55 55
91 78 80 66 61 74 73 87 42 35 19 17 9 5 9 15 7 9 12 16 21 35 51 64 74 87 100 83 75 76 67 58 54 57 62 73 79 75 72 69 61 61 60 63 67 66 62 56 54

GFSSGP_250_rhum_042.txt.gz
RH
38 35 31 27 23 21 20 20 20 19 17 19 23 20 20 18 15 13 18 18 14 14 18 19 20 24 26 37 54 49 38 37 36 39 33 31 30 26 27 29 32 32 32 34 60 71 55 35 31
32 32 34 28 28 25 27 22 18 18 18 21 20 19 26 15 22 18 19 21 17 17 16 19 19 18 21 25 26 57 70 57 51 42 41 34 28 29 30 31 32 34 35 34 33 32 30 33 33
32 29 28 28 28 29 28 19 20 17 20 17 21 24 27 20 30 25 26 24 23 25 22 22 27 26 23 23 24 29 44 54 62 63 58 55 52 45 36 34 39 43 43 43 42 39 37 34 34
28 26 26 26 29 27 27 23 30 30 24 21 20 26 22 23 24 30 26 28 28 28 29 27 28 29 30 32 29 33 40 45 53 53 58 64 70 68 63 54 44 44 49 51 53 55 53 52 47
30 26 27 26 23 24 26 22 27 24 26 26 25 24 19 25 25 25 29 27 28 30 30 28 29 28 23 26 30 32 32 37 42 65 81 73 79 74 72 73 69 59 56 59 62 62 61 61 62
30 30 28 29 26 21 20 24 23 28 25 25 26 20 22 30 24 21 23 23 23 27 26 21 22 23 22 21 22 25 29 35 41 44 81 100 98 96 92 89 89 87 83 75 72 75 68 69 72
22 26 28 28 28 26 23 22 21 25 26 28 23 23 20 25 31 33 30 29 27 28 32 30 25 25 24 23 23 27 24 26 30 46 67 91 100 100 100 96 91 93 94 92 88 84 85 79 73
28 28 26 29 35 34 32 26 21 20 24 25 35 33 14 28 61 32 24 26 29 43 56 52 46 34 31 30 30 26 26 27 29 37 56 84 98 100 100 100 100 100 100 98 96 91 93 95 88
50 45 55 72 46 54 28 24 23 25 28 27 41 32 25 26 36 28 36 40 38 43 47 48 41 40 32 30 29 26 28 27 30 35 47 74 100 100 100 100 100 100 100 100 100 100 100 92 98
74 79 93 87 65 47 36 31 36 38 38 34 36 33 35 27 45 45 45 42 35 34 35 38 38 33 32 31 29 28 28 30 30 40 45 60 93 100 100 100 100 100 100 100 100 100 100 99 97
99 99 100 94 76 62 64 45 38 35 38 59 43 41 42 55 67 52 44 46 41 34 29 30 30 30 26 23 22 22 26 30 33 38 40 45 52 57 87 100 100 100 100 100 100 100 100 100 100
100 100 100 96 82 74 73 56 51 43 44 50 54 54 58 67 50 47 52 49 44 39 34 27 23 22 19 16 14 14 16 18 23 26 29 34 40 40 35 50 78 96 99 100 100 100 100 100 100
100 100 100 100 91 92 78 79 71 73 54 66 57 62 63 61 50 50 45 42 37 34 29 23 20 16 14 13 13 12 13 14 15 17 20 22 23 26 25 24 23 23 34 41 42 49 52 66 68
100 100 100 100 100 100 85 82 73 81 69 67 54 62 60 53 56 47 39 34 29 26 23 19 16 15 15 14 13 13 12 12 12 12 13 16 17 16 17 16 18 30 47 60 62 59 69 69 62
100 100 100 100 100 84 82 86 88 100 98 96 82 69 68 60 50 45 39 32 28 24 22 19 19 18 16 15 13 12 13 15 16 14 12 11 12 13 14 15 18 19 38 84 99 94 79 87 94
100 100 100 100 100 100 91 73 74 76 86 75 70 71 65 59 52 46 42 35 32 29 23 24 23 21 18 17 15 14 14 14 16 17 17 14 13 11 11 14 15 19 22 24 25 25 24 22 26
100 100 100 100 100 100 100 99 90 70 65 65 62 66 68 67 59 56 61 48 41 38 30 25 26 28 23 23 20 16 16 17 21 20 19 16 13 13 13 13 14 15 18 18 18 21 22 21 19
100 100 100 100 100 100 97 90 78 69 61 52 58 70 69 73 68 68 74 70 69 61 47 34 33 32 30 27 23 22 18 19 24 22 19 22 18 17 13 13 14 16 15 16 17 19 19 18 18
87 100 100 100 100 97 76 69 70 67 58 69 63 65 69 65 64 72 78 88 94 95 87 59 37 40 37 32 28 27 23 25 30 24 21 23 22 23 21 21 18 21 18 17 17 17 17 18 17
84 70 70 71 80 71 76 67 66 68 64 59 66 63 68 70 69 64 60 65 76 90 100 100 84 50 46 39 37 27 28 32 31 27 23 21 24 25 25 27 26 24 23 20 18 18 17 17 19
96 94 88 79 74 77 78 70 69 69 71 72 70 70 68 70 68 65 63 56 57 76 93 100 100 75 57 56 37 36 31 36 33 34 31 25 25 28 31 47 41 30 34 34 26 24 24 22 27
89 99 100 95 88 84 86 86 91 81 86 95 91 82 75 74 74 70 63 59 54 64 83 100 100 100 80 71 52 45 37 37 46 43 42 49 30 33 30 32 34 35 34 31 31 32 51 54 42
94 100 100 100 100 100 100 89 94 96 96 87 98 89 90 76 68 75 81 79 59 56 70 91 100 100 100 76 68 52 58 56 66 62 54 45 38 35 32 29 30 31 34 36 34 44 56 58 30
87 93 85 86 92 91 100 98 95 100 100 100 93 87 85 77 76 85 94 87 55 62 71 74 88 99 99 88 79 66 69 53 64 51 40 37 35 38 35 32 30 30 30 35 40 42 46 49 36
100 100 100 88 84 92 81 73 96 100 100 100 89 75 72 75 85 92 90 82 55 53 62 64 69 75 79 89 80 74 65 67 61 61 49 41 35 36 38 34 29 28 33 40 43 45 44 54 46
92 90 75 71 79 86 86 84 96 100 98 91 68 59 51 51 45 44 48 58 57 53 44 51 56 55 59 58 63 63 73 69 67 65 58 46 38 37 37 34 34 32 34 40 51 57 54 62 61
75 77 93 98 94 84 76 67 61 66 77 76 54 45 37 30 30 33 38 38 40 44 46 45 44 47 47 57 53 60 64 82 70 70 68 56 48 46 45 37 46 62 47 56 62 68 63 72 77
90 68 54 51 48 60 54 56 65 65 61 63 58 59 44 36 30 26 25 30 35 36 38 35 40 46 49 50 52 55 64 71 78 94 91 63 56 52 54 52 46 58 78 82 97 99 96 97 100
55 70 68 66 74 57 68 75 73 65 64 60 47 37 33 24 17 12 11 19 23 29 30 44 39 38 44 42 49 60 77 84 98 100 93 73 61 70 66 63 50 50 76 97 100 100 100 100 100
97 73 80 79 82 80 71 72 58 62 45 26 19 21 15 12 9 9 10 12 11 16 22 30 32 37 48 56 65 69 71 90 100 100 96 80 78 80 63 57 58 83 90 88 91 93 96 100 97

GFSSGP_250_rhum_045.txt.gz
RH
64 50 42 42 39 34 32 26 21 22 18 16 21 21 16 18 20 20 20 27 16 14 12 12 12 14 15 20 21 20 28 39 38 40 40 40 37 36 36 30 26 26 31 29 31 37 36 36 33
57 47 41 37 39 37 35 28 26 22 21 24 19 20 19 16 19 19 20 19 18 15 14 13 12 11 11 14 17 17 17 20 29 40 39 40 37 39 42 42 41 34 30 32 35 36 38 40 41
68 61 45 39 39 43 37 27 27 25 27 23 21 20 18 20 22 16 16 18 19 17 16 15 14 13 13 12 11 12 15 16 21 24 32 28 31 34 40 41 43 47 48 47 48 45 47 48 46
75 69 57 45 48 40 37 27 24 27 28 21 19 19 17 17 22 17 19 21 21 18 18 18 19 20 18 19 18 18 19 21 24 24 22 22 28 35 31 37 49 56 59 63 62 62 58 53 55
61 65 58 54 47 46 38 29 31 31 25 21 20 18 15 16 18 17 16 23 30 26 24 27 26 27 26 28 28 26 26 23 22 22 25 27 27 30 32 37 48 50 60 79 80 72 73 74 74
56 55 51 47 44 41 40 30 31 30 28 25 26 24 22 22 24 23 17 25 30 24 23 25 27 28 29 25 25 28 29 25 24 23 20 22 24 27 29 35 46 67 69 78 86 82 88 89 90
48 46 46 45 40 36 36 31 28 31 25 26 24 24 25 25 28 28 26 24 24 26 25 23 24 27 27 27 23 24 22 23 22 24 23 24 24 34 46 50 54 66 84 95 94 96 96 92 92
41 40 42 44 43 37 34 31 24 26 27 24 24 21 22 30 32 26 25 25 26 27 26 27 27 25 23 23 26 25 27 29 31 30 31 30 34 31 35 51 56 66 90 96 97 100 100 100 100
36 33 33 51 47 56 30 28 27 30 30 29 28 24 21 25 27 22 25 30 32 27 24 30 34 36 36 36 44 52 51 50 46 43 40 38 35 34 34 46 50 70 79 96 100 100 100 100 100
45 36 41 47 44 34 25 21 22 27 33 26 24 23 20 22 30 28 26 26 30 37 34 33 34 39 42 42 38 36 36 35 37 33 34 34 34 33 33 37 42 50 57 76 95 100 100 100 100
78 70 80 62 48 39 33 24 23 25 36 32 25 25 25 26 29 33 26 22 24 26 36 30 32 33 40 38 36 34 33 32 32 31 28 29 28 28 28 31 36 39 44 47 56 66 76 90 100
94 92 96 99 75 67 62 47 39 40 44 42 29 23 25 27 36 33 26 27 29 28 36 42 48 42 42 41 39 34 30 26 25 24 24 23 20 20 19 21 25 28 31 38 40 42 38 46 90
92 86 97 100 93 87 99 92 74 71 65 58 39 39 54 46 35 33 33 32 37 37 34 33 37 37 40 40 37 33 32 25 21 18 15 13 13 13 15 16 18 19 20 22 25 26 31 32 28
95 94 99 100 100 100 100 100 99 96 73 56 65 64 55 57 60 48 42 39 39 42 39 33 34 38 35 29 26 24 23 20 16 14 14 15 14 14 13 13 13 14 15 16 18 17 17 15 14
97 100 100 100 100 100 100 100 96 94 75 82 68 62 74 77 78 68 57 50 41 34 42 43 37 31 29 28 24 24 20 22 18 16 16 21 18 19 17 15 15 14 14 14 14 15 16 16 16
100 100 100 100 100 100 99 100 100 97 95 90 100 97 73 84 67 78 77 63 53 46 42 41 37 35 31 28 28 29 21 18 26 26 21 22 20 17 16 16 17 17 16 17 16 15 15 16 17
100 100 100 100 100 100 92 100 100 98 95 93 90 79 82 89 91 83 77 65 56 46 41 43 41 41 40 37 32 28 27 29 39 27 22 22 22 20 19 19 19 18 18 18 17 18 18 18 18
100 100 100 100 100 100 94 100 100 100 87 89 83 76 67 69 85 74 61 59 56 54 57 50 47 49 49 44 42 37 35 34 30 32 30 27 23 22 23 23 22 21 19 20 22 19 17 18 20
100 100 100 100 100 100 100 100 100 100 92 93 96 90 92 91 77 58 63 60 59 63 62 64 60 56 62 57 44 41 36 40 39 38 36 34 31 25 29 29 25 22 20 19 22 25 25 21 20
100 100 100 100 100 100 100 100 100 100 100 100 100 100 100 79 62 56 58 69 77 78 70 67 66 68 72 73 74 62 58 62 72 89 55 57 48 32 32 32 28 24 20 21 21 22 27 29 28
83 89 93 100 100 100 100 100 100 100 100 100 100 99 75 62 61 59 64 64 69 73 74 74 72 70 69 60 58 69 67 65 65 74 69 58 48 37 58 56 39 33 28 26 26 25 24 30 35
91 81 85 82 82 85 92 95 100 100 94 86 76 70 70 77 79 72 73 68 66 60 63 67 69 68 68 68 52 53 69 74 76 66 74 67 73 80 100 100 74 61 51 45 33 31 29 28 26
86 84 77 76 72 71 71 65 89 78 83 88 85 92 88 80 75 73 71 65 64 65 73 70 67 73 71 70 55 58 74 85 81 67 64 78 82 73 86 71 49 49 45 42 40 35 32 29 27
100 90 73 75 77 74 82 66 73 96 100 100 100 94 85 87 78 69 66 66 71 74 72 71 71 69 65 63 65 59 76 86 88 75 67 73 77 75 65 55 49 45 44 40 38 36 33 31 29
96 98 82 67 65 68 63 63 77 92 100 100 100 79 69 70 72 78 83 80 76 65 57 57 62 64 64 59 63 66 80 88 85 85 86 82 76 77 68 60 51 44 48 44 38 36 36 34 31
86 86 83 87 97 85 63 75 82 83 72 68 73 86 90 91 82 73 63 68 78 83 76 64 54 51 54 52 53 75 67 92 79 81 87 92 89 70 64 67 63 49 51 49 42 37 36 36 39
76 76 87 92 95 91 87 82 92 100 100 85 78 54 54 54 54 59 70 74 66 66 65 59 54 44 38 36 37 55 60 70 87 91 88 71 71 68 64 76 63 62 63 54 50 48 52 57 51
78 96 93 87 79 82 91 100 96 75 71 72 81 76 67 62 51 44 40 30 28 27 28 32 38 34 35 37 42 51 63 69 77 74 70 69 69 67 67 69 88 91 71 62 66 63 56 52 52
94 92 80 80 80 84 96 86 73 60 52 54 67 61 48 39 34 31 32 31 30 28 27 29 34 39 34 36 44 51 59 70 67 67 68 70 68 65 76 94 100 98 79 84 82 77 59 55 80
100 97 98 93 75 67 55 73 53 54 55 52 50 41 30 22 16 13 16 19 19 14 13 14 18 32 43 43 59 71 61 60 56 54 57 58 64 75 97 100 100 89 93 100 88 68 58 58 64

GFSSGP_250_rhum_048.txt.gz
RH
61 60 60 57 62 62 59 51 41 30 23 21 19 17 16 16 16 20 25 20 16 14 14 16 15 14 20 22 22 21 22 22 24 25 29 27 29 37 40 42 45 46 44 41 36 30 34 37 41
62 62 64 68 70 74 69 51 44 38 35 27 22 18 17 16 16 20 20 20 18 16 16 16 14 12 12 11 11 13 15 18 19 18 18 22 28 33 36 42 43 38 43 45 52 57 53 44 40
82 80 74 80 78 82 73 51 45 39 32 32 24 21 18 19 16 14 16 19 23 22 19 17 16 16 15 13 12 12 11 12 12 16 15 13 13 16 26 34 40 39 37 38 36 41 42 48 51
97 95 97 95 92 87 70 50 44 42 42 38 32 26 22 22 20 18 16 17 21 21 19 19 18 18 16 15 14 14 13 12 13 12 13 13 15 19 19 19 19 18 21 25 26 26 31 37 38
94 88 86 96 100 93 72 47 41 41 44 36 30 26 25 25 23 21 20 19 19 18 18 17 19 19 17 15 15 15 16 17 16 17 18 18 20 21 22 23 20 21 23 24 25 26 28 40 45
73 85 94 100 100 94 78 54 48 44 45 34 30 27 24 24 25 23 20 19 17 17 17 17 16 17 21 20 20 20 20 20 23 25 27 27 30 30 25 22 22 22 21 24 26 27 33 42 55
52 65 75 99 98 91 93 69 66 52 50 46 39 32 29 30 29 24 21 22 24 20 19 22 22 21 24 27 26 26 26 26 27 27 25 24 22 22 23 23 25 25 23 24 27 35 38 46 52
46 44 63 78 82 82 75 69 67 60 55 48 44 39 34 32 29 28 26 25 24 24 25 30 25 24 26 28 29 30 28 27 23 21 22 21 20 21 25 30 33 35 37 34 32 33 34 45 66
46 45 50 73 73 74 63 57 57 55 51 46 42 38 35 34 31 28 26 25 26 26 29 24 25 26 27 26 25 24 24 25 23 23 23 24 26 24 27 32 30 31 31 35 33 33 38 41 48
48 47 62 68 64 63 53 54 52 50 48 47 41 36 32 30 29 28 28 28 25 25 28 30 28 29 31 33 31 29 27 27 27 27 30 31 28 27 32 30 28 29 27 30 32 32 34 37 40
80 72 67 59 53 47 47 48 47 46 47 54 43 37 32 30 34 28 29 27 25 26 33 32 31 30 28 27 25 24 26 30 31 31 28 27 26 28 32 34 34 34 33 29 29 27 26 27 30
100 100 96 71 56 51 45 41 44 41 42 50 41 36 32 27 30 35 25 25 27 31 36 32 29 28 28 28 28 27 25 28 30 32 33 32 33 29 28 28 26 24 22 20 18 16 16 18 20
95 98 100 91 64 59 60 57 45 42 41 37 41 31 34 40 37 45 35 28 34 37 33 31 30 27 25 29 32 34 34 36 35 37 36 35 37 35 31 29 24 19 16 14 14 14 15 16 16
100 100 100 100 98 91 81 84 72 57 40 35 36 35 29 55 43 36 43 44 41 40 42 35 33 30 30 33 34 32 35 35 36 35 34 30 27 24 23 22 19 16 14 16 17 16 15 15 15
100 100 100 100 100 100 100 89 90 83 51 54 59 72 71 54 76 75 53 47 49 50 41 40 47 46 43 37 35 34 33 34 34 31 28 26 23 21 22 23 19 17 16 19 20 22 20 19 17
100 100 100 100 100 97 88 100 100 99 78 71 73 78 93 98 77 76 67 59 48 50 50 46 48 58 55 52 43 37 36 41 49 42 42 33 27 28 22 20 22 23 22 21 19 19 20 21 21
100 100 100 100 100 100 99 100 100 100 98 96 97 100 94 87 84 93 88 68 66 55 51 58 63 55 50 60 66 63 52 65 63 66 60 53 39 30 25 32 30 22 22 22 20 20 20 20 20
100 100 100 100 100 99 100 100 100 100 100 100 100 100 100 98 87 96 100 97 93 80 61 56 65 60 53 55 65 72 65 75 78 76 63 62 60 45 35 28 27 26 26 24 24 24 23 22 22
100 100 100 100 100 99 91 96 100 100 100 100 100 100 97 100 100 91 89 83 73 66 69 75 78 68 52 46 54 71 65 66 85 90 75 63 100 79 56 51 42 41 38 30 27 29 30 25 24
100 100 100 100 100 100 100 100 100 100 100 100 100 100 100 95 89 92 92 82 86 88 78 66 68 59 54 54 58 54 66 56 73 78 87 100 100 99 98 100 91 67 51 44 35 31 30 30 26
100 100 100 100 100 100 100 100 100 100 100 100 100 100 100 100 100 100 100 100 100 96 90 79 67 56 54 64 70 67 65 68 69 74 82 100 100 100 100 99 86 63 80 87 55 51 50 44 42
95 100 100 100 100 100 100 100 100 100 100 100 100 100 100 100 100 100 100 100 100 100 97 77 67 61 59 64 68 74 77 71 68 66 62 73 83 82 100 100 93 98 98 91 76 69 55 35 32
99 100 99 87 99 100 100 100 100 100 100 100 100 100 100 100 100 100 100 100 100 88 71 71 72 72 72 79 74 79 79 75 76 69 65 72 83 87 100 100 100 100 100 80 58 52 47 42 34
90 97 86 94 95 91 96 93 100 100 100 99 100 100 99 98 99 97 95 88 79 66 64 72 70 67 65 65 66 64 63 68 74 77 76 71 68 79 98 100 100 100 99 77 59 62 59 54 48
86 88 92 97 94 97 89 80 89 99 94 92 86 86 84 79 76 71 63 66 69 76 76 71 62 56 53 49 48 52 61 62 60 68 72 68 72 77 93 100 100 91 83 66 65 77 70 64 57
89 93 97 97 84 74 76 74 82 68 67 74 69 68 64 59 56 56 57 62 57 51 49 54 54 55 53 51 50 45 48 56 60 72 85 70 71 89 86 96 100 100 95 80 85 86 76 85 78
90 90 95 94 86 82 77 84 77 68 62 61 60 65 60 57 54 54 52 54 52 51 53 59 54 52 51 55 59 56 50 50 65 73 81 83 82 87 87 100 100 100 100 94 91 95 72 72 86
98 91 82 76 76 79 80 81 94 84 60 50 49 50 54 56 59 61 53 53 54 61 69 63 53 47 45 48 54 59 49 51 59 66 65 61 74 97 94 100 100 100 98 92 95 76 79 88 96
99 85 61 56 63 76 98 100 67 64 72 70 70 70 69 59 51 45 49 55 50 46 42 37 31 25 28 34 37 48 49 42 41 45 54 62 76 99 93 100 100 94 89 84 78 75 86 100 99
90 86 78 66 80 80 77 94 76 79 80 74 80 77 57 52 47 40 29 25 27 30 29 32 32 33 32 34 39 43 42 43 44 55 61 66 79 92 91 92 80 77 74 73 76 95 100 100 99

GFSSGP_250_rhum_051.txt.gz
RH
38 31 27 30 33 35 38 38 26 26 28 21 18 20 21 21 20 20 22 24 23 24 23 23 25 23 20 20 26 27 27 25 24 24 24 23 24 26 27 29 30 27 31 38 39 36 33 38 40
76 47 32 31 32 40 42 45 45 43 39 27 18 19 18 18 19 18 18 18 18 18 19 18 17 16 14 14 15 13 15 19 19 19 20 19 20 20 19 21 25 27 30 33 34 39 41 44 45
82 70 55 36 37 49 48 49 51 56 60 49 36 32 24 21 18 17 16 16 16 17 16 15 15 16 16 15 15 14 13 13 12 11 11 12 12 13 17 16 15 19 20 27 34 34 30 29 27
100 81 62 51 58 60 47 49 57 60 58 60 47 44 35 25 20 20 19 19 18 17 16 16 17 17 17 17 15 16 16 15 14 13 13 12 13 13 15 17 20 21 21 22 22 23 24 24 24
100 100 74 57 74 73 69 67 69 67 71 72 60 48 40 33 27 25 22 22 22 21 19 18 18 17 17 17 17 17 17 17 16 15 15 15 16 15 14 16 19 22 24 26 28 25 21 20 21
95 97 100 86 93 81 69 60 71 77 83 81 68 48 44 44 42 35 29 25 22 22 21 20 20 20 19 18 17 17 17 16 17 18 17 17 18 18 21 22 22 24 23 22 22 20 18 21 22
84 90 100 100 100 82 76 58 78 88 98 91 73 56 43 42 41 38 32 29 27 25 24 23 21 21 21 19 17 17 17 15 16 17 18 17 18 19 20 21 22 20 17 16 17 18 19 23 29
70 74 88 100 100 100 100 81 78 100 99 93 70 57 48 46 41 38 34 29 28 28 27 26 24 24 23 23 22 21 20 20 20 19 19 19 20 19 17 17 17 16 17 20 20 20 24 31 32
52 65 74 98 100 100 99 94 82 99 100 91 84 68 68 58 50 46 47 42 33 31 29 27 26 25 24 26 23 31 23 21 22 22 21 22 23 23 21 20 20 21 20 19 20 22 25 28 32
53 61 67 88 96 84 74 77 77 91 100 100 100 98 83 73 62 56 50 45 42 36 29 29 30 28 30 30 32 26 22 22 22 21 22 23 20 20 21 19 18 18 20 21 17 18 21 26 26
76 77 80 68 71 64 53 56 60 63 77 94 94 83 72 64 59 55 50 43 39 37 34 32 29 27 33 29 25 23 25 26 27 26 24 22 23 23 21 20 21 20 22 25 22 22 24 26 28
100 100 98 73 68 62 51 48 48 50 64 74 71 68 64 60 58 53 49 46 43 38 34 33 31 29 29 30 28 30 29 30 25 22 23 22 23 23 23 20 22 24 24 24 28 27 31 28 26
100 100 100 98 75 70 60 56 57 55 54 56 67 67 60 59 56 52 48 48 50 48 47 50 41 38 35 35 35 34 35 31 25 24 24 23 22 27 31 29 26 26 27 27 26 27 26 23 22
100 100 100 100 98 93 82 73 58 63 53 46 53 53 48 48 53 52 48 45 39 40 45 44 40 33 30 32 39 36 36 31 30 30 30 32 31 31 31 31 30 28 28 27 26 24 22 21 21
100 100 100 100 100 100 100 89 87 74 57 52 52 52 52 50 50 56 45 40 40 38 37 36 31 32 35 39 45 42 45 43 42 43 38 35 36 34 30 31 32 31 31 32 28 24 23 22 21
100 100 100 100 100 100 100 100 100 88 76 61 52 54 59 65 61 73 71 57 42 49 60 51 47 49 64 67 64 68 60 66 63 55 52 51 51 50 41 40 44 50 51 43 35 29 29 33 28
100 100 100 100 100 100 100 100 100 98 91 83 85 93 82 77 90 85 92 63 48 51 66 79 79 75 70 68 68 74 71 81 71 77 70 64 64 63 59 68 68 62 54 49 44 37 31 28 27
100 100 100 100 100 100 100 100 100 100 100 100 97 99 100 89 97 82 65 82 88 73 69 77 82 80 66 61 61 68 69 65 72 73 68 64 72 73 66 78 80 73 60 61 69 68 60 42 33
100 100 100 100 100 100 100 100 100 100 100 100 100 96 100 100 100 94 100 97 94 89 85 77 71 79 85 80 74 62 54 49 60 65 72 88 89 81 76 62 80 91 81 82 85 90 91 74 56
100 100 100 100 100 100 100 100 100 100 100 100 100 100 100 100 100 100 98 99 100 100 89 93 90 70 69 75 75 78 77 70 63 59 59 71 83 80 84 86 91 94 94 85 80 89 86 79 64
100 100 100 100 100 100 100 100 100 100 100 100 100 100 100 100 100 100 100 98 100 100 96 88 80 71 67 70 76 73 73 80 83 75 65 72 79 91 85 93 100 100 100 100 100 100 93 83 71
100 100 100 100 100 100 100 100 100 100 100 100 100 100 100 100 100 100 100 100 100 100 100 100 100 94 92 90 94 95 100 96 90 70 59 57 63 78 84 80 82 100 100 100 100 100 98 84 69
97 99 100 100 100 100 100 100 100 100 100 100 100 100 100 100 100 100 100 100 97 96 100 100 100 100 100 94 94 99 98 99 83 71 63 57 65 70 71 80 91 100 100 100 100 100 100 100 89
90 92 86 94 100 100 100 100 100 100 100 100 99 95 99 100 100 100 100 100 100 96 90 91 96 97 98 97 96 99 88 83 76 72 66 62 62 72 84 88 86 94 100 98 87 94 100 100 100
90 85 85 74 83 100 100 100 100 100 100 100 100 100 97 94 95 99 97 97 92 93 91 90 88 85 79 86 87 81 77 72 68 79 80 73 79 82 77 62 77 91 97 98 96 90 96 100 100
78 81 90 94 89 92 91 93 97 100 100 100 100 95 87 86 86 86 85 84 82 82 83 85 86 85 82 74 68 62 62 66 72 72 70 76 64 62 73 76 85 82 93 95 93 99 94 85 98
82 80 91 95 96 100 99 100 100 87 76 78 82 80 79 78 76 68 62 61 66 66 63 60 63 63 67 64 55 55 58 63 66 64 64 66 85 84 85 91 84 61 84 100 100 100 100 100 100
89 94 100 86 84 97 99 100 93 90 82 74 66 65 61 55 51 52 56 59 58 55 55 57 53 49 47 43 41 42 45 49 50 48 57 65 93 98 97 83 89 87 94 100 100 100 100 100 100
90 99 100 100 100 90 95 92 82 78 70 66 59 54 48 43 49 61 56 53 50 44 37 35 34 32 33 30 30 34 46 54 55 57 57 60 66 79 87 78 90 100 98 89 91 98 100 100 100
93 91 84 94 99 94 88 83 67 60 66 60 54 50 57 66 69 73 60 49 36 31 31 33 29 23 20 21 23 29 39 38 37 38 41 42 46 52 61 72 67 75 77 82 97 100 100 100 100

GFSSGP_250_rhum_054.txt.gz
RH
29 30 29 24 25 23 22 21 23 23 22 20 20 24 26 27 27 27 30 32 34 34 32 32 31 30 28 28 28 26 26 26 28 29 29 29 30 31 30 29 28 29 28 29 31 27 26 26 30
29 29 28 27 28 30 27 21 22 23 25 21 19 19 22 25 25 24 24 23 24 27 31 31 32 33 31 29 29 24 22 21 21 19 23 26 25 23 24 23 21 21 20 20 19 18 21 23 32
37 31 30 27 30 38 30 26 24 26 26 24 21 19 19 21 22 23 22 22 20 20 20 21 21 22 22 21 19 18 16 17 17 16 15 15 15 15 14 14 14 14 15 16 17 18 19 19 21
38 42 34 32 42 46 30 26 29 31 27 23 28 31 32 32 25 21 21 20 20 19 18 17 17 17 18 18 18 18 18 17 18 17 16 16 16 16 15 14 14 16 16 16 17 20 20 21 22
68 50 53 56 57 48 38 31 30 34 33 35 41 44 48 50 37 32 33 25 20 20 19 18 16 16 16 16 16 18 18 18 18 19 19 17 16 16 16 16 17 17 15 15 15 17 19 20 20
88 68 73 100 100 74 56 43 34 30 31 33 46 50 54 57 51 48 48 41 31 26 23 20 19 18 20 19 18 17 17 18 17 17 17 16 16 15 14 16 15 15 15 15 16 16 16 16 16
82 95 100 100 100 99 86 74 48 41 37 36 39 47 55 55 61 55 48 44 39 33 32 28 24 23 22 20 20 20 19 18 17 17 16 16 16 17 17 16 16 16 17 18 18 19 20 19 17
75 85 100 100 100 100 96 76 77 70 60 62 57 55 67 66 70 76 66 51 44 38 36 36 32 29 28 25 23 22 22 21 20 20 19 19 20 19 17 16 16 16 16 17 17 18 17 16 17
66 79 93 100 100 100 100 84 81 85 78 67 68 74 77 76 90 90 83 68 50 39 34 34 34 31 29 28 27 25 25 24 22 21 21 20 21 18 17 18 19 20 18 18 18 19 19 18 16
43 61 87 100 100 99 100 87 75 96 100 86 74 83 88 99 100 100 94 84 58 50 45 42 38 36 39 38 32 27 25 24 22 22 22 22 20 20 20 21 21 19 18 18 18 18 18 18 17
77 64 86 100 100 95 89 83 78 83 100 100 100 100 100 100 100 100 96 82 71 63 65 60 55 50 44 40 38 35 30 29 28 27 26 24 25 22 23 26 23 19 19 20 19 17 18 19 21
100 100 96 100 100 90 86 85 82 83 99 100 100 100 100 100 100 100 100 92 94 85 73 64 56 51 49 44 42 37 33 30 28 26 25 24 23 24 28 28 21 20 20 20 19 22 23 23 23
100 100 100 100 97 98 82 80 79 78 86 99 100 100 98 92 84 80 87 96 88 77 64 58 55 52 47 44 42 42 42 40 34 30 26 24 28 32 26 23 23 25 24 25 24 26 26 28 28
100 100 100 100 97 92 81 81 78 96 79 80 83 82 76 72 71 71 80 83 82 69 63 58 61 58 51 43 39 34 33 33 32 30 31 33 36 30 33 32 36 36 32 33 35 33 32 33 32
100 100 100 100 100 100 92 85 86 88 70 69 69 68 65 65 68 81 78 85 80 67 52 49 48 49 51 48 41 38 38 35 34 39 47 50 52 42 47 46 48 49 44 43 45 43 42 35 36
100 100 100 100 100 100 100 100 100 89 80 61 54 61 65 68 70 67 70 75 66 59 55 47 49 56 53 49 40 38 41 42 45 55 62 71 78 74 75 74 69 65 54 52 52 54 56 58 59
100 100 100 100 100 100 100 100 100 100 100 100 83 72 85 96 91 88 69 59 63 58 50 50 52 50 48 45 53 48 58 63 65 80 81 75 83 85 85 89 75 66 54 46 40 53 71 81 70
100 100 100 100 100 100 100 100 100 100 100 100 100 100 100 96 92 96 89 82 74 69 70 66 66 60 54 59 59 64 61 75 93 77 87 80 78 78 67 71 69 69 58 52 52 67 71 79 89
100 100 100 100 100 100 100 100 100 100 100 100 99 98 96 100 100 100 99 90 91 90 88 86 82 95 92 84 84 76 71 75 92 95 86 86 88 80 76 68 63 61 56 51 61 76 78 84 91
100 100 100 100 100 100 100 100 100 100 100 99 96 93 88 96 100 100 100 100 100 100 100 100 96 83 87 88 96 96 100 100 100 100 94 83 78 76 66 64 69 74 75 64 70 80 99 100 94
100 100 100 100 100 100 100 100 100 100 100 99 89 93 93 99 100 100 100 99 100 100 100 100 100 100 100 100 100 100 100 100 100 98 92 91 69 71 79 65 73 77 86 79 73 100 100 98 87
100 100 100 100 100 100 100 100 100 100 100 100 100 100 100 100 100 95 99 100 98 93 95 100 100 100 100 100 100 100 100 100 100 92 90 89 86 82 78 82 82 88 94 85 73 82 95 100 100
91 100 100 100 100 100 100 100 100 100 100 100 100 100 100 100 100 97 87 92 100 100 100 100 100 100 100 100 100 98 94 100 100 100 94 90 91 95 94 90 96 100 96 87 91 88 88 100 100
73 100 100 100 100 100 100 100 100 100 100 100 100 100 100 100 98 94 90 88 88 93 99 100 100 100 92 90 85 77 83 90 100 100 100 100 94 97 92 95 85 94 96 89 96 100 100 91 89
57 73 100 100 100 100 100 100 100 100 100 100 100 100 100 100 100 100 100 100 98 94 86 79 77 80 92 99 98 100 100 96 97 100 100 100 100 100 98 93 89 91 91 100 100 95 92 70 65
66 60 60 88 100 100 100 100 100 100 100 100 97 93 93 93 100 100 99 89 84 88 91 92 98 98 98 98 94 92 95 98 98 94 94 94 95 96 94 85 82 96 88 89 98 100 89 88 88
99 82 71 68 62 86 100 97 100 100 100 95 96 97 94 87 85 83 87 96 98 98 93 82 85 87 84 85 82 80 76 78 78 73 72 72 70 74 83 76 73 92 100 100 100 92 100 98 100
94 94 89 81 87 91 90 86 87 90 93 97 100 100 92 89 86 77 70 71 69 76 76 72 70 72 69 63 57 55 52 51 48 44 47 52 64 82 86 80 79 81 92 100 100 90 100 100 100
93 78 80 84 91 100 97 85 79 82 84 89 90 84 82 85 80 70 65 70 69 66 61 56 49 45 36 29 24 23 22 20 22 28 36 53 63 66 74 89 100 100 97 100 98 100 100 100 100
92 99 77 75 89 99 90 74 69 77 83 87 93 82 80 78 70 66 68 66 63 56 44 35 28 20 19 20 19 18 18 20 24 27 30 37 50 65 89 94 99 98 100 98 100 100 100 100 100

GFSSGP_250_rhum_057.txt.gz
RH
47 45 43 48 39 36 39 38 34 29 29 30 29 32 35 36 38 40 46 46 45 38 39 42 44 47 47 46 41 38 32 26 24 24 24 26 28 29 31 32 31 33 33 31 26 26 24 22 21
41 44 40 38 46 43 36 34 31 30 29 27 27 27 29 31 32 33 34 33 32 33 33 35 36 37 37 33 30 28 27 26 27 27 27 28 31 31 27 26 23 18 17 16 16 17 15 16 16
36 38 36 30 40 51 38 29 27 25 25 26 25 25 25 27 29 30 30 30 29 29 30 31 32 33 33 32 33 34 31 30 30 26 22 22 21 19 18 17 17 17 16 16 15 14 16 16 15
34 34 30 28 44 45 38 28 29 24 22 22 24 26 25 23 26 29 28 27 27 26 24 23 22 22 26 25 23 23 23 22 22 20 19 19 19 19 18 18 17 17 16 16 16 17 15 14 15
53 32 27 30 48 44 31 28 27 24 22 21 23 25 28 27 27 26 25 26 26 25 24 22 21 20 19 18 17 17 18 17 18 19 19 19 18 18 17 16 15 16 15 15 15 16 17 17 17
90 40 30 37 55 41 27 26 26 24 22 23 22 24 30 34 29 28 28 30 26 23 23 22 20 19 19 18 17 17 17 16 16 16 16 17 16 16 16 16 16 15 16 16 16 15 15 16 16
71 87 40 46 45 35 28 24 28 26 24 24 26 27 30 30 30 37 41 37 38 32 27 26 24 22 19 20 19 19 17 18 19 19 19 18 18 18 18 17 18 18 19 19 17 16 15 16 16
80 87 90 81 44 41 36 33 30 28 27 27 28 29 29 32 35 42 48 52 50 49 52 47 43 41 37 30 28 28 26 27 25 22 21 20 20 20 20 19 20 20 20 18 18 18 17 16 17
86 92 100 100 100 92 48 41 42 40 37 34 33 32 30 28 30 36 44 50 52 52 55 60 57 50 45 39 36 35 34 30 28 28 27 25 23 22 21 22 21 21 20 18 18 17 17 18 16
63 85 100 100 100 100 85 50 50 65 70 59 48 51 44 38 35 36 39 44 48 62 65 68 70 65 57 44 37 36 34 34 35 35 35 34 31 28 27 24 22 20 19 18 18 17 17 17 18
64 63 92 100 100 100 99 86 61 78 91 88 90 98 93 68 64 61 65 70 76 74 73 84 93 77 63 52 46 42 40 39 43 41 38 37 36 35 31 31 26 22 21 20 18 19 18 19 21
84 96 79 93 100 100 100 93 78 91 100 100 89 89 97 89 83 73 69 65 69 71 85 95 92 87 75 64 59 59 58 55 50 43 42 41 36 34 31 27 24 22 20 19 20 26 30 32 27
100 100 100 92 93 100 100 97 89 85 92 100 100 99 91 89 89 89 99 92 84 88 89 99 98 87 77 70 62 62 57 50 50 46 44 39 33 30 27 24 23 22 25 25 26 33 36 36 38
100 100 100 100 88 92 99 96 90 100 90 89 98 100 100 94 85 80 76 87 96 98 99 86 80 72 66 66 62 59 50 48 46 42 39 36 33 30 27 24 27 32 34 37 39 44 51 55 54
100 100 100 100 100 100 91 96 100 97 83 95 100 100 100 100 91 91 84 91 100 100 92 77 67 62 62 57 55 48 48 49 50 46 43 38 37 32 31 32 40 42 55 53 60 59 63 68 65
100 100 100 100 100 100 100 100 100 94 92 100 100 100 100 100 100 98 94 88 84 89 79 65 57 54 52 54 54 60 54 59 49 42 42 47 45 46 47 57 61 69 75 72 72 74 71 62 59
100 100 100 100 100 100 100 100 100 100 97 97 100 100 100 100 100 100 95 79 75 72 74 72 66 62 56 54 51 57 64 52 49 59 67 66 71 68 75 86 90 91 89 78 80 75 64 53 52
100 100 100 100 100 100 100 100 100 100 100 100 100 100 100 100 100 100 100 97 88 74 70 69 72 71 66 66 65 65 62 70 76 68 85 100 91 91 92 95 82 90 92 84 84 83 75 57 57
100 100 100 100 100 100 100 100 100 100 100 100 100 100 99 100 99 100 100 100 100 100 99 98 93 98 92 84 82 84 84 77 80 82 84 99 100 100 98 99 94 96 99 90 90 81 76 69 68
100 100 100 100 100 100 100 100 100 100 100 100 100 100 96 99 100 100 100 100 100 100 100 100 95 87 86 93 98 98 96 97 92 88 91 98 100 100 95 90 89 98 100 96 85 70 72 76 80
100 100 100 100 100 100 100 96 88 92 97 100 100 100 98 94 96 99 100 100 100 100 99 100 100 100 100 99 100 100 100 100 100 100 100 100 100 100 99 100 100 100 93 89 85 83 81 87 84
99 100 100 100 100 100 100 100 100 93 92 92 97 100 100 95 91 88 91 88 89 92 94 95 100 100 100 100 100 100 100 100 100 100 100 100 100 100 100 100 100 98 100 100 100 100 100 99 100
72 100 100 100 100 100 100 100 100 100 99 93 95 87 80 81 79 69 67 75 83 83 88 98 89 90 100 100 100 100 100 100 100 100 100 100 100 100 100 97 92 98 100 100 94 88 90 100 96
59 85 100 100 100 100 100 100 100 100 100 100 97 99 91 99 98 97 99 95 93 95 96 98 100 100 100 99 100 98 97 100 100 100 100 100 100 97 98 97 94 99 97 100 100 100 100 100 100
41 53 92 97 100 100 100 100 100 100 100 100 100 96 96 91 97 100 100 100 100 99 98 94 95 99 95 93 92 91 93 92 100 98 99 100 99 98 98 98 99 100 100 100 100 100 100 100 100
27 44 67 65 93 100 100 100 100 100 100 100 100 100 100 100 98 98 98 93 91 95 96 94 89 74 72 75 84 96 99 99 96 92 88 90 100 100 100 100 100 100 100 100 100 100 100 93 100
23 36 53 76 82 97 100 100 100 100 100 100 100 100 100 100 100 99 96 94 91 88 79 75 77 82 86 83 80 80 78 75 74 77 85 93 93 95 96 94 92 95 91 92 91 100 100 100 100
29 38 62 77 81 74 89 96 100 100 96 97 100 98 96 96 97 97 93 87 83 82 86 96 100 96 91 78 69 71 72 73 70 70 74 75 75 74 75 74 73 77 88 94 99 100 100 100 100
51 38 46 65 78 75 78 78 90 98 99 100 97 95 96 89 91 88 88 88 90 86 82 82 79 69 60 52 52 49 41 28 22 21 20 20 25 30 38 49 61 74 93 100 100 100 100 100 100
73 80 80 85 87 86 76 70 62 66 74 81 84 92 96 97 96 95 95 92 90 88 83 78 69 52 47 41 37 29 19 14 14 13 13 14 18 23 26 31 45 68 100 100 100 100 100 100 100

GFSSGP_250_rhum_060.txt.gz
RH
47 50 54 58 57 65 66 71 56 56 50 48 53 57 52 49 48 51 60 73 76 71 69 64 56 55 50 48 46 44 29 32 36 33 29 26 24 24 23 24 24 25 26 28 29 23 18 17 17
49 53 50 54 60 77 71 65 61 59 48 41 45 49 44 42 45 47 47 50 56 56 53 52 57 54 50 50 48 47 45 45 40 33 26 25 26 24 22 23 25 20 18 18 18 18 19 18 17
55 53 54 44 56 80 73 47 49 52 48 41 42 42 40 38 38 40 39 41 45 45 41 40 42 40 38 37 40 46 41 33 29 28 27 27 26 24 23 22 22 22 21 19 18 16 16 16 15
56 56 50 55 75 80 56 39 45 41 40 38 37 40 34 33 34 34 36 36 36 36 34 32 33 34 34 36 36 34 32 32 31 31 29 27 27 24 22 21 20 19 18 18 16 16 16 16 17
53 54 51 58 80 83 53 43 42 37 39 38 36 34 34 31 31 32 31 31 31 31 31 31 29 28 27 26 25 24 27 25 21 21 21 21 21 20 20 18 18 18 17 17 17 17 17 17 18
73 51 50 58 71 70 49 44 47 39 35 36 34 33 32 30 29 28 27 28 30 30 29 28 27 26 25 24 22 21 20 19 19 18 18 18 18 18 18 19 18 18 17 18 18 18 19 19 19
86 71 49 52 54 58 49 42 48 40 38 32 32 30 28 29 29 28 26 24 24 25 26 26 25 25 25 24 23 21 20 20 19 19 20 20 20 20 20 19 20 20 20 21 20 20 20 19 18
71 92 83 61 49 51 45 43 47 42 36 36 29 28 28 28 25 26 29 29 26 24 22 23 26 24 26 26 27 27 25 27 29 27 23 24 24 25 26 26 25 24 23 23 23 22 20 20 18
82 82 99 100 91 59 41 38 35 38 36 34 30 26 25 25 22 24 25 28 30 29 30 36 38 40 37 42 49 50 50 45 43 40 36 34 32 31 30 30 31 32 32 30 28 24 24 25 23
82 84 100 100 100 99 46 32 36 36 35 35 35 27 25 25 24 25 26 28 29 32 38 45 50 51 52 53 55 58 56 54 51 46 39 34 32 31 34 38 39 35 33 33 31 28 25 21 20
62 89 100 100 100 100 90 35 34 35 36 35 37 36 32 29 25 26 27 27 28 29 31 33 39 43 46 55 76 63 55 56 60 57 52 45 42 42 42 45 39 33 30 29 27 25 23 21 21
89 83 100 100 100 100 100 72 43 43 37 40 40 43 41 32 30 30 30 32 33 32 33 34 36 40 57 70 67 57 59 71 72 69 63 59 56 52 46 42 37 31 29 29 28 27 26 25 23
100 96 98 100 100 100 100 98 73 58 42 39 46 47 46 48 38 42 47 43 36 50 63 55 57 62 61 57 58 67 72 81 76 73 67 60 55 46 40 40 37 33 32 32 30 28 27 27 30
100 100 99 100 100 100 100 100 96 84 72 71 62 59 62 57 61 65 72 77 74 77 78 77 81 75 71 70 69 74 75 76 74 69 62 54 47 42 39 40 38 34 34 31 31 29 35 47 49
100 100 100 100 100 100 100 100 100 87 87 100 100 100 100 99 97 85 81 85 79 77 77 74 68 71 71 74 77 80 83 78 70 59 51 48 45 40 41 39 40 37 35 38 45 57 64 66 73
92 92 100 100 100 100 100 100 99 94 89 100 100 100 100 100 100 88 85 81 84 88 86 86 82 78 79 85 92 87 78 68 58 53 51 48 43 44 44 44 45 52 56 59 68 74 74 82 78
99 94 90 100 100 100 100 100 100 100 95 83 97 100 100 100 100 99 88 85 80 86 89 96 96 96 89 78 72 72 70 72 62 52 45 46 53 57 59 67 70 68 69 71 73 72 80 92 83
100 100 98 95 100 100 100 100 100 100 100 94 92 98 99 100 100 100 100 100 100 95 91 92 91 88 87 77 75 68 64 60 54 54 61 61 64 71 75 70 67 71 79 96 100 100 98 93 88
100 100 100 91 93 100 100 100 100 100 100 100 100 100 100 100 100 100 100 100 100 100 97 93 88 91 86 83 80 80 74 72 72 80 75 76 76 73 73 73 74 77 90 97 100 100 100 100 100
100 100 100 100 100 97 100 100 100 100 100 100 100 100 100 100 100 100 100 100 100 100 100 99 98 95 84 85 90 92 82 88 92 91 93 87 88 85 83 84 88 93 91 96 97 99 100 100 92
42 100 100 100 100 100 100 100 100 100 100 100 100 100 100 100 100 100 100 100 100 100 100 100 97 94 96 93 84 86 83 96 99 100 100 97 91 97 97 98 98 100 100 100 98 100 100 100 100
25 68 100 100 100 100 100 95 100 100 100 100 100 100 100 100 100 100 100 100 100 100 100 98 100 100 99 98 99 98 97 96 100 98 94 90 98 100 100 100 100 100 100 100 100 98 90 88 96
22 31 79 100 100 100 100 95 90 100 100 100 100 100 100 100 95 93 92 96 100 100 100 100 100 97 98 91 92 90 91 86 78 90 98 99 99 100 98 100 100 100 100 100 100 100 100 100 100
21 23 36 72 100 100 100 100 98 93 91 96 100 100 100 98 97 97 94 93 98 95 96 96 84 81 75 66 70 75 78 90 93 100 100 100 100 100 100 99 100 99 99 100 100 100 100 100 100
20 21 28 44 91 100 100 100 100 100 96 83 84 84 80 83 82 80 71 79 81 72 73 72 66 72 73 83 87 86 92 100 100 100 100 100 100 100 100 95 94 100 100 100 100 100 100 100 100
18 20 23 38 51 77 100 100 100 100 100 100 92 87 86 84 96 88 77 70 72 64 68 66 62 63 77 85 94 92 92 92 96 98 98 97 93 96 98 100 100 100 100 100 100 100 100 100 100
18 20 19 29 37 50 59 99 100 100 100 100 100 100 97 92 81 82 77 77 66 62 66 66 69 69 64 70 71 70 76 78 82 84 89 92 94 100 100 100 100 100 100 100 100 100 100 100 100
21 27 30 28 33 50 63 68 86 100 100 100 100 96 96 93 90 84 92 91 94 94 93 88 82 83 90 82 81 88 86 86 86 81 75 71 73 80 87 96 96 93 94 95 93 88 83 84 88
33 52 51 49 57 67 81 99 94 84 89 94 100 100 100 100 100 100 100 99 99 100 100 99 100 90 77 87 87 83 74 70 70 65 54 36 27 22 19 21 25 38 51 64 70 72 72 72 84
33 30 46 38 50 60 72 87 89 84 90 98 99 100 99 98 97 94 93 92 92 93 95 94 81 78 83 83 79 53 40 35 27 18 14 11 11 13 14 16 18 21 28 38 50 60 66 75 81

GFSSGP_250_rhum_063.txt.gz
RH
50 44 46 58 51 48 59 71 82 75 79 82 82 82 73 64 36 41 39 54 53 53 56 73 79 77 69 54 44 33 35 41 37 35 25 24 29 28 25 23 23 21 20 21 20 20 18 18 19
50 40 42 55 55 61 69 79 75 66 75 82 79 83 79 61 62 60 42 40 51 59 52 50 48 48 46 45 42 43 44 41 43 40 26 34 35 28 24 23 21 20 19 19 21 21 22 21 18
56 43 38 49 59 71 80 66 59 60 70 76 75 80 79 69 67 59 49 47 58 76 76 73 70 71 65 62 60 56 46 43 43 43 43 33 30 27 25 25 24 24 23 22 21 20 18 17 17
65 40 37 42 65 75 78 68 58 66 66 69 71 77 68 64 64 56 52 53 54 59 70 73 70 64 60 59 52 40 35 31 33 36 32 29 28 27 26 26 25 24 22 19 18 18 18 17 18
82 42 36 44 64 70 65 65 58 61 68 67 68 78 59 56 58 49 44 44 46 46 47 50 49 43 38 36 34 34 34 34 32 31 31 30 25 21 20 19 18 18 18 20 20 20 19 19 20
83 54 41 53 72 76 63 59 61 59 67 76 75 76 52 52 51 46 40 38 37 38 38 37 37 36 33 31 30 30 28 26 24 22 21 20 20 19 19 19 19 20 20 20 21 22 23 24 23
92 71 50 66 69 72 69 61 68 66 62 76 85 79 51 50 49 42 34 33 33 33 33 33 32 32 32 31 29 28 27 26 23 22 22 24 23 22 22 23 22 23 24 25 27 26 26 26 28
82 89 50 60 69 87 77 60 74 73 73 53 84 77 58 44 44 42 36 31 30 29 29 30 30 30 30 30 28 27 27 28 31 28 29 33 35 38 41 40 37 35 33 33 31 28 27 31 34
69 90 66 55 68 84 78 59 75 78 61 63 50 53 58 46 39 36 35 32 29 28 27 27 26 26 25 25 25 26 28 26 32 40 51 54 51 52 51 46 42 38 32 30 29 30 34 37 32
69 75 100 100 84 76 74 70 71 83 76 64 49 42 47 46 41 36 33 30 28 27 27 26 26 24 25 26 27 28 31 38 43 51 55 58 50 45 46 45 44 41 40 40 42 43 40 37 32
81 70 100 94 96 89 64 59 67 79 82 79 62 47 52 51 40 36 32 29 28 26 25 26 26 28 30 30 34 38 42 40 45 43 60 70 57 48 50 52 47 40 41 41 45 42 35 33 32
100 87 86 100 100 100 97 55 57 63 72 66 68 70 56 57 50 38 32 30 29 27 24 25 26 27 28 30 33 32 31 32 37 58 66 61 57 58 55 51 52 56 53 48 42 38 34 34 33
100 97 88 97 100 100 100 78 52 54 56 63 66 66 63 59 58 46 40 38 35 29 25 24 26 28 28 30 30 32 41 46 56 62 63 59 61 53 61 60 59 57 50 44 40 38 34 33 31
100 100 93 99 100 100 100 100 57 54 51 52 55 56 60 59 56 48 41 42 40 32 28 27 28 29 31 34 38 57 77 76 72 69 66 63 58 60 62 65 58 52 45 43 40 39 36 32 37
100 75 94 100 100 100 100 100 99 74 70 61 58 57 54 58 54 50 42 41 39 34 32 31 33 37 43 52 63 72 77 76 72 68 66 63 59 66 66 63 55 51 46 41 41 42 45 51 57
100 78 80 100 100 100 100 100 100 88 85 94 90 84 76 63 59 57 50 42 42 42 48 49 54 65 74 81 83 80 70 67 74 72 70 67 69 70 65 61 55 46 46 49 51 52 61 58 60
100 96 83 100 100 100 100 100 100 100 90 90 100 100 100 100 89 77 70 64 67 75 77 78 80 82 83 84 81 85 81 81 72 73 71 71 67 64 61 58 54 50 50 64 61 64 70 71 72
100 100 95 99 100 100 100 100 100 100 100 93 97 100 100 100 100 100 99 99 92 91 92 96 95 92 90 83 85 82 74 76 77 78 77 69 70 65 62 60 58 60 67 78 83 79 81 81 74
98 100 100 100 100 100 100 100 100 100 100 99 93 100 100 100 100 100 100 100 100 100 100 100 99 100 98 98 86 95 88 82 91 93 80 77 75 71 69 76 77 78 78 80 85 88 88 87 92
85 100 100 95 100 100 100 100 100 100 100 100 100 99 100 100 100 100 100 100 91 91 92 87 81 85 85 85 96 100 97 90 97 91 88 86 80 69 76 82 86 88 96 99 95 84 96 99 81
68 100 100 100 100 98 100 100 100 100 100 100 100 98 100 100 100 100 100 100 100 100 100 100 100 100 100 100 100 96 99 88 81 74 76 76 77 80 84 85 85 80 80 78 95 100 94 93 92
42 100 100 100 100 100 93 100 100 100 100 100 100 100 100 100 100 100 100 100 100 100 100 100 100 100 100 99 83 84 85 85 74 66 70 69 66 71 69 70 69 75 82 90 97 100 100 100 100
12 91 100 100 100 100 100 90 100 100 100 100 100 100 100 100 100 100 100 100 100 100 100 100 100 100 100 100 96 87 85 76 78 75 73 72 68 62 58 62 71 81 82 92 100 100 100 100 100
12 21 99 100 100 100 100 100 89 92 100 100 100 100 100 100 99 98 100 100 100 100 100 100 95 99 98 94 89 88 85 77 77 82 74 72 71 69 74 71 71 71 76 77 94 96 98 99 100
13 13 18 92 100 100 100 100 100 98 87 92 100 100 99 95 97 96 98 99 100 100 100 100 98 92 96 92 89 85 84 79 72 70 72 69 66 71 70 72 78 85 83 80 80 97 100 100 100
15 14 14 15 39 100 100 100 100 100 99 85 82 88 93 100 100 99 98 98 96 95 96 98 98 97 96 89 79 71 65 62 62 61 60 66 64 60 56 60 64 79 86 92 94 100 100 100 100
13 14 14 13 16 20 36 91 100 100 100 100 92 83 88 92 95 96 93 92 90 88 88 88 82 76 74 70 66 64 58 50 54 59 69 83 76 78 87 94 98 100 100 100 98 99 99 100 100
14 16 16 16 16 18 19 25 57 96 100 100 100 100 100 94 81 72 72 70 69 70 72 72 68 64 59 56 54 53 58 54 65 86 95 96 90 90 81 79 69 58 53 58 60 59 55 67 79
18 17 18 19 21 20 21 23 39 56 80 100 100 100 100 100 100 99 90 88 83 74 72 71 67 62 67 71 73 89 85 88 98 96 77 68 61 58 41 25 17 15 14 16 22 25 28 36 48
26 21 21 23 23 23 26 30 35 46 60 61 63 100 100 100 100 100 96 96 99 97 88 78 74 85 99 97 95 90 79 67 63 61 46 44 32 24 16 13 13 13 13 14 16 22 27 30 33

GFSSGP_250_rhum_066.txt.gz
RH
100 100 58 50 56 64 88 89 72 77 73 75 89 81 70 46 38 39 45 36 33 45 56 67 89 100 100 97 100 100 100 100 98 86 54 37 33 28 24 26 28 26 24 23 20 20 18 18 18
100 100 72 48 51 60 76 76 81 69 69 92 91 82 69 48 46 47 45 37 34 51 54 60 71 93 99 100 98 93 85 67 50 38 35 33 33 25 31 32 29 25 26 25 25 22 22 22 19
97 100 83 46 48 56 66 65 75 55 86 83 85 83 59 74 69 77 56 47 34 46 55 50 48 59 87 88 81 72 56 39 36 42 44 45 42 34 34 29 27 27 25 23 22 21 18 16 16
60 100 97 52 56 54 55 60 66 70 83 85 86 79 76 83 59 70 61 50 41 34 48 49 45 45 47 51 50 47 41 46 50 52 37 33 35 33 28 27 26 24 22 20 17 17 17 17 18
49 80 99 70 66 56 50 54 67 72 75 87 87 77 79 82 71 75 72 62 51 44 36 46 59 63 59 63 65 62 56 51 43 38 29 27 28 27 27 26 21 19 19 18 18 18 20 21 24
62 83 85 88 76 56 49 49 72 56 72 92 89 79 81 81 74 72 71 64 60 55 55 53 60 71 76 66 57 48 41 37 34 31 30 28 24 22 22 22 21 21 22 26 28 30 33 34 33
81 73 100 98 82 56 53 38 87 62 65 92 78 81 79 78 75 72 69 64 62 54 53 54 52 49 46 44 40 36 33 31 30 28 26 25 24 24 25 24 29 35 42 43 42 43 41 37 34
86 80 100 100 89 60 54 43 84 70 74 78 99 64 72 73 75 76 72 62 61 49 44 42 41 41 37 36 34 33 32 31 29 28 28 28 30 32 35 34 41 44 44 46 40 38 37 35 33
77 64 90 100 100 74 56 46 68 71 72 84 90 55 71 71 76 76 75 55 55 49 42 38 36 34 33 32 30 30 31 30 30 30 29 30 33 33 38 42 50 50 53 47 41 41 41 38 36
83 76 96 100 100 98 58 40 61 68 69 81 79 71 72 69 73 75 74 51 51 44 37 32 30 28 28 28 29 30 31 32 33 33 41 46 48 48 48 45 45 54 56 49 42 40 44 50 52
99 81 100 100 100 100 86 42 56 74 76 77 78 68 71 79 77 81 76 53 43 44 41 36 32 29 30 32 30 31 30 31 33 36 38 42 40 36 34 34 42 51 52 49 43 44 51 56 54
100 100 100 100 100 100 100 51 67 72 84 77 69 61 83 83 82 81 78 63 45 40 39 37 34 32 32 31 30 28 28 28 31 33 33 34 32 39 43 47 54 58 58 52 44 47 54 54 52
100 100 93 99 100 100 100 88 52 66 69 79 78 96 88 86 86 70 68 64 52 44 40 36 35 34 32 32 28 27 28 29 28 29 31 32 37 53 65 75 66 60 54 52 52 57 57 54 51
100 100 78 78 100 100 100 100 63 56 63 81 95 96 91 91 90 78 61 61 55 45 40 39 39 38 35 33 32 29 29 28 29 30 31 38 46 62 67 62 58 54 55 57 59 53 54 52 46
100 86 82 61 100 100 100 100 100 59 61 74 91 95 98 97 100 93 74 57 52 55 50 48 44 41 42 41 38 34 29 29 29 32 38 52 59 62 62 60 62 58 58 60 56 55 51 47 49
77 85 81 82 97 100 100 100 100 94 62 70 77 88 92 96 99 98 93 81 69 68 67 61 51 53 48 45 43 38 33 32 32 42 55 59 65 64 66 63 60 60 60 56 54 51 50 50 50
29 63 81 100 100 100 100 100 100 99 97 72 82 77 75 77 79 81 82 79 74 72 71 68 63 53 48 44 42 37 37 45 50 64 80 79 72 65 63 63 65 61 65 68 56 52 53 57 62
14 47 84 100 100 100 100 100 100 100 94 100 100 100 98 76 67 66 64 64 63 61 59 60 59 57 50 46 51 65 59 66 87 99 83 73 70 65 63 66 69 70 66 63 63 58 57 67 73
12 30 66 100 100 100 100 100 100 100 100 100 99 100 100 100 100 92 97 96 87 81 77 69 66 67 67 87 100 100 94 89 100 95 74 73 80 76 75 75 73 64 60 59 64 62 64 73 73
10 13 50 93 100 100 100 99 100 100 100 100 100 100 100 100 100 100 100 100 100 100 100 100 100 99 99 94 90 99 100 95 87 88 87 87 95 100 89 85 80 70 63 66 64 70 70 68 64
9 11 19 64 100 100 100 95 91 99 100 100 100 100 100 100 100 100 100 100 100 100 100 100 100 100 100 100 98 98 100 100 100 91 97 92 92 85 86 84 73 76 78 75 72 67 67 68 65
10 11 14 35 100 100 100 100 92 96 100 100 100 100 100 100 100 100 100 100 100 100 100 100 100 100 100 100 100 100 93 93 100 100 96 93 84 76 66 64 64 62 65 65 62 62 63 67 73
11 10 13 86 100 100 100 100 100 94 100 100 100 100 100 100 100 100 100 100 100 100 100 100 100 100 100 96 96 97 97 87 87 100 99 86 82 72 63 48 47 45 51 55 56 60 58 70 74
12 11 12 25 74 99 100 100 100 100 100 100 100 100 100 100 100 100 100 100 100 100 100 100 100 100 100 100 96 95 100 99 98 82 77 78 67 61 66 68 64 61 57 54 50 50 51 61 76
12 11 11 13 51 84 100 100 100 99 100 100 100 100 100 100 100 100 100 100 100 100 100 100 100 100 100 100 99 100 100 87 92 88 80 79 74 76 73 70 64 61 56 53 51 49 48 51 64
13 12 11 11 14 61 100 100 100 100 100 100 100 100 100 100 100 100 100 100 100 100 99 93 91 92 94 88 89 98 99 91 92 93 84 83 82 72 66 60 60 58 59 60 66 62 50 45 40
14 13 13 13 13 16 47 99 100 100 100 100 94 100 100 100 100 100 100 100 100 98 92 92 93 88 92 98 100 100 100 97 88 86 80 76 70 63 61 53 61 62 74 77 60 32 21 18 18
14 14 14 13 14 15 17 34 99 100 100 100 100 93 88 94 97 97 94 91 89 87 88 95 91 91 93 95 98 94 91 82 75 75 67 63 61 59 65 66 77 72 53 23 18 17 16 16 16
17 16 16 16 15 15 15 16 28 100 100 100 100 100 100 99 94 84 78 75 76 77 74 72 74 74 73 66 69 67 68 63 60 57 56 60 70 82 80 58 49 38 20 17 17 18 16 14 14
24 24 21 20 18 17 15 16 18 50 100 100 100 100 100 100 100 100 100 100 93 90 82 72 70 69 72 66 54 60 72 66 59 71 70 83 68 63 54 34 28 28 21 20 23 18 12 10 9

GFSSGP_250_rhum_069.txt.gz
RH
54 69 100 100 100 82 56 48 38 82 72 75 76 70 56 40 36 35 32 26 27 23 21 32 38 73 98 100 96 86 95 95 99 92 97 91 80 79 57 38 28 32 30 29 24 23 22 21 18
59 53 92 100 100 88 61 46 57 94 81 77 73 54 51 48 39 41 32 26 31 27 22 32 44 62 89 100 100 99 95 93 99 100 100 100 81 44 35 31 29 32 30 28 25 23 23 20 17
86 43 64 94 100 96 66 50 60 88 83 79 74 61 56 73 70 58 46 33 36 37 27 32 42 49 73 100 100 100 100 100 100 92 79 57 40 36 43 46 38 32 30 24 22 21 19 19 20
94 78 48 78 100 100 72 54 75 92 90 76 74 65 75 77 59 48 50 37 41 42 35 34 41 52 65 66 94 100 100 96 83 71 51 43 40 47 39 37 33 29 24 24 20 20 20 22 26
100 93 72 75 100 100 84 50 64 90 92 83 75 76 77 75 56 60 68 60 52 52 43 38 50 62 58 54 58 80 84 84 78 64 48 40 36 37 34 28 24 23 22 22 21 24 26 30 34
100 95 72 81 100 100 96 52 65 76 92 92 82 79 82 85 65 67 72 67 62 56 50 41 47 62 64 59 53 52 54 56 54 42 40 38 33 34 29 25 23 22 23 24 24 29 37 42 42
100 100 100 91 100 100 100 70 62 79 89 82 80 81 84 83 76 72 76 78 75 66 60 55 45 44 52 58 62 64 65 59 49 39 34 33 32 29 28 26 25 25 28 33 34 39 45 56 54
100 100 99 97 62 100 100 84 60 75 88 81 67 81 86 81 82 77 80 80 75 70 71 65 57 51 52 53 55 57 54 44 37 36 34 33 31 29 30 30 28 28 33 39 40 44 43 48 52
100 100 100 97 100 100 100 91 64 61 60 59 67 85 89 83 82 82 72 82 77 69 76 68 60 56 56 55 50 46 40 36 36 34 32 30 29 30 32 28 30 38 46 45 40 37 42 49 51
89 100 100 100 100 100 100 93 77 62 53 53 68 82 97 98 82 86 77 75 81 73 79 75 63 51 49 48 44 42 37 35 33 32 32 31 31 33 33 34 36 38 34 32 41 54 59 60 52
100 100 100 100 99 96 100 100 81 84 60 48 55 80 85 91 82 69 74 74 79 82 75 74 64 56 45 42 40 38 34 32 30 32 34 36 35 34 34 33 31 32 30 32 46 49 49 54 48
100 100 99 100 100 100 100 100 98 93 64 47 53 78 81 93 87 89 81 74 73 71 76 75 58 58 52 42 36 34 31 32 34 35 34 35 34 30 30 28 28 30 33 39 45 52 52 48 47
97 100 98 96 100 100 100 100 98 100 82 54 54 63 87 84 88 100 93 71 78 70 71 79 60 50 50 45 40 37 35 36 37 37 30 30 32 30 28 29 31 30 34 40 46 48 51 53 51
48 80 98 86 100 100 100 100 98 100 100 74 56 58 74 89 95 90 93 77 73 73 76 80 82 57 47 44 42 40 39 36 35 37 37 31 30 33 34 36 35 38 44 48 49 53 55 54 55
37 52 75 98 100 100 100 100 100 100 100 95 60 68 66 81 90 97 92 89 72 71 76 82 89 84 61 47 44 43 44 41 42 44 48 45 43 42 41 38 49 45 47 50 54 56 55 52 50
25 23 28 92 99 100 100 100 100 99 100 100 89 68 70 61 94 93 95 90 82 76 78 80 81 85 76 67 57 53 48 53 56 53 54 50 51 50 46 53 49 53 55 60 61 55 55 57 56
17 16 26 97 88 100 100 100 100 100 100 100 100 94 75 72 80 98 96 89 86 86 94 91 76 73 78 74 70 66 67 66 63 61 54 48 45 50 49 56 53 53 68 72 67 64 66 69 61
48 34 29 99 100 85 100 100 100 100 100 100 100 100 99 85 86 93 98 99 93 94 94 98 95 78 76 76 77 71 68 69 63 60 60 60 52 48 55 60 80 78 74 76 85 83 69 64 69
86 33 22 73 100 82 90 100 100 100 100 100 100 100 100 100 87 87 97 100 100 100 95 91 98 100 88 64 68 74 67 61 65 72 54 46 58 84 95 95 85 86 82 84 95 90 81 76 71
58 85 49 52 87 82 76 96 100 100 98 94 100 100 100 100 100 98 95 100 100 100 100 96 90 90 89 82 74 69 70 68 71 80 96 100 100 100 97 98 100 96 100 98 82 89 76 72 64
17 68 57 25 61 92 95 100 100 100 100 90 100 100 100 100 100 100 100 100 99 95 97 88 80 74 76 85 94 100 100 100 100 100 100 90 83 99 100 100 100 99 93 95 90 83 71 70 63
15 15 24 20 33 90 97 100 100 99 96 100 94 92 96 100 100 100 100 100 100 100 100 100 100 100 100 100 100 100 100 100 100 100 100 100 94 82 80 86 84 99 92 82 75 74 65 68 69
13 11 11 16 16 21 73 96 100 100 96 100 100 100 100 100 100 100 100 100 100 100 100 100 100 100 100 100 100 98 100 100 91 91 100 89 87 88 81 78 71 72 68 67 65 65 64 68 63
12 11 11 13 14 14 23 70 100 100 100 100 99 98 100 100 100 100 100 100 100 100 100 100 100 100 100 99 98 94 94 98 90 74 85 99 90 84 85 75 62 67 67 67 71 70 60 57 56
13 12 12 12 11 13 24 18 90 100 100 100 100 99 99 100 100 100 100 100 100 100 100 100 100 100 100 100 96 93 85 89 99 96 86 76 85 75 74 78 89 83 75 72 60 56 52 50 47
14 14 14 13 12 13 22 18 30 88 100 100 100 100 100 100 100 100 100 100 100 100 100 100 100 100 100 100 100 100 96 90 98 99 95 87 86 84 82 86 85 78 66 57 54 49 48 39 40
16 18 16 16 13 13 12 13 39 59 100 100 100 100 100 100 100 100 100 100 100 100 100 100 100 100 100 100 100 100 100 100 100 93 86 87 88 92 86 77 64 58 52 44 44 43 48 40 17
17 13 17 18 18 15 13 13 14 38 100 100 100 100 100 100 100 100 100 100 100 100 100 100 100 100 100 100 100 100 99 100 97 99 92 91 84 73 66 58 52 51 49 50 60 56 49 23 18
19 17 15 18 17 15 14 14 15 24 94 100 100 100 100 100 100 100 97 100 100 100 100 100 100 100 100 100 100 100 98 96 96 91 83 73 68 55 51 53 56 59 52 58 59 29 23 26 24
25 24 21 17 17 15 14 15 15 17 25 92 100 100 100 100 100 100 100 99 100 100 100 100 100 100 100 100 96 100 98 89 81 77 65 68 65 67 57 72 74 58 48 40 30 32 32 32 31

GFSSGP_250_rhum_072.txt.gz
RH
58 52 54 67 84 57 100 100 67 60 48 38 44 56 51 62 49 35 35 35 28 26 25 26 29 34 37 98 100 100 99 71 64 67 58 91 100 94 86 73 66 66 37 33 30 29 27 24 22
68 58 62 62 51 58 100 100 80 68 62 40 49 67 50 65 58 35 34 36 31 28 25 24 23 34 35 40 100 100 100 82 80 78 90 100 92 100 100 99 65 36 33 30 32 30 26 21 19
72 67 65 64 46 84 100 100 96 79 67 54 49 55 62 69 68 42 33 36 35 32 27 26 22 26 39 44 95 100 100 100 100 98 100 99 100 96 89 66 40 38 44 38 31 27 22 20 19
47 83 76 72 64 100 100 100 100 88 71 44 33 54 72 73 73 55 39 36 36 34 32 36 28 27 41 56 66 100 100 100 100 100 100 100 87 76 68 53 44 38 33 30 25 21 20 21 21
22 72 83 88 75 99 97 100 100 97 79 49 44 70 73 72 74 54 55 36 38 39 38 44 41 37 46 51 69 80 100 100 100 100 99 88 88 79 64 40 31 30 29 24 23 23 23 25 31
16 39 97 97 93 72 98 100 100 100 86 56 55 76 71 70 78 70 71 58 45 47 49 51 48 43 49 50 55 60 61 94 100 94 89 94 87 68 43 33 31 30 27 25 26 27 28 34 39
20 42 100 100 100 63 90 100 100 100 94 65 55 80 80 72 82 82 74 62 61 48 55 62 59 47 44 54 61 65 60 60 62 66 71 68 56 41 34 33 31 30 29 28 28 35 38 43 41
54 88 100 100 100 97 48 87 100 100 97 77 58 80 84 79 82 87 82 69 69 73 67 72 76 59 47 41 55 67 71 66 69 78 70 51 40 36 34 33 32 31 30 29 34 39 36 36 32
76 55 100 100 100 96 81 73 100 100 100 75 64 90 84 77 78 84 91 75 68 80 81 84 88 78 64 54 47 49 62 62 63 58 50 45 40 38 35 33 31 30 28 33 36 37 34 32 29
73 59 88 100 100 100 100 78 96 100 100 81 69 67 88 84 80 83 88 80 70 86 93 87 92 88 77 69 59 59 65 58 51 47 42 38 36 34 30 28 29 31 33 35 35 31 28 28 28
55 90 100 100 100 100 100 94 88 100 100 88 80 82 81 84 82 86 80 79 72 71 76 82 82 81 80 72 64 61 58 56 49 47 44 39 36 32 30 31 31 31 31 30 29 28 27 27 26
38 100 100 100 100 100 100 100 92 88 100 100 86 89 75 73 78 87 78 71 81 88 85 83 82 83 78 82 71 58 50 49 46 44 44 40 34 32 34 35 34 32 28 30 30 28 27 26 27
26 100 100 97 100 100 100 100 88 95 100 100 96 91 81 74 90 87 98 89 91 96 100 99 88 85 78 84 84 70 56 48 46 44 42 39 34 33 35 38 38 38 36 32 30 32 32 27 31
32 100 71 97 100 100 100 100 87 81 99 100 100 83 80 81 87 88 88 89 100 100 97 88 92 90 83 77 81 77 63 62 55 44 40 41 40 38 37 39 42 43 42 41 44 37 32 34 50
20 100 68 100 100 100 100 100 89 60 84 100 100 83 74 77 77 76 86 88 78 90 100 94 97 99 86 80 75 80 77 62 60 54 48 44 42 42 45 51 61 56 59 52 43 37 49 70 68
19 35 52 68 100 100 100 100 100 88 47 95 100 100 75 71 73 68 68 87 85 81 92 91 97 88 83 78 77 79 78 69 57 53 47 49 50 51 58 66 67 67 58 48 44 72 83 75 66
18 19 56 68 94 100 100 100 100 82 72 75 99 100 100 78 78 71 62 75 93 89 84 85 98 99 84 78 80 87 94 96 92 88 84 70 63 68 72 76 68 55 62 85 89 82 84 78 72
28 24 66 98 79 99 100 100 100 100 89 100 94 100 100 100 97 75 71 72 82 92 91 93 99 100 97 88 83 86 90 92 92 89 78 72 76 81 82 73 67 90 96 98 98 91 86 85 86
23 22 41 100 100 82 82 100 100 98 99 99 94 93 100 100 100 100 94 88 88 98 100 100 95 89 98 100 97 98 98 98 97 92 89 90 89 80 70 68 94 100 100 99 92 83 87 92 90
21 25 28 60 67 48 68 82 89 94 91 90 99 93 100 100 100 100 100 100 88 91 97 95 99 97 89 90 97 99 100 100 98 98 95 94 91 80 92 100 100 97 94 86 85 84 79 92 91
21 28 31 29 47 57 55 67 67 76 94 100 97 100 96 100 100 100 100 100 100 99 97 98 100 100 100 92 82 84 88 93 96 100 100 95 94 100 100 100 100 100 97 90 90 87 83 90 87
19 22 28 34 29 70 63 57 46 58 90 83 94 99 100 96 99 100 100 100 100 100 100 100 100 98 98 100 100 100 99 90 89 81 88 96 93 92 78 88 84 83 95 90 88 96 90 75 69
18 19 26 26 37 30 27 34 31 34 66 95 100 95 99 100 100 100 100 100 100 100 100 100 100 100 100 100 100 100 100 100 100 100 100 100 94 97 88 72 82 83 78 89 98 80 76 71 66
16 17 18 21 23 30 24 17 39 27 67 92 97 97 85 95 100 100 100 100 100 100 100 100 100 100 100 100 100 96 100 100 100 100 100 100 98 92 100 91 86 91 84 85 82 72 66 65 64
17 17 18 18 18 23 28 17 39 34 52 77 92 89 97 88 92 99 100 100 100 100 100 100 100 100 100 100 100 97 94 96 98 92 87 85 95 94 97 98 94 86 90 77 73 67 71 68 58
18 16 16 14 15 21 24 15 39 58 76 97 99 96 98 100 100 100 100 100 100 100 100 100 100 100 100 100 99 95 88 86 89 90 88 84 91 98 100 100 99 99 85 76 76 80 67 54 39
19 17 18 18 17 18 18 35 100 89 71 94 100 100 100 100 98 100 100 100 100 100 100 98 100 100 100 100 100 97 91 87 88 88 92 98 98 92 100 98 96 90 89 78 82 68 57 34 24
20 20 19 18 19 19 18 19 32 96 99 86 94 100 100 100 100 93 98 97 94 97 100 100 100 100 100 100 100 100 100 99 100 100 100 97 100 100 100 90 93 83 88 79 67 57 34 23 30
33 29 26 21 21 21 21 21 21 19 27 88 100 80 83 100 100 100 100 100 100 100 100 100 100 100 100 100 100 100 100 100 100 100 100 100 100 99 100 97 92 82 70 64 56 33 24 30 28
19 20 19 24 26 22 20 21 24 23 18 18 23 68 40 36 66 92 100 100 100 100 100 100 100 100 100 100 100 100 100 100 100 100 100 100 100 100 90 80 78 73 67 62 35 25 27 26 33

GFSSGP_250_rhum_075.txt.gz
RH
50 55 60 47 35 34 69 100 100 100 76 55 57 44 55 56 49 48 36 25 27 29 24 25 25 26 25 22 26 73 100 100 90 76 67 57 55 60 78 87 79 76 76 80 54 30 32 31 29
25 62 70 63 38 40 83 100 100 100 95 62 55 46 73 75 48 46 42 33 33 34 31 26 25 26 29 27 33 98 100 100 100 91 72 80 84 68 91 82 88 98 100 68 41 43 37 32 27
11 24 66 73 49 58 83 100 100 100 94 72 61 59 62 73 51 48 51 47 38 42 35 29 28 26 26 29 35 44 81 100 100 100 99 90 100 83 94 89 92 90 86 57 42 39 31 24 22
12 12 36 76 67 100 75 99 100 100 99 79 78 63 48 56 61 52 57 50 38 40 37 30 28 27 24 24 35 38 49 82 100 100 100 100 100 100 100 99 86 86 71 46 33 27 25 24 24
12 12 15 69 73 94 96 97 100 100 99 98 82 64 42 49 81 62 61 56 44 39 40 34 31 31 28 28 37 46 56 80 99 100 100 100 100 100 99 90 88 82 53 34 32 28 28 27 27
12 14 13 67 96 74 69 75 100 100 93 100 91 73 53 45 72 64 49 59 60 41 42 41 36 37 39 36 45 46 54 88 99 100 100 100 100 97 95 100 92 65 37 33 30 31 30 28 27
13 13 16 57 100 93 54 52 64 94 84 99 100 83 71 53 66 72 56 66 66 65 55 53 50 42 46 48 42 47 50 64 75 78 99 100 96 91 91 80 65 46 35 32 32 32 31 28 34
14 14 16 24 100 96 74 54 53 66 76 95 100 90 86 75 74 77 64 68 68 69 74 68 63 59 54 54 48 45 54 66 66 61 61 69 76 84 76 59 46 37 36 34 32 30 32 32 31
14 13 16 15 71 99 81 79 54 50 59 99 100 100 96 74 65 68 68 69 74 78 79 75 73 68 67 65 62 50 46 64 66 70 68 68 73 72 56 46 42 38 36 33 30 31 34 34 32
11 13 17 16 23 100 98 100 77 60 62 98 100 100 100 95 76 78 75 68 74 80 87 86 83 78 71 77 79 65 55 48 49 57 71 63 62 53 46 43 38 37 36 33 32 34 34 33 32
10 13 17 16 17 65 100 98 100 82 71 95 100 100 100 100 95 90 82 66 71 80 89 90 89 82 80 82 91 91 75 67 57 55 64 63 54 50 46 43 39 37 33 31 31 33 34 36 37
12 13 16 17 21 68 84 100 100 100 93 75 100 100 100 100 97 68 71 80 71 71 87 90 88 93 94 93 97 98 92 80 71 65 66 62 57 51 47 42 40 38 34 33 33 33 34 39 35
14 13 16 18 24 60 89 100 100 100 100 100 98 100 100 100 100 84 67 80 79 78 76 82 96 100 100 100 97 94 91 88 81 69 62 54 50 47 45 43 40 37 36 36 37 38 44 41 43
15 12 15 20 20 49 98 100 100 100 100 100 100 100 100 100 100 100 100 88 95 94 94 80 81 90 100 100 97 89 90 83 85 80 73 65 54 51 50 50 46 44 43 42 40 46 50 54 60
14 12 16 20 19 40 100 100 100 100 100 100 100 100 100 100 100 100 100 100 89 99 94 81 84 97 100 100 100 100 94 88 83 79 83 80 68 63 62 57 52 49 47 50 53 55 66 63 58
13 14 17 19 21 61 100 100 100 98 100 100 100 100 100 100 100 100 100 100 93 100 100 99 83 86 100 100 100 100 99 92 85 81 78 79 80 77 73 70 65 72 73 67 66 72 75 68 68
13 15 18 21 62 82 100 100 100 100 98 100 100 100 100 100 100 100 100 99 95 85 69 78 93 85 93 100 100 100 100 100 100 95 90 90 90 91 92 85 78 79 75 76 80 84 78 70 80
16 19 20 23 96 100 100 100 100 100 79 82 99 100 100 100 100 100 100 97 91 95 95 91 87 84 83 83 92 98 100 98 99 94 86 85 86 87 86 84 81 87 87 88 86 90 68 94 84
17 20 22 26 55 84 100 100 100 100 71 63 89 92 100 98 100 100 100 100 100 100 100 100 100 100 96 92 91 93 98 94 100 100 95 92 85 85 94 100 100 100 99 97 98 88 100 100 98
16 20 21 24 38 59 99 100 100 100 87 51 72 93 100 96 95 100 100 100 100 100 98 96 95 93 96 100 100 100 100 100 100 100 100 100 100 100 100 100 100 100 100 100 100 100 100 96 99
16 19 23 25 29 73 85 100 98 100 100 51 72 84 95 100 100 100 100 100 100 100 100 100 98 94 96 100 100 100 100 100 100 100 100 100 100 100 100 100 100 100 100 100 100 89 89 90 98
17 17 21 27 24 48 72 100 100 99 61 65 58 82 95 97 100 100 100 100 100 100 100 100 100 100 100 99 98 100 100 100 100 100 100 100 100 100 100 100 100 100 100 100 100 100 100 98 92
19 18 18 23 27 25 46 98 100 78 48 52 51 64 84 98 100 100 100 100 100 100 100 100 100 100 100 100 100 100 100 99 100 100 98 98 97 94 92 93 100 100 100 99 96 97 84 83 76
19 18 18 20 30 26 28 66 95 74 76 59 44 48 51 80 94 94 100 100 96 100 100 100 100 100 100 100 100 100 100 100 100 100 100 100 100 91 88 85 82 76 74 78 78 75 85 92 92
20 19 19 20 22 34 37 32 100 94 74 75 50 41 41 65 80 92 95 100 100 100 100 100 100 100 100 100 100 100 100 100 100 100 100 100 100 97 89 93 89 86 86 84 85 97 99 96 95
22 21 23 23 24 43 48 33 44 45 53 39 41 43 31 54 83 86 93 100 98 95 96 100 100 100 100 100 100 100 100 100 100 100 100 100 100 100 100 100 100 99 98 95 100 96 92 93 93
22 22 23 25 24 23 25 31 35 35 31 46 43 36 46 44 75 94 88 89 98 100 100 99 99 100 100 100 100 100 100 100 100 100 100 94 95 100 95 100 100 100 100 100 100 100 99 98 84
20 22 21 22 28 27 24 22 22 45 34 30 39 49 48 55 64 80 85 84 86 89 98 100 99 98 96 99 100 100 100 100 100 100 100 100 100 100 100 100 100 100 100 100 100 98 89 78 76
34 30 29 30 27 27 30 29 29 94 76 61 74 44 48 39 32 42 65 76 88 86 94 100 100 100 100 98 100 100 100 100 100 100 100 100 100 100 100 100 100 100 99 96 89 79 82 68 55
39 41 25 28 38 37 36 31 30 31 36 33 70 73 53 41 38 38 37 44 64 85 89 89 100 100 100 99 100 100 100 100 100 100 98 97 100 100 100 98 94 97 93 85 86 84 66 52 51

GFSSGP_250_rhum_078.txt.gz
RH
56 56 51 52 41 35 33 47 99 84 61 46 41 44 52 53 54 60 39 28 25 25 24 24 27 28 25 27 27 24 26 42 49 66 78 67 67 56 65 66 57 69 63 80 78 90 78 50 38
37 55 53 50 41 42 36 47 82 66 54 52 49 58 69 68 58 48 46 34 32 30 27 25 28 26 23 28 27 26 23 22 47 87 97 100 88 78 74 76 70 80 79 87 97 90 78 47 40
12 38 49 44 44 51 48 43 62 57 46 56 66 62 91 72 63 51 52 39 37 39 36 32 33 32 28 25 27 28 29 30 92 100 100 100 100 93 99 99 92 92 92 93 90 92 70 44 28
12 12 38 52 56 64 60 48 46 58 41 44 79 78 100 87 66 61 50 45 43 45 47 38 38 36 29 27 26 29 31 29 69 92 100 100 100 100 100 100 98 100 100 95 89 76 48 31 28
12 12 15 47 64 79 72 58 40 53 47 42 99 95 100 99 73 59 44 50 43 49 49 39 41 38 31 29 28 25 26 34 39 51 91 98 100 100 100 100 100 100 100 97 86 59 41 32 30
12 12 12 20 52 70 75 66 48 43 42 41 96 100 100 100 82 66 52 52 52 58 60 40 41 40 35 30 28 26 27 35 43 69 85 89 99 100 100 100 100 100 100 96 72 54 42 34 31
11 13 14 14 17 69 73 67 67 47 37 44 68 100 100 100 98 77 57 47 55 63 69 52 44 43 40 32 34 35 31 42 55 72 88 100 100 100 100 100 100 100 91 70 59 49 42 35 31
11 12 14 15 14 34 68 80 86 68 43 35 55 95 100 100 100 93 75 51 64 64 69 68 51 45 44 37 37 45 49 48 58 62 69 74 75 79 89 90 92 97 80 60 52 46 38 36 31
9 12 14 16 15 19 34 67 89 87 55 43 51 98 100 100 100 96 82 58 68 67 65 70 68 56 53 47 46 52 59 59 51 52 59 74 71 64 64 72 75 73 64 54 42 39 39 36 32
9 11 16 17 16 16 14 29 62 98 79 55 47 68 97 100 100 100 87 63 58 64 64 69 75 78 72 61 60 63 68 67 61 51 50 59 70 72 77 76 67 58 50 47 45 43 40 37 34
10 9 14 17 18 16 15 15 31 94 94 84 71 78 98 93 100 100 98 80 55 74 71 70 76 80 81 77 72 70 73 79 76 68 60 57 55 55 66 71 64 54 50 46 44 41 38 35 35
12 9 12 17 18 18 17 15 23 96 98 95 100 99 100 95 96 100 98 87 76 66 66 69 71 76 84 88 86 82 77 86 90 89 86 77 74 65 63 64 61 58 52 47 43 39 36 37 42
14 9 10 14 17 18 18 14 17 89 100 94 100 91 100 100 87 100 100 96 100 94 81 72 70 75 86 94 94 88 84 89 93 99 97 88 85 79 72 65 59 54 50 46 45 46 47 46 50
17 12 11 14 16 18 21 16 16 47 100 100 100 98 100 100 100 98 100 100 100 100 97 85 79 76 83 92 97 93 93 94 97 99 97 93 92 90 90 79 72 65 58 55 58 57 54 57 59
18 15 12 12 15 18 21 19 16 23 81 100 100 100 100 100 100 100 93 100 100 100 100 100 87 82 83 92 91 87 99 100 100 100 98 95 94 91 86 83 79 78 77 76 70 72 77 80 78
18 17 14 14 14 16 20 20 18 18 36 99 100 100 100 100 100 100 100 100 100 100 100 100 100 91 85 86 87 83 92 96 97 96 98 99 91 88 86 85 79 75 82 79 84 90 93 82 76
19 20 19 18 16 16 18 20 18 17 18 74 100 100 100 100 100 100 100 94 100 100 99 100 100 100 100 96 95 98 95 95 99 100 100 99 97 98 91 85 86 85 83 84 84 85 76 72 75
20 24 24 21 19 17 19 22 20 17 16 28 98 100 100 100 100 100 100 87 85 87 80 73 88 86 88 98 100 100 100 96 99 100 96 96 100 99 100 98 93 95 97 87 87 79 72 88 84
20 26 25 23 22 19 19 20 21 20 15 21 38 100 100 100 100 100 100 100 100 95 91 82 96 96 84 100 100 100 100 99 98 96 100 100 100 100 100 100 100 100 100 96 83 93 98 100 91
18 23 23 22 21 20 19 19 21 20 22 16 20 72 100 100 100 100 100 100 100 100 100 100 100 100 100 100 100 100 97 94 91 85 87 92 95 100 100 98 97 100 100 100 100 100 100 100 100
19 20 20 20 19 20 19 21 24 26 26 30 16 26 93 100 100 100 100 100 100 100 100 100 100 100 100 100 100 100 100 100 100 94 94 94 96 100 100 100 100 100 100 100 100 100 100 100 100
18 21 20 22 20 19 19 22 26 25 31 25 24 17 38 100 100 100 100 100 100 100 100 100 100 100 100 100 100 100 100 100 100 100 100 100 100 100 100 100 100 100 100 100 100 100 100 97 93
19 21 21 22 21 19 18 23 27 26 34 58 40 33 27 56 100 100 100 100 100 100 100 100 100 100 100 100 100 100 100 100 100 100 100 100 100 100 100 100 100 100 100 100 100 100 99 100 100
21 24 22 23 22 20 21 23 34 39 88 80 45 32 26 22 53 98 100 98 100 100 100 100 100 100 100 100 100 100 100 100 100 100 100 100 100 100 100 99 99 100 100 100 100 100 98 86 86
23 24 23 21 21 21 23 22 42 47 96 96 65 61 48 28 26 50 84 100 93 99 100 100 100 100 100 100 100 100 100 100 100 100 100 100 98 95 97 100 100 100 100 96 85 81 88 89 100
23 23 22 24 23 25 23 24 41 37 49 80 83 77 64 52 31 24 51 57 85 93 98 100 100 100 100 100 100 100 100 100 100 100 100 100 100 100 100 100 100 98 99 98 99 100 100 100 100
27 25 24 23 24 26 24 26 33 35 42 50 71 99 99 79 57 35 20 43 60 67 82 92 96 96 98 99 100 100 100 100 100 100 100 100 100 100 100 100 100 100 100 100 100 100 100 100 100
26 26 25 26 33 31 28 29 31 30 31 37 58 79 66 64 64 38 37 35 39 48 56 68 79 85 88 95 99 100 100 100 100 100 100 100 100 100 100 100 100 100 100 100 100 100 100 100 96
24 26 26 28 30 37 44 39 41 42 34 31 34 44 63 65 79 74 40 42 44 46 51 55 60 76 93 100 100 100 100 100 100 100 100 100 100 100 100 100 100 100 100 100 100 96 95 92 87
34 36 32 30 32 31 35 40 40 40 35 32 35 36 39 41 38 55 58 39 36 42 50 54 46 50 71 90 99 100 100 100 100 100 100 100 100 100 100 100 100 100 98 98 93 95 89 84 93

GFSSGP_250_rhum_081.txt.gz
RH
51 60 67 86 76 55 65 65 49 46 47 51 50 46 60 63 64 61 49 46 40 32 34 35 33 31 29 28 28 37 42 43 64 64 67 56 54 57 78 72 68 70 69 74 69 70 65 78 90
19 56 59 58 58 54 55 65 52 42 40 43 48 56 48 64 68 64 54 45 40 36 31 31 32 31 30 29 28 28 28 33 66 66 50 57 52 68 98 100 91 94 92 84 90 80 92 84 90
13 33 53 53 52 60 54 59 56 43 35 38 47 63 49 63 74 69 56 46 42 39 36 28 28 29 29 29 28 27 28 27 27 24 25 46 80 100 100 100 100 100 100 93 100 95 92 90 80
14 13 39 48 64 72 65 63 51 47 34 30 41 65 57 67 76 78 64 48 42 40 44 36 30 30 31 30 28 28 24 23 25 28 34 92 100 100 100 100 100 100 99 96 97 98 96 89 67
14 14 16 47 60 76 71 62 57 46 39 27 29 76 83 74 80 84 68 61 48 39 46 43 36 33 32 33 35 29 25 24 27 26 29 53 92 96 100 100 99 96 100 100 100 100 96 82 57
14 13 14 19 59 67 75 65 56 58 40 33 29 62 93 100 93 94 85 74 66 49 51 46 44 40 37 38 36 32 28 26 25 30 35 37 59 77 95 86 100 100 100 100 100 97 88 74 66
14 14 16 14 22 60 87 75 59 62 52 40 35 45 93 100 100 98 93 82 76 57 62 57 45 51 39 40 39 35 30 27 26 29 43 52 77 95 100 100 100 100 100 100 99 98 79 64 58
12 13 15 16 14 21 59 72 65 61 64 59 36 35 70 100 100 100 100 88 79 63 61 61 48 57 46 42 41 38 33 31 31 36 46 67 88 96 100 96 97 91 91 86 96 91 80 70 56
10 10 13 16 15 14 21 69 67 65 64 66 52 36 48 95 100 100 100 100 96 78 66 58 48 51 58 44 43 42 39 38 39 39 40 55 70 75 75 77 75 74 69 74 76 67 58 56 46
9 11 14 16 16 16 15 19 47 58 66 69 60 52 48 58 100 100 100 100 100 87 74 60 57 58 67 64 48 48 45 41 45 52 56 59 60 66 68 72 71 69 76 78 69 56 53 51 48
10 12 13 15 18 16 16 14 18 46 58 68 64 56 50 58 89 100 100 100 100 88 86 69 68 71 69 70 67 61 54 55 54 57 62 68 66 57 51 53 54 56 62 67 71 66 58 54 48
10 13 14 16 18 16 16 15 15 22 50 65 74 66 54 51 59 100 100 100 100 100 89 77 73 81 69 67 74 79 78 71 67 60 71 82 82 76 76 76 74 65 61 62 63 59 56 53 49
12 13 13 14 17 16 16 16 15 15 22 50 77 86 77 60 68 93 100 100 100 100 100 93 75 78 76 69 73 80 87 86 84 78 74 79 86 91 92 91 86 78 74 71 68 63 61 60 60
14 14 15 14 15 15 14 17 16 16 15 18 55 89 100 80 61 89 100 100 100 100 100 100 90 75 86 73 73 76 81 86 89 89 79 78 84 93 98 93 90 90 84 81 79 76 74 73 73
16 15 17 14 15 16 15 17 17 16 16 16 41 93 100 100 72 78 92 100 100 90 99 100 100 92 92 84 74 74 76 78 80 77 78 78 87 94 94 93 91 92 91 89 87 79 74 78 77
17 16 18 15 14 16 15 19 21 18 17 16 26 51 100 100 97 87 92 99 91 99 100 100 100 100 100 98 82 78 79 78 80 80 79 85 98 100 99 91 94 95 80 88 92 82 89 92 82
17 19 20 19 14 14 13 19 19 18 17 15 17 20 86 100 100 100 100 100 98 77 100 100 100 100 100 100 97 84 82 82 84 90 92 87 92 94 93 96 100 100 100 96 100 94 98 88 94
17 20 22 23 18 15 14 20 19 19 19 17 16 18 48 100 100 100 100 100 100 80 79 100 100 100 100 100 100 99 90 85 85 88 92 94 96 95 94 87 90 99 100 100 100 94 92 100 100
16 22 25 29 22 17 14 16 16 20 20 19 17 19 33 98 100 100 100 100 89 88 89 99 88 100 100 100 100 100 100 100 100 100 98 99 100 100 100 100 100 98 92 98 94 99 100 100 100
15 22 26 24 22 19 15 14 16 17 18 18 18 19 24 84 100 100 100 100 100 100 96 71 69 75 86 100 100 100 100 100 100 100 100 100 100 100 100 100 100 100 100 100 100 100 100 100 99
15 18 21 22 24 21 16 15 16 18 17 18 18 18 20 25 85 100 100 100 100 100 100 100 91 74 75 76 89 100 100 100 100 97 98 100 100 100 100 100 100 100 100 100 100 100 100 97 86
15 16 17 20 23 23 19 19 17 18 18 19 18 19 20 19 24 93 100 100 100 100 100 100 100 99 94 94 99 100 100 100 100 100 100 100 100 100 100 100 100 100 100 100 100 95 90 100 100
14 15 16 18 24 25 22 22 22 18 21 21 19 16 18 18 18 22 77 100 99 100 100 100 100 100 100 100 100 100 100 100 100 100 100 100 100 100 100 100 100 100 95 98 100 100 100 100 100
15 15 17 20 23 26 23 21 22 22 22 21 21 19 15 18 20 20 22 77 100 100 100 100 100 100 93 91 99 100 100 100 100 100 100 100 100 100 100 100 100 100 100 100 100 100 100 100 100
18 17 18 19 23 29 24 22 31 21 23 22 22 22 20 15 16 20 22 23 71 100 100 100 100 99 96 96 97 100 100 100 100 100 100 100 100 100 100 100 100 100 100 100 100 100 100 100 100
20 21 22 22 23 28 23 25 29 24 26 25 24 22 25 23 18 18 18 34 48 70 100 100 100 100 100 97 95 97 100 100 100 100 100 100 100 100 100 100 100 100 100 100 100 100 100 100 100
24 24 23 23 24 28 24 27 27 26 24 26 25 26 31 25 32 18 19 18 31 55 54 80 100 100 100 100 100 100 100 100 100 100 100 100 100 100 100 100 100 100 100 100 100 100 100 100 100
22 21 21 23 26 25 23 24 29 25 25 26 27 25 26 26 26 27 22 18 19 19 27 43 68 97 100 100 100 100 100 100 100 100 100 100 100 100 100 100 100 100 100 100 100 100 100 100 100
26 26 27 28 28 27 29 29 32 28 30 28 26 27 28 30 30 39 34 37 21 20 21 23 34 78 100 100 98 100 100 100 100 100 100 100 100 100 100 100 100 100 100 100 100 100 100 100 100
21 22 23 26 29 29 32 35 38 33 35 38 31 31 30 31 41 35 45 54 34 26 21 17 24 39 55 78 91 95 96 96 100 100 100 100 100 100 100 100 100 100 100 100 100 100 100 100 100

GFSSGP_250_rhum_084.txt.gz
RH
64 100 88 88 94 88 100 95 74 82 66 65 58 58 64 70 74 75 65 50 48 45 39 38 35 36 33 33 30 27 25 27 40 47 56 51 55 47 52 52 48 61 94 94 89 83 73 76 80
25 100 95 84 81 97 96 98 89 82 79 67 64 58 53 62 69 76 76 72 64 56 49 43 40 41 38 32 32 28 26 25 33 39 47 52 64 64 67 64 58 75 100 100 100 91 84 87 96
14 60 100 84 70 100 99 96 100 92 92 81 65 58 56 63 55 68 75 78 68 63 56 50 44 38 38 36 33 32 28 25 27 30 34 37 69 62 55 54 81 100 100 100 100 100 97 97 83
13 15 65 97 96 77 100 97 100 98 95 93 78 58 58 65 62 59 73 73 72 65 59 53 46 40 35 33 32 31 29 26 26 27 28 26 26 31 78 100 100 100 100 100 100 97 97 85 100
13 14 15 77 99 92 97 100 99 93 90 85 87 61 61 66 67 66 71 70 67 56 59 54 51 44 37 31 29 30 30 28 26 24 22 23 24 32 98 94 100 100 100 94 100 100 100 100 100
12 12 14 20 67 89 100 99 100 96 93 81 70 69 55 61 72 65 72 63 69 68 67 59 52 48 46 38 33 31 32 30 27 24 24 24 26 28 39 76 92 95 82 100 100 100 100 100 100
11 13 15 18 28 58 81 92 96 100 94 82 57 58 56 51 57 66 73 72 60 67 69 73 64 47 48 42 37 35 34 34 31 27 26 25 29 36 48 58 71 81 100 100 100 99 94 93 98
12 12 14 14 16 26 60 69 70 84 79 86 59 46 58 50 48 73 78 83 62 57 66 72 73 50 49 45 40 36 37 38 34 31 27 27 38 52 60 87 100 100 100 100 91 87 83 74 77
11 10 12 15 16 15 18 48 55 64 73 68 63 48 57 54 47 68 100 100 94 74 76 78 76 59 44 49 45 38 38 40 38 34 29 36 45 64 84 97 93 88 83 81 72 67 59 62 65
9 10 13 16 16 16 16 17 50 57 66 70 65 57 59 56 49 56 88 100 98 94 83 93 79 70 53 53 54 50 44 44 41 40 36 37 42 48 55 74 77 75 73 70 64 56 55 57 62
10 13 12 13 15 17 17 15 26 54 77 71 70 64 67 64 54 54 70 93 98 99 100 100 97 82 67 56 59 61 56 45 45 43 40 44 45 47 53 54 56 60 58 53 54 57 55 56 61
12 12 12 13 16 15 17 18 15 34 62 84 68 72 70 67 64 58 61 92 92 89 95 100 100 99 78 69 60 64 69 62 51 51 45 47 52 56 59 64 68 66 64 72 76 78 75 69 68
13 12 14 13 16 16 18 18 17 15 35 78 76 72 72 74 72 77 63 82 97 88 87 95 100 100 91 76 64 66 70 72 66 67 64 57 61 62 62 72 78 80 85 89 89 87 82 84 81
13 13 14 13 15 16 18 18 18 17 15 34 66 68 79 83 81 77 90 81 98 100 85 80 94 100 100 91 72 64 80 73 73 73 76 74 74 77 75 77 81 88 95 97 95 91 90 80 79
13 13 16 15 14 16 16 16 18 18 16 15 25 41 73 89 91 82 90 78 81 95 99 90 74 96 100 100 90 77 74 80 73 75 75 77 78 82 87 82 83 87 92 96 100 81 87 76 80
13 12 13 15 15 18 17 17 15 18 18 16 16 18 44 92 99 97 98 95 78 100 100 98 100 91 99 100 100 99 86 88 80 72 72 74 78 84 82 78 80 96 100 99 100 93 100 100 97
11 12 14 16 15 17 16 16 15 17 18 18 17 17 16 38 89 96 98 94 92 77 100 100 88 95 100 100 100 100 99 91 90 80 74 76 78 80 86 92 92 94 98 100 100 94 81 96 100
11 11 15 20 17 17 19 16 16 16 18 19 18 18 17 21 69 93 96 100 98 85 91 100 100 92 99 100 100 100 100 100 93 88 82 79 79 83 84 88 92 98 100 96 96 100 100 100 100
11 11 15 23 20 17 19 17 14 15 17 18 19 19 18 18 36 97 100 93 100 99 91 100 100 100 100 100 98 100 100 100 100 100 100 91 86 83 82 85 87 85 96 100 100 100 100 100 100
11 12 14 21 20 16 16 18 15 14 16 17 17 19 20 19 18 32 82 89 96 98 100 100 100 100 100 100 100 100 100 100 100 100 100 100 100 100 100 100 100 97 100 100 100 99 100 100 100
13 14 14 14 19 19 18 17 17 16 16 17 19 21 22 20 18 19 41 80 100 100 100 100 100 100 100 100 100 100 100 100 100 100 100 100 100 100 100 100 100 100 99 99 100 100 100 100 93
13 14 14 14 18 21 19 18 18 17 18 19 18 20 23 22 19 19 25 64 87 93 100 100 100 100 100 94 100 81 96 91 90 94 98 100 100 100 100 100 100 100 100 100 100 100 90 98 100
13 14 16 15 15 21 22 20 19 19 17 18 18 18 23 23 21 20 20 29 42 33 52 91 97 100 100 100 100 88 96 90 97 100 100 100 100 100 100 100 100 100 100 100 99 100 100 100 97
12 13 13 14 14 18 26 27 26 20 18 17 17 18 22 24 23 22 21 21 20 21 25 64 100 100 100 100 100 100 100 92 94 99 100 100 100 100 100 100 100 100 100 100 100 100 100 100 100
13 14 14 14 15 18 23 28 34 21 20 18 18 19 20 21 22 21 21 21 22 23 32 44 66 91 98 100 100 100 100 100 100 100 100 100 100 100 100 100 100 100 100 100 99 100 100 100 100
13 13 15 16 17 21 22 26 35 17 21 19 18 19 19 20 19 20 20 22 22 23 29 33 40 57 92 100 100 100 100 96 95 92 88 92 98 100 100 100 100 100 100 100 100 100 100 100 100
17 17 18 18 19 23 24 28 24 17 17 22 21 21 22 20 20 20 22 21 20 21 22 24 30 36 46 74 100 100 100 100 100 100 100 100 100 100 100 100 100 100 100 100 100 100 100 100 100
21 20 19 20 21 24 25 30 26 19 17 21 22 23 24 23 24 23 21 21 19 19 21 22 22 24 30 47 74 92 100 100 100 97 94 96 100 100 100 100 100 100 100 100 100 100 100 100 100
17 18 21 22 24 24 24 25 26 22 19 19 22 23 23 26 26 27 26 23 21 21 18 17 19 21 23 30 49 69 78 91 100 100 100 100 100 100 100 100 100 100 100 100 100 100 100 100 100
18 19 20 22 27 27 28 25 27 24 21 21 21 23 24 24 25 26 27 26 25 22 19 18 19 21 23 25 30 37 44 64 87 100 100 100 100 100 100 100 100 100 100 100 100 100 100 100 100

GFSSGP_250_rhum_087.txt.gz
RH
11 28 65 79 33 65 56 100 100 100 97 87 80 76 65 81 72 71 82 63 47 48 38 34 34 33 34 31 32 32 35 34 35 33 31 38 36 45 50 51 48 50 52 52 55 70 100 99 90
11 12 26 78 59 38 61 92 100 100 90 91 86 82 71 70 64 76 80 72 67 56 46 40 35 40 36 31 31 31 28 30 31 28 28 28 33 34 46 51 64 63 67 63 60 100 100 100 98
12 12 14 35 100 61 42 61 100 100 100 100 84 95 65 86 71 77 80 79 72 60 47 48 44 45 45 39 35 34 31 30 29 26 24 23 26 31 38 41 66 62 57 60 99 100 100 100 97
12 10 11 12 66 100 50 53 88 100 100 100 100 93 91 78 65 80 76 71 74 68 54 57 58 56 56 45 39 35 36 33 33 28 26 22 24 27 31 33 49 43 94 100 100 100 100 100 99
13 10 11 13 34 100 70 62 100 100 100 100 100 99 98 98 87 72 69 69 69 67 64 67 69 68 66 51 44 34 30 31 30 30 28 25 23 26 24 24 36 99 88 100 100 100 97 98 98
13 12 10 13 14 70 83 100 96 95 100 100 100 100 90 87 83 73 64 62 63 62 70 72 69 72 64 51 43 35 27 25 26 28 27 25 24 24 22 24 27 46 88 98 99 77 100 100 100
15 13 12 14 14 43 100 100 100 95 97 98 98 98 98 86 76 74 72 67 62 56 63 71 72 63 53 45 46 40 35 30 24 25 29 25 24 24 25 25 30 38 53 80 58 97 100 100 97
16 15 13 14 14 24 100 100 100 100 95 100 99 74 100 100 96 82 76 79 73 68 62 69 69 63 57 47 46 40 41 39 32 32 31 29 28 26 25 27 33 41 70 84 100 100 100 91 84
15 17 16 14 12 14 70 100 100 100 100 100 91 81 100 100 100 100 82 83 92 86 73 71 75 66 68 63 57 45 43 43 38 35 34 36 32 30 27 29 42 60 87 95 98 87 86 84 75
15 17 21 17 14 14 33 99 100 100 100 100 100 95 90 100 100 100 97 82 82 93 78 68 75 74 72 70 66 59 45 48 45 37 37 38 38 34 30 33 49 57 74 86 71 76 69 70 65
15 17 21 16 13 11 15 51 100 100 100 100 100 100 97 98 100 100 98 88 71 72 79 75 80 80 92 90 83 72 54 50 52 42 42 43 40 40 39 38 44 42 44 54 59 55 49 49 57
19 17 16 18 15 15 15 15 57 97 93 100 100 84 100 100 100 100 98 90 74 63 56 84 89 100 100 100 100 90 68 55 54 51 46 49 44 43 44 43 44 46 47 52 59 60 64 76 83
14 16 16 15 19 19 15 14 16 28 85 100 100 92 72 93 100 100 99 86 77 72 54 58 92 96 98 100 100 94 81 68 58 56 56 57 55 50 45 46 49 54 57 65 74 79 87 90 92
16 20 17 14 17 17 16 14 14 16 27 55 92 98 80 83 100 100 100 93 79 74 67 49 60 90 98 99 100 100 98 78 66 58 62 64 65 66 60 57 57 58 60 67 76 81 84 87 87
16 19 15 14 16 15 16 13 13 15 16 23 52 68 79 68 93 100 100 89 89 88 73 62 53 68 100 100 100 100 100 100 83 69 61 67 68 69 70 72 75 75 78 82 84 82 79 94 100
17 19 17 17 14 15 15 16 15 15 18 18 19 25 29 47 69 97 100 99 95 80 92 76 64 55 78 84 93 95 100 100 100 90 74 70 74 73 72 73 82 88 86 86 88 87 84 90 95
16 16 17 16 14 14 13 17 16 12 16 19 18 17 17 20 42 81 100 100 100 100 89 84 72 61 61 78 90 89 83 100 100 100 90 80 77 74 72 73 77 81 84 87 90 87 88 88 91
15 16 17 16 15 17 16 19 15 13 17 18 20 19 18 18 34 62 94 100 100 100 98 79 82 77 89 89 99 100 92 100 100 100 100 100 92 82 84 80 76 78 80 80 83 83 86 75 80
12 14 16 17 16 18 18 20 15 15 16 16 19 21 21 19 19 33 62 91 100 100 100 85 94 82 78 80 95 84 90 100 100 100 100 100 100 100 100 90 84 81 80 77 78 80 83 94 100
14 14 16 19 20 18 18 20 16 15 16 16 20 21 22 22 20 19 18 38 86 100 100 100 95 83 80 88 100 96 80 87 95 90 94 100 100 100 100 100 100 100 100 96 95 100 100 100 88
13 13 14 16 18 18 17 19 18 16 16 15 19 21 21 22 22 20 19 17 24 51 91 100 100 100 96 100 100 100 97 94 92 100 100 100 100 100 100 100 100 100 100 100 100 100 100 100 100
12 13 14 15 15 18 17 21 19 18 16 15 16 18 18 18 22 20 20 19 18 18 27 66 97 100 100 99 100 100 100 100 100 100 100 100 89 87 97 96 99 100 100 100 100 100 100 100 100
12 13 14 13 13 13 15 17 22 20 19 18 17 16 17 16 19 20 22 20 19 18 20 20 36 81 100 100 100 100 100 100 100 100 91 91 69 67 83 100 87 100 100 100 100 100 100 100 100
13 12 13 12 11 12 14 15 21 25 22 19 17 17 16 17 19 21 23 22 21 20 19 19 24 47 80 98 100 100 100 100 100 100 100 100 79 63 62 100 100 99 100 100 100 100 100 100 100
11 13 14 14 12 15 12 12 25 27 25 21 18 18 17 17 18 20 22 22 23 22 21 20 19 19 32 76 99 100 100 100 100 100 100 100 100 91 85 82 100 100 100 100 100 100 100 100 100
11 11 11 12 12 12 12 14 20 28 22 22 19 18 19 18 19 21 22 22 24 24 23 20 20 20 19 34 80 100 100 100 100 100 100 100 100 100 93 98 100 100 100 100 100 100 100 100 100
11 12 12 11 12 13 14 13 17 22 20 20 21 20 19 20 21 23 23 25 24 23 24 22 21 22 21 25 39 62 87 99 100 100 100 100 100 100 100 99 99 100 97 100 100 100 100 100 100
14 13 13 13 14 14 14 14 16 18 18 17 22 21 19 22 21 21 21 23 27 25 26 26 24 23 23 22 25 45 60 55 59 86 100 100 100 100 100 100 100 100 100 100 100 100 100 100 100
16 15 15 14 15 15 16 17 18 20 18 17 19 20 21 23 24 24 22 24 28 27 25 27 26 26 25 24 24 24 24 24 29 48 72 93 100 100 100 100 100 100 100 100 100 100 100 100 100
14 18 16 17 18 19 19 20 22 23 20 17 18 18 17 19 25 26 26 24 24 26 27 27 26 24 23 23 24 25 25 25 29 34 43 48 69 89 100 100 100 100 100 100 100 100 100 100 100

GFSSGP_250_rhum_090.txt.gz
RH
13 33 93 83 71 49 96 100 100 96 100 90 88 78 66 80 77 81 97 83 67 54 59 55 40 38 39 39 40 44 43 44 46 40 39 42 39 35 33 34 35 42 49 49 57 55 62 54 87
12 16 47 88 68 55 91 100 100 84 80 100 100 96 68 78 85 96 97 85 74 66 65 66 46 38 34 36 34 36 38 36 36 35 33 36 33 31 30 31 34 35 39 47 58 64 48 62 99
13 12 33 29 81 76 82 85 100 94 100 100 100 100 80 77 62 85 84 76 80 74 62 61 51 42 33 32 33 33 34 31 32 32 27 28 31 29 30 24 24 27 32 34 50 54 72 92 100
13 14 12 28 30 100 100 88 77 93 100 100 100 100 98 73 79 79 79 77 80 86 68 64 55 46 38 34 31 30 32 33 30 28 29 28 28 26 24 22 22 24 29 30 36 95 100 100 100
12 12 12 11 53 100 100 57 58 92 73 100 100 100 100 88 71 73 73 73 82 78 72 70 62 53 44 38 39 35 33 32 31 28 26 30 31 28 28 26 22 23 24 26 82 80 100 100 99
14 12 15 13 15 63 84 96 71 100 66 94 100 100 100 100 82 79 98 94 100 92 81 75 77 74 62 55 53 51 46 38 37 28 24 25 26 27 27 27 26 23 24 32 59 74 93 97 89
15 13 14 21 15 21 16 97 98 70 67 95 98 100 100 100 97 76 90 89 100 96 86 74 72 71 75 72 65 58 54 45 37 33 26 23 22 26 26 28 25 24 24 27 32 37 72 68 92
18 16 14 24 19 14 12 53 100 90 53 76 80 100 100 100 100 99 89 97 100 100 100 82 72 68 68 70 67 60 53 40 36 35 33 30 26 24 28 28 26 26 26 27 30 35 56 77 100
15 18 16 22 24 15 12 22 100 100 100 71 64 87 100 100 100 100 100 94 99 100 97 80 68 67 69 63 66 61 48 41 38 36 35 34 31 32 32 33 30 29 28 28 31 52 73 97 83
14 20 18 25 31 22 14 15 47 100 100 100 56 75 100 100 100 100 100 100 100 100 94 83 70 72 72 69 66 69 63 60 57 45 39 37 34 33 33 35 35 34 29 30 47 56 57 67 65
12 22 24 23 20 21 16 16 17 66 100 100 76 79 100 100 100 100 100 100 100 100 90 83 82 83 86 81 76 72 77 68 68 60 50 42 39 35 34 36 38 39 40 34 47 68 69 72 72
13 24 26 17 16 21 22 17 18 39 70 100 100 80 97 100 100 100 100 100 100 100 100 96 77 80 100 100 94 89 83 82 79 73 60 48 46 42 39 40 40 41 41 40 41 45 43 47 51
17 24 24 19 18 19 22 20 18 14 30 98 100 100 82 100 100 100 100 100 90 100 100 100 99 79 85 100 100 99 96 86 84 85 73 63 53 54 48 44 45 43 42 43 44 45 47 54 59
20 24 26 21 18 20 22 28 19 14 20 80 100 100 100 100 93 99 100 100 98 100 100 100 84 82 69 75 91 100 100 90 100 96 89 75 71 62 59 56 57 57 56 54 54 57 60 61 63
20 24 27 24 19 19 22 22 28 16 16 26 100 100 100 100 100 100 100 100 100 100 100 100 96 78 66 70 68 97 100 100 100 100 100 100 90 74 70 65 58 59 66 66 67 70 73 74 77
16 19 26 27 21 18 19 17 28 20 16 20 52 100 100 100 100 99 100 100 100 100 100 100 100 89 70 68 66 58 80 100 100 100 100 100 100 100 84 74 69 64 66 71 72 77 81 80 82
20 18 18 23 22 18 17 15 27 22 18 17 21 60 100 100 100 100 92 100 100 100 100 100 100 95 85 76 74 69 58 61 93 97 99 99 100 100 100 95 84 79 73 71 72 73 75 75 78
16 17 19 23 18 15 14 14 19 17 18 18 17 18 58 100 100 100 100 99 100 96 100 100 97 94 91 79 64 70 68 64 61 77 93 93 97 100 100 100 100 99 95 91 89 82 78 74 74
11 13 15 16 17 16 14 14 14 13 16 18 16 17 20 51 97 100 100 98 100 100 99 96 97 96 88 80 69 64 64 66 82 85 100 100 100 100 100 100 100 100 100 100 99 100 97 93 93
12 16 16 16 19 18 17 15 18 15 17 19 22 19 17 18 19 38 59 74 68 75 88 84 92 94 95 77 84 72 88 94 100 100 100 100 100 100 100 100 100 100 100 100 100 100 100 100 100
12 14 12 13 14 13 14 15 17 18 19 19 20 21 20 18 18 19 20 28 42 42 46 41 47 70 85 92 78 79 92 100 100 100 100 100 100 100 100 100 100 100 100 100 93 90 99 100 100
11 12 13 16 15 19 13 16 18 19 18 20 19 20 22 20 18 20 21 19 20 20 17 16 17 30 88 77 88 74 91 100 100 100 100 100 100 100 100 100 99 100 85 74 83 77 83 92 100
11 11 13 15 16 13 12 12 18 20 18 20 20 16 18 20 19 16 22 21 20 20 21 17 16 19 52 87 100 80 88 98 100 100 100 100 100 100 79 73 82 78 74 71 65 67 68 75 99
12 13 14 17 16 14 15 15 20 18 21 18 18 19 18 19 20 18 16 25 24 22 23 22 19 17 21 56 74 93 89 90 99 100 100 100 100 100 98 93 99 100 97 92 67 62 73 92 100
12 12 12 13 13 16 14 14 20 18 22 21 21 21 21 22 23 20 15 23 26 23 24 24 23 21 19 17 18 51 85 100 100 100 100 100 100 100 100 100 100 100 98 100 100 92 88 96 100
13 11 11 12 12 15 12 13 15 19 20 22 20 21 23 24 24 24 17 19 24 25 24 24 24 24 23 20 19 18 22 37 76 100 100 100 100 100 100 100 100 100 100 100 100 100 100 100 100
13 13 11 11 12 12 14 14 14 17 16 20 22 22 24 25 25 25 19 15 19 25 24 21 21 24 24 25 22 20 19 19 28 66 93 100 100 100 100 100 100 100 100 100 100 100 100 100 100
12 14 12 11 12 13 14 15 15 14 13 13 15 19 21 26 27 26 21 17 19 24 23 20 21 23 25 25 26 26 24 23 22 27 53 71 90 100 100 100 100 100 100 100 100 100 100 100 100
9 12 16 15 12 12 13 13 12 13 13 13 13 14 18 22 23 25 21 20 20 24 24 22 22 25 26 26 26 27 26 24 24 23 22 27 52 60 69 92 100 100 100 100 100 100 100 100 100
8 8 11 14 16 13 13 14 14 15 15 15 14 13 14 15 18 21 21 22 22 25 25 23 23 23 23 24 26 26 26 25 25 26 24 23 23 22 22 32 65 86 95 96 94 95 83 98 100

GFSSGP_250_rhum_093.txt.gz
RH
14 12 20 27 30 44 93 100 100 100 100 88 75 86 75 90 66 74 84 78 73 77 71 71 59 51 44 45 46 47 51 50 49 52 50 54 46 40 38 39 37 34 34 34 36 40 38 48 59
13 11 13 24 14 42 96 100 100 100 100 100 76 98 80 93 92 97 76 78 79 88 88 76 61 47 47 43 40 41 42 43 41 47 46 45 41 35 33 35 33 29 30 27 30 32 36 42 45
10 13 12 18 30 51 86 100 100 100 100 100 91 99 83 91 87 100 100 82 79 89 92 85 74 55 48 42 35 34 36 36 35 34 40 40 37 34 28 28 30 29 26 23 22 24 30 33 48
7 13 13 12 75 82 100 100 98 100 100 100 100 100 100 90 90 100 100 96 89 92 85 80 71 60 54 49 44 35 33 31 30 30 30 30 30 29 28 28 28 26 25 23 22 24 24 41 100
8 14 13 14 82 100 100 79 78 100 100 100 100 100 100 100 90 100 72 80 90 90 81 74 69 61 57 57 60 45 40 33 32 28 27 28 28 26 26 26 30 27 26 26 25 28 29 42 79
8 13 13 15 34 100 100 97 84 98 100 97 100 96 80 98 81 100 100 78 83 89 82 77 72 74 67 60 64 55 44 38 35 34 34 32 29 27 24 24 25 26 26 26 25 24 31 37 56
8 13 16 20 36 57 59 100 100 88 98 99 100 98 78 85 85 100 100 100 100 100 86 91 85 78 79 73 77 70 57 50 47 55 52 47 36 30 25 22 21 23 25 27 26 26 26 29 32
10 14 18 22 24 42 30 83 100 100 99 85 100 100 100 99 97 88 100 100 96 98 100 92 92 88 92 86 90 85 74 66 61 56 53 42 34 32 31 27 24 25 28 26 27 27 28 28 28
10 14 20 23 25 23 37 98 98 100 100 96 99 100 100 100 100 100 100 100 100 100 100 100 95 99 98 90 96 86 70 66 59 58 45 36 36 33 31 31 28 29 28 30 29 32 30 28 29
10 16 21 27 22 23 22 44 82 100 100 100 100 100 100 100 99 93 100 100 100 100 100 100 99 100 100 100 84 79 77 71 60 58 45 38 40 38 35 33 32 32 32 33 34 36 37 38 40
12 16 24 23 23 22 28 24 34 100 100 100 97 100 100 95 84 90 100 100 100 100 100 100 100 100 97 92 82 79 79 84 73 57 55 53 45 48 44 40 37 35 33 35 35 37 39 41 42
15 18 22 26 25 22 24 26 28 54 100 100 100 100 100 100 99 68 93 100 100 100 100 100 100 97 98 100 97 93 92 88 84 75 56 55 54 56 60 50 45 44 38 40 38 38 40 40 42
18 20 21 25 27 27 22 31 27 23 43 87 98 93 100 100 100 83 85 92 100 100 100 100 100 100 100 100 100 99 97 92 87 89 84 75 68 69 74 70 63 53 51 46 45 45 46 51 50
17 22 24 24 29 28 22 26 31 31 22 21 40 71 99 100 89 79 90 100 98 98 100 100 100 100 100 100 100 100 94 94 97 95 99 98 85 84 81 82 76 70 68 58 57 56 56 56 61
16 26 27 26 25 30 28 23 31 50 36 21 21 24 34 94 96 94 96 96 96 100 92 100 100 100 96 92 100 100 100 100 96 88 94 99 99 99 100 100 100 98 84 77 71 65 64 63 63
9 20 19 30 27 25 27 28 24 38 54 34 19 20 19 61 100 92 100 98 98 100 100 100 100 100 100 90 97 100 100 100 96 84 80 90 100 100 100 100 100 100 100 99 91 86 78 75 74
9 14 18 26 28 25 30 27 28 21 35 47 29 19 21 20 73 98 86 96 94 88 100 100 100 100 100 100 100 100 100 100 100 95 90 76 75 88 100 100 100 100 100 100 100 100 98 95 90
14 15 15 24 28 28 29 28 29 20 24 45 40 24 18 23 30 90 89 86 95 98 99 100 100 100 100 100 92 84 77 83 91 96 95 95 85 65 65 93 100 100 100 100 100 100 100 100 100
12 12 13 19 26 26 21 22 18 18 19 25 42 36 22 20 40 60 99 76 100 98 90 100 100 100 100 100 100 100 96 81 97 84 84 94 99 93 86 93 99 100 100 100 92 99 96 100 100
11 11 11 11 23 19 18 15 15 13 16 22 24 35 32 21 18 31 38 66 97 100 97 80 100 100 100 100 100 100 100 100 94 100 100 100 100 100 100 100 100 100 100 100 100 100 100 100 100
13 9 12 18 15 17 13 13 11 12 14 17 22 22 34 31 21 20 24 37 75 100 95 91 88 88 100 100 100 100 93 97 99 96 97 100 100 100 100 100 98 100 100 100 100 98 98 93 95
14 12 10 11 14 12 11 14 12 10 12 13 17 20 20 30 29 22 20 22 55 99 100 95 76 88 79 92 96 91 100 96 90 100 96 100 100 100 100 92 98 100 100 73 69 83 94 97 99
14 13 9 10 11 12 14 13 15 15 11 17 24 27 26 22 26 34 27 21 22 36 69 99 100 82 82 94 94 97 99 100 97 100 100 100 100 100 100 100 100 100 100 89 98 79 72 88 89
17 16 16 10 9 9 11 13 22 26 36 25 26 30 30 29 26 32 36 31 24 22 22 25 46 76 78 69 86 84 69 68 90 82 91 90 100 100 100 100 100 100 100 100 100 100 98 81 89
13 15 15 13 10 11 16 14 33 23 26 23 22 28 30 26 26 25 28 34 32 30 27 24 22 21 22 23 22 34 52 38 42 33 44 78 100 100 100 100 100 100 100 100 100 99 100 98 100
11 13 14 14 13 15 15 11 25 23 13 17 19 24 29 25 24 22 20 24 27 29 30 28 24 24 22 21 21 22 18 20 22 22 22 27 73 100 100 100 100 100 100 100 100 100 100 100 100
10 14 12 13 15 15 13 15 21 20 14 15 18 18 21 24 25 22 20 23 24 26 28 29 26 25 24 25 24 23 23 21 22 22 21 22 52 78 98 100 100 100 100 100 100 100 100 100 100
16 10 12 13 12 13 15 15 17 18 15 12 15 16 16 20 27 24 23 22 24 24 25 31 30 25 23 24 25 24 22 24 26 24 22 24 23 26 29 32 69 74 90 100 100 100 100 100 100
10 13 11 14 12 12 13 14 16 16 17 14 15 15 14 16 20 22 22 22 23 26 24 25 28 29 26 24 24 23 25 25 24 26 27 24 24 26 26 26 24 24 29 34 50 81 96 100 100
7 14 12 11 13 14 14 15 15 15 17 15 13 14 16 15 16 20 20 22 27 30 27 23 25 30 28 26 23 24 23 26 27 27 26 28 29 28 26 25 24 24 25 25 25 29 37 61 84

GFSSGP_250_rhum_096.txt.gz
RH
6 9 12 12 12 31 62 78 100 100 100 83 66 88 84 73 83 95 98 100 100 95 78 67 62 61 54 52 56 63 58 62 62 60 55 53 52 50 54 52 42 37 37 35 32 32 30 28 28
4 7 11 13 10 20 69 87 100 100 100 100 84 72 85 80 96 97 99 97 97 98 97 85 79 76 67 58 50 44 44 47 48 47 50 50 48 50 47 46 44 38 30 30 30 29 24 23 23
3 5 10 11 12 13 88 91 100 100 99 91 89 89 97 95 100 99 86 92 91 90 96 91 82 77 79 71 54 45 38 38 40 40 40 40 38 36 38 44 39 37 31 29 28 26 25 23 22
3 4 7 10 13 15 71 92 100 100 100 100 100 100 100 96 100 80 94 86 85 90 89 87 80 72 75 72 64 52 44 41 35 34 34 33 31 29 29 29 29 26 26 27 28 26 26 26 25
4 4 5 8 16 19 44 86 96 100 100 90 100 100 100 100 100 80 90 95 96 92 87 81 81 80 78 73 67 60 57 51 46 38 35 31 31 29 27 25 24 25 24 23 26 25 25 24 24
4 4 4 10 20 27 56 74 59 100 98 100 91 100 100 100 82 66 78 100 70 83 99 93 84 82 92 81 77 67 58 59 56 48 43 35 34 32 35 30 27 26 23 22 22 22 24 26 26
5 4 6 17 24 26 26 63 54 89 100 100 72 100 100 94 75 98 99 100 98 94 100 97 95 83 93 91 87 75 66 62 67 60 45 39 42 46 50 44 33 30 27 24 22 23 26 26 26
5 5 9 15 23 26 36 44 52 92 100 100 99 100 100 100 90 100 100 100 100 100 100 100 100 99 92 97 88 77 78 85 86 75 66 56 58 51 47 37 32 33 30 28 27 28 28 28 27
6 6 9 15 22 25 28 56 40 100 100 100 100 100 100 100 100 100 100 97 68 87 98 100 100 100 100 100 92 88 84 91 99 95 77 68 61 56 38 33 31 31 31 30 29 30 31 31 32
8 7 11 16 16 26 29 57 44 89 100 100 100 100 100 99 100 91 100 92 100 100 100 100 100 100 100 100 100 100 100 100 100 89 87 76 64 59 39 38 37 37 39 34 34 33 32 34 33
12 7 12 17 17 27 32 37 40 61 100 100 100 100 100 94 99 66 100 100 100 94 100 100 100 100 100 100 100 100 100 100 100 86 87 86 71 63 52 50 50 45 46 44 41 42 41 39 39
17 15 12 16 19 24 31 30 23 34 94 100 100 100 98 100 68 88 99 100 100 100 100 100 100 100 100 100 100 100 100 100 97 87 77 84 75 75 69 60 59 54 55 58 56 53 50 47 46
17 9 12 16 25 26 31 35 31 32 71 99 100 100 100 100 92 66 80 100 100 100 100 100 100 100 100 100 100 100 100 100 95 90 85 93 92 89 92 87 80 72 71 75 68 65 67 62 57
19 20 15 18 25 30 30 40 35 31 57 90 100 100 100 95 94 78 76 100 100 100 100 100 100 100 100 100 100 100 100 100 100 100 99 99 100 97 99 97 96 90 96 100 100 100 90 82 74
17 25 24 23 27 29 34 36 38 38 36 66 70 100 100 100 100 100 95 100 100 100 100 100 100 100 100 100 100 100 100 100 100 100 100 100 96 92 92 89 85 89 91 98 100 100 100 100 100
12 19 19 20 25 29 29 36 38 44 38 43 61 61 97 100 100 100 100 100 100 100 100 100 100 100 100 100 100 100 100 100 100 100 100 100 100 100 96 92 92 100 100 100 100 100 100 100 100
10 18 21 19 31 42 26 34 38 38 46 46 44 45 65 100 100 100 100 100 95 93 92 100 96 100 100 100 100 100 100 100 100 99 88 100 100 100 100 100 100 93 91 90 94 100 100 100 100
10 15 22 20 31 31 21 25 27 34 42 51 51 42 36 44 66 96 91 93 99 100 100 97 96 100 100 100 99 83 97 100 99 100 100 100 100 100 100 95 99 100 100 100 94 94 100 100 100
9 8 15 20 20 24 24 21 25 25 33 44 55 54 43 36 30 42 83 90 100 100 95 100 100 92 100 100 100 100 91 97 100 100 100 100 100 99 100 100 100 100 100 100 100 100 100 100 100
12 10 11 15 14 21 19 22 20 22 24 34 43 48 50 48 37 31 26 26 40 62 93 90 100 100 86 90 85 95 100 100 100 100 100 100 100 100 100 100 100 100 100 100 100 100 100 95 81
17 14 12 14 16 12 18 20 14 22 22 20 38 43 45 50 52 43 35 26 21 24 51 69 99 99 100 100 97 98 95 93 100 96 98 99 100 100 100 100 100 96 100 84 74 71 66 58 48
13 13 13 12 12 14 13 20 19 13 21 15 23 37 40 45 44 52 52 41 29 23 21 26 41 68 94 97 92 88 95 97 100 100 99 99 100 100 100 100 100 100 100 100 100 95 92 83 88
13 11 10 13 12 13 14 16 16 13 17 20 18 28 38 37 35 39 50 54 44 38 28 21 22 25 36 59 70 88 90 100 100 100 100 100 100 100 100 100 100 100 100 100 100 100 100 98 100
11 11 12 10 11 9 15 15 17 18 17 16 17 17 27 34 39 36 33 37 49 48 37 57 55 38 36 45 42 33 74 94 98 100 97 98 100 100 100 100 100 100 100 100 100 100 100 100 100
13 12 12 12 10 10 11 12 19 21 23 21 21 20 21 29 34 41 39 35 36 45 50 43 33 42 56 51 58 61 64 80 86 90 100 100 100 100 100 100 100 100 100 100 100 100 100 100 100
15 11 12 10 9 10 13 12 18 16 18 22 26 26 25 28 35 40 42 40 39 40 44 49 49 41 31 33 31 43 82 71 62 61 78 100 100 90 96 87 91 100 100 100 100 100 100 100 100
23 17 15 15 11 9 9 12 22 23 16 20 24 30 32 32 29 37 49 53 48 43 43 43 42 45 45 41 34 30 27 39 65 84 89 76 48 43 34 48 44 36 35 59 62 77 100 100 100
15 18 16 13 14 12 8 9 12 18 16 16 22 25 26 30 31 32 36 42 47 49 44 38 36 35 32 38 42 40 36 32 28 25 25 25 28 26 25 24 23 26 28 26 26 34 39 59 86
10 12 15 16 13 14 13 11 12 12 14 14 14 18 21 26 29 29 30 28 33 37 39 37 34 32 31 29 28 31 34 35 35 35 33 31 30 29 28 28 26 25 27 27 27 27 26 27 31
6 8 10 13 15 13 14 15 14 13 11 11 11 10 14 19 22 24 24 25 28 30 28 29 29 29 28 27 25 24 22 22 23 27 31 32 31 30 28 27 27 27 29 28 28 27 28 28 30

GFSSGP_250_rhum_099.txt.gz
RH
3 4 4 4 5 8 12 44 98 96 100 90 98 87 95 95 99 88 98 99 92 98 100 90 78 73 75 63 65 64 57 54 67 65 72 70 64 59 52 51 49 47 46 47 44 36 31 30 27
3 4 4 3 4 6 15 33 68 98 100 87 82 86 78 95 95 100 95 93 90 90 100 99 94 78 73 61 45 53 45 40 53 59 52 61 54 51 50 48 46 45 45 44 42 38 32 30 27
3 4 3 3 3 6 32 22 69 100 100 100 98 89 78 92 96 100 100 98 97 90 99 100 99 95 81 71 57 49 42 36 34 34 37 40 43 41 39 36 35 31 31 31 32 28 28 26 27
3 4 4 3 4 13 36 34 65 100 100 92 93 99 94 78 100 100 100 100 100 97 98 100 100 99 92 81 76 70 58 52 40 38 36 34 32 31 30 30 30 28 25 25 24 25 24 21 23
3 3 3 3 4 15 26 54 36 92 100 100 97 95 100 98 93 100 100 98 100 100 100 100 100 100 97 88 82 80 73 60 57 53 43 34 34 35 31 30 31 28 27 25 24 23 22 21 20
2 4 2 3 5 17 23 38 48 96 100 100 100 90 100 100 97 97 95 98 99 97 99 98 100 100 99 96 90 80 74 72 66 67 55 46 39 38 35 32 33 34 36 33 29 26 24 23 22
4 6 3 4 8 19 22 20 39 58 99 100 98 100 93 95 100 100 93 98 93 94 98 98 100 100 99 95 94 88 78 78 76 68 60 53 50 47 37 32 39 44 40 33 29 28 28 25 24
6 9 6 4 6 20 24 25 29 61 100 100 100 89 88 100 85 77 94 100 88 89 95 100 100 100 100 100 95 93 89 86 87 82 70 75 71 62 56 57 48 46 34 31 29 27 27 27 30
6 8 6 7 7 20 25 31 26 86 100 100 100 100 94 100 86 97 99 100 91 99 96 100 100 99 100 100 98 96 95 89 88 89 80 86 85 74 66 63 55 44 36 34 35 35 33 32 36
7 10 8 8 7 18 29 34 27 72 100 100 100 100 100 89 96 100 95 96 100 100 100 100 100 100 100 100 100 100 100 100 96 97 96 91 95 86 72 66 61 57 44 44 44 43 42 42 43
12 13 9 9 8 18 32 34 33 50 100 100 100 100 100 100 100 100 86 100 75 91 83 74 99 93 100 100 100 100 100 100 100 100 100 99 93 81 84 73 67 69 61 56 55 54 53 55 55
10 18 14 12 11 15 29 38 37 33 97 100 100 100 100 94 100 100 100 92 92 100 98 92 95 95 100 100 100 100 100 100 100 100 100 96 86 84 86 82 78 80 82 79 76 73 70 71 68
11 21 16 12 11 16 23 39 45 35 57 100 100 100 100 81 98 100 92 100 100 100 100 71 62 90 98 86 100 100 100 100 100 100 100 100 91 85 85 91 88 80 84 79 79 81 86 96 100
13 23 24 18 16 17 20 32 44 44 38 84 99 100 96 100 76 100 99 100 100 99 71 98 94 94 98 100 100 100 100 99 88 100 100 100 100 94 95 97 90 82 89 96 89 85 87 87 84
31 35 38 13 21 16 20 25 47 55 47 47 95 100 100 74 81 100 100 100 100 100 100 100 100 100 100 100 96 100 100 100 100 100 100 100 100 100 97 94 100 97 99 99 83 85 99 100 100
18 31 54 26 29 20 25 25 32 59 57 42 58 100 96 97 89 84 88 100 81 100 97 99 97 99 100 85 85 100 100 100 100 100 100 100 100 99 95 100 100 100 100 100 100 100 98 98 100
14 20 23 13 20 33 19 27 28 48 64 54 41 56 100 100 99 96 79 82 88 100 100 100 100 91 100 100 89 92 100 100 96 97 98 97 98 96 93 97 100 100 100 100 100 100 100 100 100
20 27 30 15 17 25 20 27 32 32 59 64 56 41 82 100 100 100 83 96 82 99 100 82 96 100 100 100 100 100 93 84 79 88 91 100 94 95 91 83 96 100 100 100 100 100 100 100 100
12 17 20 14 12 20 21 26 32 28 39 65 64 52 41 97 100 100 100 78 78 96 100 100 95 100 100 100 100 100 98 100 100 92 90 89 97 100 100 100 100 100 100 100 100 100 100 86 81
12 14 22 20 15 16 23 21 47 51 44 44 75 63 50 43 89 100 100 100 98 93 83 100 100 96 77 99 100 100 100 100 95 93 98 99 96 100 100 100 100 100 100 100 100 96 89 92 90
15 18 23 22 18 16 18 20 33 22 29 35 53 68 61 46 38 61 98 100 100 100 100 100 100 90 81 82 95 94 100 99 86 86 91 83 67 69 82 100 100 100 100 100 100 100 100 98 90
7 14 20 21 22 19 17 22 17 18 24 28 39 54 66 58 50 44 48 81 100 100 98 100 89 91 88 93 88 90 97 85 100 94 93 86 87 93 99 100 100 100 100 100 100 89 85 100 100
12 8 7 16 16 19 18 19 19 16 21 25 34 38 44 54 55 53 46 40 51 82 99 100 100 90 80 99 100 100 100 97 99 100 100 100 86 90 91 99 100 100 100 100 100 100 100 100 100
13 14 11 9 14 15 20 21 22 19 22 18 26 27 31 41 43 46 50 56 47 43 42 42 50 73 98 90 92 97 97 96 98 100 100 100 100 100 100 100 100 100 100 100 100 100 100 100 100
22 12 13 10 9 9 14 12 20 18 17 15 21 28 29 30 37 45 45 50 62 59 54 52 46 41 36 48 55 55 53 82 82 93 100 100 100 100 100 100 100 100 97 100 100 100 100 100 100
17 19 11 11 11 10 11 8 12 13 15 19 18 21 29 34 36 37 43 47 49 54 60 64 60 54 48 43 60 61 47 44 51 74 82 76 80 98 100 100 100 100 100 100 94 98 100 100 100
12 16 21 15 12 11 10 10 12 13 12 16 17 26 31 26 27 34 38 46 53 60 58 60 68 68 68 68 69 59 50 45 44 47 61 71 74 96 80 99 82 96 80 70 76 69 61 82 92
10 10 12 16 14 10 12 11 11 12 11 11 13 19 26 32 30 25 26 34 44 46 63 66 68 71 74 74 71 71 68 67 67 61 53 50 60 73 72 43 41 42 58 50 46 60 46 50 48
6 8 10 11 15 15 12 13 13 14 13 12 13 15 21 24 25 25 28 31 34 39 52 57 59 60 62 60 59 63 67 66 61 58 56 53 50 46 42 41 46 57 48 56 67 46 39 31 32
4 6 7 9 10 15 13 12 14 15 18 14 11 14 15 21 26 26 23 24 28 33 42 48 50 53 62 63 57 50 44 42 46 47 47 46 47 49 51 50 46 42 40 40 39 37 37 38 34

GFSSGP_250_rhum_102.txt.gz
RH
8 9 8 4 4 4 4 8 22 20 89 64 74 98 91 90 82 74 68 75 87 84 90 94 84 81 90 84 76 66 60 60 58 61 58 61 64 71 62 59 59 55 48 44 44 40 40 40 35
5 8 6 4 3 3 5 8 14 26 84 93 70 93 100 95 92 80 68 75 78 90 94 96 93 86 86 86 76 62 56 52 46 53 49 53 62 60 60 60 50 47 43 40 36 31 32 32 31
4 5 4 3 3 2 6 8 14 22 91 100 77 82 99 100 100 99 88 80 97 100 96 96 93 95 92 90 81 67 55 41 33 29 30 34 37 33 34 36 36 33 31 30 29 25 24 24 23
4 3 2 2 2 3 7 9 13 17 42 100 96 80 78 100 98 100 100 90 98 100 100 100 100 100 97 95 87 77 60 42 35 35 35 33 33 34 32 30 30 29 27 28 26 24 22 21 22
2 2 2 2 2 4 7 9 10 14 35 100 81 83 90 98 100 100 100 100 99 100 100 99 97 99 100 96 96 84 76 58 57 52 52 45 42 41 43 41 38 36 33 30 28 31 30 27 26
2 2 2 2 3 4 7 8 9 13 33 98 100 93 87 94 100 100 100 100 98 100 100 100 93 92 97 100 100 94 81 75 65 63 61 50 51 53 48 41 42 39 30 28 31 34 31 28 26
1 2 2 3 3 4 6 7 8 16 45 64 100 100 95 90 100 100 100 100 100 100 100 100 100 94 99 96 97 94 87 85 80 72 70 64 57 65 65 50 55 42 43 42 38 32 30 28 27
2 2 2 2 3 5 6 6 8 16 66 100 100 100 97 96 95 100 100 100 100 100 100 100 100 100 100 100 100 100 100 95 85 76 69 66 65 71 73 64 58 49 50 51 38 31 32 35 39
2 2 3 3 4 6 6 5 9 18 65 100 99 100 100 83 96 86 99 100 100 100 100 100 100 100 100 100 100 100 100 97 94 87 74 71 65 75 78 76 67 64 56 53 44 35 39 41 40
2 2 3 4 5 5 6 8 11 18 84 100 100 71 100 100 99 93 100 98 100 100 99 100 100 100 100 100 100 100 100 100 99 88 80 86 76 81 87 80 79 72 66 61 57 47 46 52 54
2 2 6 6 5 7 9 12 10 24 87 100 100 88 82 86 100 98 100 100 100 100 100 100 100 100 100 100 100 100 100 100 100 100 98 100 98 100 100 86 86 82 74 67 59 61 63 68 67
3 5 5 6 5 10 8 13 12 33 52 100 100 100 100 98 87 100 100 100 100 100 100 100 100 100 100 100 87 78 99 99 100 100 100 100 100 100 100 100 89 84 77 71 68 68 72 70 78
4 5 8 10 10 13 16 14 13 38 51 95 100 100 100 100 100 100 92 93 99 100 100 99 86 78 70 84 89 100 86 100 100 100 100 100 100 98 100 100 100 100 88 88 86 82 81 82 85
4 7 18 26 21 22 20 22 21 26 54 65 100 100 100 100 100 100 100 100 72 89 96 100 100 100 100 100 100 100 100 100 100 100 100 88 83 74 65 90 98 95 100 100 96 100 99 100 93
6 9 23 22 15 12 19 35 28 21 50 68 100 100 100 100 100 100 100 100 83 100 100 90 100 99 72 66 72 98 100 100 100 100 100 95 99 99 98 95 90 90 94 86 92 100 100 100 100
9 16 24 45 20 15 22 29 25 20 40 61 70 99 100 100 82 96 100 100 100 100 100 100 95 98 99 97 99 77 64 60 86 100 100 98 99 95 88 88 96 91 89 88 91 94 99 98 100
12 33 45 59 35 29 20 31 44 27 30 52 68 90 100 100 98 93 99 100 100 100 100 100 100 100 94 67 65 63 57 93 84 88 84 80 76 80 83 83 89 98 99 95 96 92 100 100 100
16 20 20 26 23 18 26 26 36 28 29 49 69 87 96 100 100 82 96 100 100 100 100 100 100 89 76 100 100 100 100 100 100 100 96 88 78 80 89 89 91 79 87 96 100 100 100 100 100
23 25 25 32 19 12 22 34 40 31 32 42 71 98 100 100 100 100 100 100 100 100 100 100 86 94 89 100 100 100 100 75 89 94 93 96 98 98 91 86 89 83 84 85 100 100 100 100 100
20 23 28 26 21 24 11 22 43 32 34 33 54 82 100 100 94 100 90 100 100 100 100 100 100 100 100 100 91 100 98 76 69 71 68 93 95 94 100 96 85 92 96 99 94 98 99 99 87
16 18 19 27 24 30 14 12 20 37 34 33 38 62 88 100 99 96 98 100 100 100 100 100 100 100 100 100 100 100 100 91 100 100 100 100 100 100 100 100 100 100 100 100 100 100 100 100 100
13 18 17 20 23 26 26 19 28 32 34 35 39 38 66 99 100 100 86 89 100 100 100 100 99 100 100 86 100 100 100 100 100 100 100 100 100 100 100 100 100 100 100 100 100 100 100 100 100
24 14 14 13 16 17 22 29 25 25 27 40 58 43 39 54 79 93 100 73 98 100 100 100 100 100 100 100 100 100 100 100 100 100 100 100 100 94 100 100 100 100 100 100 100 100 100 100 100
14 23 14 13 13 11 16 29 30 23 47 31 27 44 51 48 52 65 84 94 98 97 99 100 100 100 100 100 100 100 100 100 100 100 100 100 100 100 100 100 100 100 100 100 100 100 100 92 92
12 10 22 14 12 14 16 11 43 36 38 35 30 35 53 54 39 38 58 65 85 100 100 90 87 100 100 100 100 99 100 100 100 100 94 100 84 80 100 92 100 100 100 100 100 100 94 100 100
9 10 11 22 14 16 16 13 41 25 41 43 39 32 34 34 44 45 37 47 63 66 96 100 100 94 86 100 100 99 94 100 100 98 77 91 90 99 100 100 100 100 100 100 100 100 100 95 98
8 6 8 12 24 13 13 13 18 17 23 46 49 40 35 40 38 43 45 45 41 49 69 66 74 99 100 100 100 100 100 100 100 100 100 100 100 100 100 100 100 99 99 100 100 100 100 100 100
7 5 6 7 10 19 13 12 16 17 14 18 28 30 30 36 42 52 52 54 50 51 46 51 63 67 70 79 84 86 88 94 98 93 84 72 62 55 73 88 84 74 65 60 67 78 77 80 80
6 4 5 6 7 10 18 14 17 18 14 13 13 19 21 23 28 36 52 61 58 68 78 81 85 84 61 55 58 60 59 60 59 64 65 64 62 58 58 62 65 60 56 56 52 52 64 55 50
6 4 4 5 6 8 10 17 15 17 16 13 14 18 14 14 16 18 24 38 46 52 62 80 99 99 90 87 90 100 100 93 99 91 81 84 83 71 69 70 71 64 55 55 63 58 54 54 58

GFSSGP_250_rhum_105.txt.gz
RH
13 11 10 4 3 2 2 6 9 11 17 22 46 67 76 100 100 90 72 75 70 62 70 79 95 89 80 81 76 81 73 61 51 53 59 64 60 57 62 66 64 59 53 52 49 45 41 35 32
10 8 6 3 2 3 2 5 8 11 14 22 27 54 68 98 100 100 78 68 73 63 63 77 94 95 91 86 80 77 75 64 54 43 42 51 57 51 53 60 51 50 50 45 40 32 29 28 23
7 6 4 3 2 2 3 4 8 11 10 14 18 29 66 90 100 100 91 73 81 70 67 66 84 89 91 90 86 79 73 66 52 45 40 35 34 32 30 32 30 29 28 29 27 25 25 24 23
5 4 3 2 2 3 6 6 9 10 8 11 14 20 37 68 93 100 97 83 81 83 77 74 84 92 95 95 92 84 77 69 59 52 48 35 32 36 41 38 41 37 37 34 32 29 28 26 28
3 3 2 2 2 6 8 7 8 8 8 11 18 18 38 60 92 100 100 97 81 92 84 76 84 100 100 100 99 97 87 76 68 58 53 48 50 52 49 40 39 42 40 39 37 28 28 28 30
2 2 3 3 2 6 8 9 7 8 7 10 12 100 41 74 92 100 100 100 90 96 99 87 95 100 97 98 100 100 96 88 76 67 62 63 60 59 54 47 45 43 44 52 41 40 40 36 30
1 2 2 3 3 4 6 7 5 5 7 8 14 18 94 59 99 100 100 100 100 98 100 100 100 100 100 100 100 100 98 94 87 79 73 70 68 60 57 54 58 59 50 58 52 49 48 35 31
1 1 2 2 3 5 5 6 6 5 6 8 11 21 86 63 82 87 100 100 100 100 100 100 100 100 100 100 96 97 100 100 100 91 78 78 75 74 63 63 64 73 67 55 60 56 53 43 36
1 1 2 1 1 3 3 4 6 6 6 7 12 94 84 100 85 100 93 100 100 100 100 100 100 100 100 100 96 96 97 95 97 92 88 81 79 83 71 69 75 88 82 66 58 59 61 55 46
1 2 2 2 2 4 4 4 5 4 6 7 11 59 89 89 92 96 99 100 100 100 100 100 100 100 100 100 100 100 100 100 100 100 97 74 71 88 78 83 98 100 100 84 72 64 63 60 54
1 2 2 3 3 4 3 4 4 5 7 8 18 69 100 94 100 100 100 100 100 100 100 100 100 100 100 100 100 100 100 100 100 100 100 92 76 95 99 100 100 100 100 100 99 82 70 69 60
1 2 2 2 3 4 4 4 5 6 10 12 26 95 99 80 65 94 100 100 100 100 100 100 100 100 100 100 100 100 100 100 100 100 100 100 100 100 100 100 99 100 100 98 100 100 83 79 79
2 2 2 3 3 3 5 4 6 10 13 16 19 57 97 55 100 100 100 92 100 100 100 100 100 100 100 100 100 100 100 100 100 100 97 76 78 93 97 100 100 85 72 63 69 77 89 89 69
2 2 4 4 4 4 6 6 7 13 16 30 85 84 87 75 100 100 100 100 100 100 100 100 100 100 100 100 100 100 100 100 100 100 100 90 81 90 100 100 100 92 69 74 88 89 81 79 76
2 4 4 6 6 7 7 7 9 17 27 49 81 100 88 70 100 98 99 100 100 92 100 100 99 100 100 100 100 100 100 100 89 100 87 84 92 100 100 100 93 97 84 92 94 77 77 75 86
4 4 5 7 12 8 9 12 22 25 36 94 100 100 100 87 87 88 100 100 100 94 100 100 100 100 100 100 100 100 99 81 62 73 100 92 77 83 80 91 100 100 98 91 77 84 94 92 84
10 6 6 6 11 11 7 13 22 30 46 100 100 100 100 100 100 98 100 100 100 100 100 100 100 100 100 100 100 95 73 100 74 91 93 84 85 76 83 90 100 100 91 79 78 96 100 94 95
17 14 10 8 7 8 8 14 22 37 51 100 100 100 100 100 100 100 89 100 100 100 100 100 97 98 100 100 93 82 72 81 60 57 81 68 74 77 87 88 96 81 96 89 91 100 100 100 99
13 29 19 15 14 9 9 28 30 60 49 100 100 100 100 100 100 100 100 100 100 100 100 100 94 95 100 100 100 100 82 72 53 51 39 76 67 98 100 100 100 86 88 100 100 100 100 100 100
10 14 23 32 25 19 14 17 24 52 61 97 100 100 100 100 100 100 100 100 100 100 100 100 100 100 100 100 100 100 100 91 56 59 74 89 54 54 61 76 84 87 100 100 100 100 100 98 100
22 11 15 22 27 28 21 25 38 44 80 51 100 100 100 100 100 100 100 100 100 100 100 100 100 100 100 100 100 100 100 100 100 100 69 84 70 73 57 52 85 100 100 100 100 100 100 100 100
18 23 22 20 30 28 35 28 52 52 64 77 48 100 100 98 100 100 100 100 99 100 93 100 100 100 100 100 100 100 98 100 100 97 90 100 100 100 100 36 82 99 100 100 100 100 98 98 94
20 16 17 20 18 21 22 26 32 56 53 97 74 62 100 100 100 100 100 100 100 100 98 100 100 100 100 100 100 100 98 100 100 99 98 100 95 96 91 78 61 84 100 100 100 100 100 100 96
21 15 13 18 17 16 17 21 26 42 58 66 99 64 66 97 100 100 100 100 100 93 100 100 100 100 100 100 100 100 100 100 100 100 98 96 94 93 58 75 96 86 100 100 100 100 100 100 100
20 16 11 11 18 22 17 29 38 24 48 38 57 100 94 77 68 69 99 100 100 93 94 100 100 100 100 100 100 100 100 100 100 100 100 100 100 100 98 100 100 100 100 100 100 100 100 100 100
16 13 10 8 12 26 16 30 38 32 32 69 72 63 90 96 95 84 62 89 89 81 94 100 99 100 100 100 100 100 98 100 100 100 100 100 100 100 100 98 100 100 100 100 100 100 100 100 100
11 11 8 6 8 14 21 20 26 31 32 29 48 61 73 80 97 100 94 83 88 75 68 79 99 100 100 100 100 100 100 92 100 100 100 100 100 100 100 100 100 100 100 100 100 100 100 100 100
9 9 6 5 5 8 16 31 37 19 20 26 28 44 59 65 82 94 100 100 100 100 98 92 69 76 92 100 100 100 100 100 100 100 100 100 100 100 100 100 100 100 100 100 100 100 100 100 100
10 8 6 4 4 5 9 21 31 23 20 36 27 40 46 76 68 71 87 100 100 100 100 100 100 78 69 89 99 99 100 100 100 100 100 100 100 100 100 100 99 100 100 100 100 100 100 100 94
11 8 6 3 4 5 7 11 18 17 18 18 32 31 31 40 51 71 74 64 93 100 94 100 100 100 100 97 81 80 98 100 100 100 100 100 100 100 100 100 100 100 100 100 100 100 81 70 64

GFSSGP_250_rhum_108.txt.gz
RH
25 22 22 12 3 2 2 4 8 7 10 13 20 15 56 100 100 100 100 90 77 66 62 71 65 54 64 71 60 53 47 51 68 74 68 60 58 58 59 56 53 60 61 61 58 56 47 36 30
22 19 14 6 1 2 3 9 5 10 10 10 14 18 19 81 100 99 100 98 93 69 62 69 67 58 72 86 75 68 62 56 52 50 50 44 44 46 47 40 38 41 43 31 31 29 27 26 25
16 12 5 3 1 1 6 7 7 8 11 9 11 14 16 32 100 99 100 100 99 78 68 69 73 62 74 89 89 85 78 70 60 48 47 44 44 42 35 32 26 28 31 33 32 31 30 27 27
8 6 4 2 2 2 6 6 7 8 8 10 9 9 11 17 90 100 91 100 99 99 78 78 75 67 75 87 88 87 87 76 69 59 51 48 47 50 37 32 46 46 41 44 38 38 36 31 30
4 4 3 3 2 2 5 4 7 8 8 7 8 11 12 17 53 92 83 98 100 100 93 82 84 76 81 91 89 89 88 83 78 74 64 55 54 53 50 45 44 48 44 43 41 49 49 43 41
2 2 2 2 3 3 5 6 8 6 5 6 7 9 11 16 34 90 77 81 100 100 100 89 82 82 86 93 86 90 95 89 82 84 77 63 61 58 60 59 51 50 53 60 55 46 55 54 50
2 2 2 3 2 2 4 6 5 4 5 5 8 10 12 14 25 62 73 69 98 100 100 100 90 89 87 89 89 94 96 97 90 80 78 70 68 65 62 64 62 59 59 65 62 59 52 57 60
2 2 2 2 2 2 4 5 4 3 3 8 9 9 10 10 14 26 62 58 76 100 100 100 100 94 93 90 99 100 100 99 100 92 82 70 75 67 67 68 66 68 66 70 84 76 72 63 57
1 1 1 1 1 1 2 3 2 3 4 5 9 9 11 13 21 40 68 60 59 92 100 100 100 99 96 93 100 100 100 94 99 100 91 88 77 70 72 75 71 73 72 87 100 100 92 83 75
1 1 1 1 1 1 2 2 2 3 3 4 8 12 11 13 12 98 74 82 44 68 100 100 100 100 100 100 100 100 100 93 86 88 91 90 84 73 71 76 67 69 72 86 100 100 100 96 79
1 1 1 1 1 1 2 2 2 2 3 5 11 15 12 10 31 100 100 100 88 50 85 100 100 100 100 100 100 100 100 100 98 84 92 94 86 77 81 90 97 96 91 100 100 100 100 78 100
1 1 1 1 1 1 2 3 3 3 4 5 14 17 13 12 100 100 100 100 100 100 67 91 100 100 100 100 100 100 100 100 100 100 100 100 100 100 100 100 94 91 98 100 100 100 71 59 64
1 1 1 1 1 2 2 3 3 3 4 8 13 14 10 11 100 100 97 95 100 100 99 64 82 100 100 100 100 100 100 100 100 100 100 100 100 100 100 100 95 70 84 86 100 89 67 72 63
1 1 1 1 2 2 3 4 3 5 6 9 12 12 10 59 100 100 100 98 100 100 100 100 74 94 100 100 100 100 100 100 100 100 100 100 100 100 100 100 94 84 95 96 97 81 86 88 82
2 2 2 2 2 2 3 4 5 6 7 10 13 11 18 90 100 100 100 100 100 81 98 100 85 84 98 100 100 100 100 100 100 100 100 100 100 100 100 100 99 100 100 100 99 97 98 100 86
3 3 3 3 2 2 3 4 5 8 8 12 13 13 39 79 100 100 100 100 100 100 100 100 100 100 100 100 100 100 100 100 100 100 100 100 96 87 87 93 86 86 94 99 98 100 100 100 80
7 6 4 3 3 3 5 4 6 10 9 11 18 19 61 100 100 100 100 100 100 100 100 100 100 100 100 100 100 100 100 100 100 98 99 100 95 97 70 61 90 81 87 72 97 100 100 100 94
7 9 9 7 5 4 6 13 13 12 10 20 27 42 78 100 100 100 100 100 100 100 100 100 100 100 100 100 100 100 100 100 98 100 100 100 95 74 54 84 93 81 64 52 91 84 85 100 99
8 10 15 12 9 7 7 12 13 18 17 31 50 44 86 100 100 100 100 100 100 100 100 100 100 100 100 100 100 100 100 100 100 100 100 88 72 80 68 81 74 61 51 66 91 100 100 100 100
9 7 15 22 21 18 9 9 15 27 41 32 36 55 100 100 100 100 100 100 100 100 100 100 97 100 100 98 100 100 100 100 100 100 91 85 77 68 63 56 58 37 39 46 77 72 78 81 100
16 13 7 11 18 17 19 18 17 39 49 42 49 60 100 100 100 100 100 100 100 100 100 100 100 100 100 100 100 100 100 100 99 89 95 94 75 66 59 53 53 51 68 66 56 52 67 100 100
16 16 12 8 9 14 23 23 34 46 77 73 65 62 100 100 100 100 100 100 100 100 100 100 100 100 100 100 100 100 100 99 99 100 100 100 93 76 68 74 69 67 71 54 60 77 78 100 99
20 19 17 12 9 8 20 30 56 72 95 100 100 100 100 99 100 100 100 100 100 100 100 100 100 100 100 100 100 100 100 100 100 100 100 100 92 85 100 100 100 100 100 53 55 87 94 84 79
19 18 17 15 11 8 12 24 48 65 93 100 100 100 100 100 100 100 100 100 100 100 100 100 100 100 100 100 100 100 100 100 100 100 100 100 100 100 100 100 100 100 92 84 92 90 93 70 74
17 14 15 13 14 12 8 18 42 77 83 100 100 86 90 100 100 100 100 100 100 100 100 86 85 100 100 100 100 100 100 100 100 100 100 100 95 94 100 100 100 100 100 100 100 100 99 91 100
13 12 11 11 12 9 9 10 26 55 76 98 100 100 100 100 100 100 100 100 100 94 96 99 99 95 100 100 100 99 100 100 100 100 100 100 100 100 100 100 100 100 100 100 100 98 77 88 100
9 9 10 9 8 8 6 12 13 32 56 72 100 100 100 100 100 100 100 100 100 100 100 89 91 88 100 100 100 98 100 99 91 100 100 100 100 100 100 100 100 100 92 93 84 78 88 100 100
7 6 8 7 6 6 6 10 9 13 46 53 79 100 100 100 100 100 100 100 100 100 100 98 77 71 64 91 100 100 100 100 100 100 98 91 100 99 98 85 82 92 100 93 100 100 100 100 100
10 7 6 7 4 4 5 6 9 7 16 41 42 72 100 100 100 100 100 100 100 100 98 93 94 96 76 61 63 76 93 100 100 100 100 85 81 93 99 100 100 100 100 100 100 100 100 100 100
12 9 6 6 5 3 4 5 6 8 6 18 32 40 72 100 100 100 100 100 100 100 100 100 100 100 100 99 97 87 100 99 100 100 100 100 100 100 100 100 100 100 100 100 100 100 100 100 100

GFSSGP_250_rhum_111.txt.gz
RH
27 26 28 30 18 6 10 23 13 10 13 21 15 12 17 18 59 81 100 100 83 78 76 72 66 66 70 64 44 58 44 69 89 93 88 77 70 67 58 56 56 49 43 45 56 54 43 37 30
23 24 25 22 10 7 22 40 19 26 18 17 16 14 14 17 14 44 91 100 100 80 73 85 74 65 66 66 53 50 61 52 40 44 58 71 73 61 50 43 41 36 28 28 30 30 28 32 28
17 16 16 20 7 10 31 29 30 28 30 12 11 15 12 12 12 26 84 100 100 89 74 94 83 72 70 72 63 57 60 54 45 41 43 43 50 54 45 44 43 31 36 40 41 43 42 41 36
13 16 15 10 10 18 26 22 23 20 11 6 7 12 10 9 14 23 43 79 100 100 76 85 95 82 72 74 68 68 67 66 56 46 45 46 47 50 52 54 46 38 52 53 46 53 46 48 50
10 11 6 6 7 10 14 18 12 12 8 6 6 8 10 9 14 22 24 71 100 100 83 76 96 96 77 78 76 74 81 76 73 65 59 54 56 56 57 53 50 45 48 49 50 55 56 46 50
7 6 2 3 6 2 3 12 7 7 7 7 6 6 10 14 11 18 21 30 71 100 97 81 90 100 93 83 82 82 90 89 84 76 70 72 72 62 60 52 50 52 47 51 57 60 60 59 56
5 4 3 2 4 2 2 6 4 6 9 6 7 5 6 12 23 14 18 20 40 96 100 89 91 98 100 90 88 87 95 96 92 86 91 88 75 65 63 56 52 51 56 57 49 60 91 95 91
4 3 3 3 3 2 2 2 4 5 6 8 7 4 5 17 23 27 15 20 24 65 100 86 90 88 100 100 91 86 96 93 92 93 94 85 76 67 65 62 57 56 60 63 61 63 99 100 100
2 2 2 2 2 2 2 2 2 4 3 2 4 4 6 9 20 24 20 14 17 35 95 93 95 96 98 100 99 89 94 98 96 98 97 92 80 68 61 68 66 60 66 63 62 64 94 98 87
2 2 2 1 1 1 1 1 2 2 2 3 3 6 6 12 16 13 12 41 30 28 74 100 82 100 100 100 100 99 89 93 97 100 99 97 82 82 69 69 76 71 66 66 63 65 86 100 96
1 1 1 1 1 1 1 1 2 2 2 2 5 6 8 16 17 13 12 48 49 51 50 100 82 94 100 100 100 100 96 93 98 100 100 96 89 83 76 77 69 74 98 99 90 51 42 76 100
1 1 1 1 1 1 1 1 1 2 3 6 10 8 11 16 20 13 12 84 100 78 53 80 78 77 99 100 100 100 100 96 100 100 100 100 94 93 95 87 100 100 100 100 97 55 52 75 96
1 1 1 1 1 1 1 1 2 3 5 6 10 11 6 11 21 14 14 88 100 100 90 89 80 54 67 94 100 100 100 95 100 100 100 100 100 100 100 100 100 100 100 96 99 78 62 72 79
1 1 1 1 1 1 1 1 2 4 6 4 2 4 6 14 22 12 22 94 99 99 90 85 99 95 63 70 100 100 100 100 96 100 100 100 100 100 100 100 100 100 100 98 97 65 74 95 100
1 1 1 1 1 1 1 2 2 4 6 3 2 5 10 15 17 12 26 90 100 100 100 88 77 98 100 79 91 100 100 100 100 100 100 100 100 100 100 100 100 100 100 100 100 100 100 92 96
2 2 2 2 1 1 1 1 2 4 6 5 3 8 11 14 15 14 92 100 100 100 76 94 98 98 99 100 87 98 100 100 100 100 100 100 100 100 100 100 100 89 94 89 98 96 90 89 76
2 2 2 2 2 2 2 2 2 3 5 6 7 8 9 17 16 19 100 100 100 100 99 100 100 98 99 100 100 100 100 100 100 100 100 100 100 100 100 100 100 100 88 86 83 77 76 61 70
4 3 4 4 3 2 2 2 3 4 7 8 10 10 11 19 19 97 100 100 100 100 100 98 100 100 99 96 100 100 100 100 100 100 100 100 100 100 94 97 91 97 100 90 73 76 80 74 58
5 6 5 5 7 6 4 5 4 5 9 11 12 14 13 15 23 100 100 100 100 100 100 100 100 100 93 99 100 100 100 100 100 100 100 100 100 100 100 100 100 100 98 97 82 62 76 69 52
8 6 9 5 6 12 9 8 6 6 7 14 16 16 14 14 27 100 100 100 100 100 100 100 100 99 100 100 100 94 97 100 100 100 100 100 100 100 100 100 100 100 86 66 54 54 65 59 42
12 11 7 10 9 10 15 14 15 11 10 14 18 18 17 16 33 100 100 100 100 100 100 100 100 100 90 100 100 100 100 100 100 100 100 100 100 100 100 100 100 98 89 88 73 61 62 56 46
13 13 10 7 10 9 10 16 23 20 22 14 21 20 19 17 62 100 100 100 100 100 100 100 99 99 100 100 100 100 100 100 100 100 100 100 100 100 100 100 100 96 85 77 65 68 79 84 66
12 12 13 9 6 11 12 12 21 39 51 23 19 27 20 78 100 100 100 100 100 100 100 100 100 92 100 100 100 100 100 100 100 100 100 100 100 100 100 94 83 84 89 86 61 69 63 100 77
13 11 10 11 8 6 12 13 22 40 49 40 25 34 23 100 100 100 100 100 100 100 100 100 100 100 100 100 100 98 100 100 100 100 100 100 100 100 99 82 94 89 68 62 100 100 100 100 80
10 10 9 9 9 7 10 13 20 40 47 52 36 41 29 100 100 100 100 100 100 100 100 100 100 100 100 100 100 100 100 100 100 100 100 100 100 100 95 100 100 100 100 100 100 100 100 100 86
8 7 7 8 8 7 7 11 17 45 62 53 54 43 26 98 100 100 100 100 100 100 100 100 100 100 100 100 100 100 100 100 100 100 100 100 100 100 100 100 100 100 100 100 100 100 87 98 100
6 6 6 7 8 7 8 7 14 25 38 62 80 65 43 89 100 100 100 100 100 100 100 100 99 100 100 100 100 100 100 100 100 100 100 100 100 100 100 100 100 100 100 100 100 100 90 90 76
7 6 5 6 7 6 7 7 8 13 34 62 89 96 71 62 100 100 100 100 100 100 100 100 100 100 100 100 100 100 100 100 100 100 90 99 100 100 100 100 100 100 98 100 100 100 97 99 100
10 6 5 5 6 6 5 4 7 10 16 55 84 100 100 77 90 100 100 100 100 100 100 100 100 100 100 94 99 100 100 97 100 100 100 98 100 100 100 100 99 100 100 96 100 100 100 100 89
12 9 5 5 5 6 5 3 5 12 13 24 45 100 95 100 99 100 100 100 100 100 100 100 100 100 100 100 96 100 100 100 100 100 100 100 100 100 100 100 100 97 95 100 100 100 100 100 100

GFSSGP_250_rhum_114.txt.gz
RH
23 24 28 26 17 10 21 35 22 43 21 22 26 25 21 17 17 34 78 100 99 98 99 84 67 62 61 61 53 55 49 47 100 70 81 83 78 75 81 88 76 56 50 40 33 32 33 32 27
19 19 21 21 17 16 38 67 39 41 41 17 17 23 20 21 14 14 20 86 100 93 97 100 81 63 68 64 57 55 60 50 45 76 87 82 87 83 73 69 61 45 37 32 30 31 37 36 36
17 19 17 16 14 22 39 28 26 33 34 25 19 19 22 17 11 14 15 28 100 100 79 100 99 75 77 75 66 60 61 50 58 50 50 52 66 62 59 56 49 45 45 33 43 51 44 46 41
11 18 16 14 16 21 32 25 25 37 40 32 26 14 15 14 13 15 17 16 66 95 100 96 100 86 78 81 75 64 66 63 49 57 55 45 39 41 42 47 53 56 52 43 49 52 50 49 54
8 12 12 12 15 15 19 24 33 38 34 29 23 11 10 11 12 15 13 20 26 38 84 100 100 97 77 82 82 70 65 68 60 60 56 53 52 49 47 51 56 53 47 46 49 47 52 49 71
6 7 8 10 10 11 13 18 23 19 18 14 8 6 8 5 9 14 10 16 18 18 40 82 100 100 84 78 85 80 69 69 69 70 75 66 65 66 62 69 64 56 54 50 50 51 50 56 81
5 5 6 6 7 7 9 13 14 13 12 20 11 7 11 8 9 16 19 16 12 14 14 40 86 100 97 74 87 87 80 74 75 76 91 82 72 71 81 69 68 60 61 55 56 55 52 54 99
4 3 4 5 5 6 7 8 9 10 8 13 10 4 4 6 18 22 16 14 14 16 15 17 53 100 100 77 77 89 88 81 75 75 83 88 80 77 82 77 73 77 64 61 59 56 48 55 77
4 4 4 4 4 5 4 4 6 5 6 6 5 4 6 7 40 37 19 21 12 15 17 23 31 74 100 90 67 84 86 89 80 76 72 73 79 78 79 78 77 79 82 68 64 61 46 47 56
4 4 4 3 3 3 3 3 3 3 3 3 4 5 4 6 19 60 45 50 20 24 26 24 21 39 100 100 74 75 96 93 93 83 80 75 78 80 82 77 81 80 78 74 65 61 94 100 73
3 3 3 3 2 2 2 2 2 3 3 3 4 3 2 6 9 100 50 59 38 25 18 30 26 29 86 100 95 74 94 92 96 94 86 78 74 72 76 76 71 73 69 71 71 96 100 99 81
2 2 2 2 2 2 1 1 2 2 3 4 2 2 3 6 62 94 95 62 58 62 60 32 27 23 40 100 100 77 81 100 100 100 95 84 79 80 83 81 75 72 64 66 100 100 100 96 93
2 2 2 1 1 1 1 1 1 2 2 2 2 3 4 6 100 94 70 48 32 60 100 100 56 51 21 74 100 96 87 100 100 100 98 92 86 90 94 100 100 93 87 94 100 100 100 99 99
1 1 1 1 1 1 1 1 1 1 1 2 2 5 8 10 71 86 61 50 38 94 100 98 98 96 74 38 78 100 78 99 100 100 100 98 97 100 100 100 99 98 100 100 100 100 100 100 100
1 1 1 1 1 1 1 1 1 1 1 1 3 6 14 54 100 72 51 33 34 77 100 100 95 100 100 74 60 71 71 65 96 100 100 100 100 100 100 100 100 100 100 100 100 100 98 100 100
1 1 1 1 1 1 1 1 1 1 2 2 4 6 8 22 60 31 16 17 30 26 100 100 100 100 72 91 86 86 84 98 77 96 100 100 100 100 100 100 100 100 100 100 100 100 100 83 92
1 1 1 1 1 1 1 1 1 2 2 3 6 9 12 56 32 24 14 14 22 71 100 100 100 100 75 81 72 98 100 100 93 83 94 100 100 100 100 100 100 100 100 100 100 100 98 77 91
2 2 2 2 1 2 2 2 2 2 2 4 10 9 8 8 8 7 18 18 45 100 100 100 100 70 98 100 80 100 99 97 100 100 100 100 100 100 100 100 100 100 100 100 88 75 91 96 100
2 2 2 3 2 2 2 2 3 7 3 6 10 10 14 14 34 11 17 22 41 100 100 82 100 92 100 100 89 100 98 100 100 100 100 100 100 100 100 100 100 100 100 93 88 100 97 99 100
5 4 3 4 3 2 2 3 9 19 4 7 16 20 12 32 10 12 15 25 28 87 100 100 100 100 98 100 87 97 100 96 90 95 100 100 100 100 100 100 100 100 97 100 100 100 100 100 100
6 6 5 5 4 3 2 3 9 62 12 9 14 20 12 11 12 16 15 28 37 94 100 100 100 100 100 98 100 92 100 100 90 80 93 100 100 100 100 100 100 100 100 100 100 100 100 100 97
7 7 7 6 6 4 4 4 5 23 70 48 17 13 11 10 16 22 22 30 100 100 100 100 99 100 100 100 100 95 100 100 87 83 100 100 100 100 100 100 100 100 100 100 100 100 100 100 92
8 7 7 8 6 7 4 3 6 8 57 86 56 25 13 15 21 23 30 88 100 100 100 100 100 100 100 75 88 100 100 100 100 97 99 99 100 100 100 100 100 100 100 100 100 100 100 100 100
8 7 6 6 6 5 7 3 4 8 11 37 69 37 17 18 27 24 35 100 100 100 100 100 100 100 100 100 100 100 100 100 100 92 100 100 100 100 100 100 100 100 100 100 100 100 100 100 100
7 7 6 5 6 7 5 6 4 4 9 15 16 18 17 20 28 30 89 100 100 100 100 98 100 100 100 100 100 100 100 100 100 100 100 100 100 100 100 100 100 100 100 100 100 100 88 87 84
6 5 4 4 5 7 6 7 4 5 9 13 16 18 19 21 29 53 88 100 100 100 100 100 100 100 100 100 100 100 100 100 100 85 100 100 100 100 100 100 100 100 100 100 100 100 100 100 99
5 4 4 4 5 6 6 8 8 5 5 10 16 20 23 24 30 31 73 100 100 100 100 100 100 100 100 100 100 100 100 100 100 98 94 100 100 96 95 95 100 100 100 100 100 100 100 100 100
5 4 4 4 4 5 6 9 10 8 5 7 10 19 26 24 30 30 39 99 100 100 100 100 100 100 100 100 100 100 100 100 100 100 99 100 100 100 100 100 100 100 100 100 100 100 100 100 94
8 4 4 4 4 4 5 8 11 10 7 7 11 16 22 23 28 32 48 100 100 100 100 100 100 100 100 100 100 100 100 100 100 100 100 100 100 100 100 100 100 100 100 97 94 97 79 99 94
9 8 4 3 4 4 5 7 9 10 10 8 9 17 18 26 30 37 68 100 100 100 100 100 100 100 100 100 100 100 100 100 100 100 100 100 94 80 91 88 87 87 93 100 100 100 100 100 100

GFSSGP_250_rhum_117.txt.gz
RH
34 34 32 27 21 16 29 44 37 43 18 26 30 19 18 15 14 14 27 88 90 67 80 94 99 68 65 64 58 49 43 50 50 55 60 100 96 86 84 78 74 75 79 62 42 36 31 30 30
20 26 30 27 23 25 55 59 28 30 20 16 19 18 19 20 10 13 18 59 92 60 74 76 90 93 70 69 66 53 47 48 57 63 84 66 96 83 81 78 77 80 68 52 41 33 41 41 38
20 19 21 18 15 28 62 31 22 19 28 31 16 14 14 19 11 12 16 24 45 57 60 66 72 98 90 73 71 61 53 50 55 52 60 94 72 85 90 96 80 74 62 52 50 43 55 51 47
11 12 14 16 19 40 35 30 23 27 34 33 17 15 11 14 16 21 17 18 22 28 44 71 74 74 100 93 79 68 61 57 52 56 51 44 50 68 68 67 54 55 59 57 58 53 61 51 51
9 9 9 11 14 22 20 25 24 36 34 46 33 29 18 12 17 18 23 20 15 15 22 45 60 75 80 100 94 79 66 61 56 54 58 49 54 52 48 48 52 61 66 55 52 50 52 50 52
8 7 7 8 11 14 16 26 16 24 39 53 30 31 17 21 40 13 22 26 18 14 13 13 25 70 82 100 100 88 74 67 60 56 58 57 50 51 56 52 51 60 71 62 59 55 55 53 51
7 6 7 6 8 10 11 14 14 15 21 28 21 13 10 12 71 33 18 21 25 17 14 10 13 22 75 88 100 98 83 73 65 65 60 61 58 52 61 62 59 70 63 64 70 64 61 56 52
6 5 5 6 6 6 7 8 13 13 15 19 12 7 7 13 54 55 59 39 26 24 21 11 10 11 31 66 100 100 95 78 70 70 70 66 66 58 57 68 66 69 69 70 75 67 57 53 52
4 4 4 4 4 6 6 6 7 11 12 12 9 6 10 11 12 40 77 95 87 54 31 16 12 12 14 31 88 100 100 84 76 75 75 72 67 71 59 60 62 68 70 71 75 73 60 60 59
3 3 3 3 3 4 5 4 5 7 7 8 4 8 9 8 4 21 41 98 98 89 30 20 19 17 14 17 40 100 100 96 84 82 82 77 71 71 74 67 62 66 66 64 68 68 71 64 75
3 3 3 3 3 3 4 4 4 4 5 6 4 6 8 8 7 6 59 88 100 56 29 22 17 19 15 17 19 50 100 100 91 90 94 89 85 83 78 78 68 64 64 68 67 60 54 52 96
2 2 2 2 2 2 3 3 3 3 4 4 3 4 4 5 6 6 13 56 86 93 100 83 24 19 20 19 20 22 65 100 100 87 94 100 100 89 86 80 77 68 65 68 70 72 56 64 100
3 2 2 2 2 2 2 2 3 4 4 3 3 3 3 3 4 4 7 76 100 86 100 99 66 38 23 25 33 24 32 87 100 89 81 98 100 99 92 88 84 79 77 75 77 84 93 88 100
2 2 2 2 2 2 2 2 2 2 2 2 3 3 4 4 4 4 8 84 100 99 91 100 100 84 46 46 45 29 24 40 96 100 92 81 95 100 100 100 94 90 89 99 94 89 98 99 100
3 2 2 2 2 1 1 1 1 1 2 2 2 3 3 4 4 7 10 28 95 100 100 100 97 89 85 98 72 46 35 26 64 100 100 89 74 99 100 100 100 100 100 100 100 100 100 100 100
2 2 1 1 1 1 1 1 1 1 1 2 2 2 2 3 6 8 14 95 100 100 100 100 99 100 99 100 100 100 99 45 42 97 100 95 92 98 100 100 100 100 100 100 100 100 100 100 100
2 2 2 1 1 1 1 1 1 1 1 1 2 2 2 6 8 13 60 100 100 100 100 93 96 100 100 99 100 100 99 99 62 62 100 99 100 98 98 100 100 100 100 100 100 100 100 100 100
2 2 1 1 1 1 1 1 1 1 1 1 1 2 3 5 7 21 92 96 100 94 99 94 82 100 99 80 100 100 97 95 100 98 83 100 100 100 100 100 100 100 100 100 100 100 100 100 100
2 2 2 2 1 1 1 1 1 1 1 1 1 2 5 7 14 91 100 100 100 98 83 73 100 100 100 76 91 100 100 98 85 100 98 97 100 100 100 100 100 100 100 100 100 100 100 100 100
2 2 2 2 2 2 2 1 1 1 1 2 2 3 7 16 20 12 62 100 75 66 53 100 100 100 97 87 100 100 100 100 100 100 100 98 100 100 100 100 100 100 100 100 100 100 100 100 95
3 3 2 2 2 2 2 2 1 1 2 2 3 9 20 20 20 19 51 74 63 59 90 100 100 100 100 100 100 100 100 100 100 100 100 100 100 100 100 100 99 100 100 100 100 100 100 98 100
3 4 4 3 3 3 3 2 2 2 2 4 8 15 22 21 24 19 33 26 37 86 100 100 100 100 100 99 100 100 96 100 98 100 100 100 100 100 100 100 100 100 100 100 100 100 95 100 100
4 3 4 4 4 3 4 3 2 2 4 6 8 23 32 38 34 15 11 20 32 70 41 68 100 100 99 100 100 100 100 94 95 95 100 100 100 100 100 100 100 100 100 100 100 100 100 100 100
4 3 3 4 3 4 5 4 3 3 6 8 19 26 55 76 30 9 16 28 48 88 37 28 100 100 100 100 100 100 100 100 100 61 99 100 100 100 100 100 96 100 100 100 100 95 99 100 100
4 3 3 3 3 4 7 7 5 6 8 26 15 25 40 53 50 15 44 48 86 76 47 84 100 100 100 100 100 100 100 100 87 99 100 100 100 100 100 100 88 92 100 100 100 100 100 100 100
3 3 3 3 3 5 7 7 7 8 20 54 27 22 31 35 17 21 41 31 41 29 90 100 100 100 100 100 100 95 100 100 100 100 100 100 91 100 100 100 95 100 100 100 100 100 100 100 100
3 3 2 3 3 4 6 8 8 8 12 24 50 40 35 34 23 17 40 46 30 32 58 98 100 100 100 100 100 100 100 97 100 100 100 100 100 100 100 100 99 100 98 100 100 97 100 84 99
4 3 2 2 3 4 6 9 9 10 7 40 61 76 42 27 26 21 26 100 56 35 80 90 100 100 100 100 100 100 100 100 98 96 100 100 100 100 100 100 100 100 100 91 100 100 100 100 100
6 5 4 3 3 4 6 8 11 10 11 20 52 76 38 37 31 20 30 100 75 49 87 100 100 100 100 100 100 100 100 100 100 100 100 100 100 85 84 80 98 100 100 100 99 100 100 100 100
8 6 4 4 3 3 4 6 9 11 11 12 12 31 61 58 43 46 56 100 100 62 66 100 100 100 100 100 100 100 100 100 100 100 100 100 100 100 87 83 71 97 100 100 100 92 96 100 100